[[{"header":{"parameterUnit":"m.s-1","parameterCategory":1,"la1":31.0,"la2":29.5877,"lo1":-88.7671,"lo2":-86.6584,"dy":0.0162,"dx":0.0185,"nx":115,"ny":88,"refTime":"2023-10-21T06:00:00:Z","depth":0,"parameterNumber":2,"parameterNumberName":"U-component_of_WINDS"},"data":[0.0,0.0,0.0,0.0,0.0,0.0,0.0,0.0,0.0,0.0,0.0,0.0,0.0,0.0,0.0,0.0,0.0,0.0,0.0,0.0,0.0,0.0,0.0,0.0,0.0,0.0,0.0,0.0,0.0,0.0,0.0,0.0,0.0,0.0,0.0,0.0,0.0,0.0,0.0,0.0,0.0,0.0,0.0,0.0,0.0,0.0,0.0,0.0,0.0,0.0,0.0,0.0,0.0,0.0,0.0,0.0,0.0,0.0,0.0,0.0,0.0,0.0,0.0,0.0,0.0,0.0,0.0,0.0,0.0,0.0,0.0,0.0,0.0,0.0,0.0,0.0,0.0,0.0,0.0,0.0,0.0,0.0,0.0,0.0,0.0,0.0,0.0,0.0,0.0,0.0,0.0,0.0,0.0,0.0,0.0,0.0,0.0,0.0,0.0,0.0,0.0,0.0,0.0,0.0,0.0,0.0,0.0,0.0,0.0,0.0,0.0,0.0,0.0,0.0,0.0,0.0,0.0,0.0,0.0,0.0,0.0,0.0,0.0,0.0,0.0,0.0,0.0,0.0,0.0,0.0,0.0,0.0,0.0,0.0,0.0,0.0,0.0,0.0,0.0,0.0,0.0,0.0,0.0,0.0,0.0,0.0,0.0,0.0,0.0,0.0,0.0,0.0,0.0,0.0,0.0,0.0,0.0,0.0,0.0,0.0,0.0,0.0,0.0,0.0,0.0,0.0,0.0,0.0,0.0,0.0,0.0,0.0,0.0,0.0,0.0,0.0,0.0,0.0,0.0,0.0,0.0,0.0,0.0,0.0,0.0,0.0,0.0,0.0,0.0,0.0,0.0,0.0,0.0,0.0,0.0,0.0,0.0,0.0,0.0,0.0,0.0,0.0,0.0,0.0,0.0,0.0,0.0,0.0,0.0,0.0,0.0,0.0,0.0,0.0,0.0,0.0,0.0,0.0,0.0,0.0,0.0,0.0,0.0,0.0,0.0,0.0,0.0,0.0,0.0,0.0,0.0,0.0,0.0,0.0,0.0,0.0,0.0,0.0,0.0,0.0,0.0,0.0,0.0,0.0,0.0,0.0,0.0,0.0,0.0,0.0,0.0,0.0,0.0,0.0,0.0,0.0,0.0,0.0,0.0,0.0,0.0,0.0,0.0,0.0,0.0,0.0,0.0,0.0,0.0,0.0,0.0,0.0,0.0,0.0,0.0,0.0,0.0,0.0,0.0,0.0,0.0,0.0,0.0,0.0,0.0,0.0,0.0,0.0,0.0,0.0,0.0,0.0,0.0,0.0,0.0,0.0,0.0,0.0,0.0,0.0,0.0,0.0,0.0,0.0,0.0,0.0,0.0,0.0,0.0,0.0,0.0,0.0,0.0,0.0,0.0,0.0,0.0,0.0,0.0,0.0,0.0,0.0,0.0,0.0,0.0,0.0,0.0,0.0,0.0,0.0,0.0,0.0,0.0,0.0,0.0,0.0,0.0,0.0,0.0,0.0,0.0,0.0,0.0,0.0,0.0,0.0,0.0,0.0,0.0,0.0,0.0,0.0,0.0,0.0,0.0,0.0,0.0,0.0,0.0,0.0,0.0,0.0,0.0,0.0,0.0,0.0,0.0,0.0,0.0,0.0,0.0,0.0,0.0,0.0,0.0,0.0,0.0,0.0,0.0,0.0,0.0,0.0,0.0,0.0,0.0,0.0,0.0,0.0,0.0,0.0,0.0,0.0,0.0,0.0,0.0,0.0,0.0,0.0,0.0,0.0,0.0,0.0,0.0,0.0,0.0,0.0,0.0,0.0,0.0,0.0,0.0,0.0,0.0,0.0,0.0,0.0,0.0,0.0,0.0,0.0,0.0,0.0,0.0,0.0,0.0,0.0,0.0,0.0,0.0,0.0,0.0,0.0,0.0,0.0,0.0,0.0,0.0,0.0,0.0,0.0,0.0,0.0,0.0,0.0,0.0,0.0,0.0,0.0,0.0,0.0,0.0,0.0,0.0,0.0,0.0,0.0,0.0,0.0,0.0,0.0,0.0,0.0,0.0,0.0,0.0,0.0,0.0,0.0,0.0,0.0,0.0,0.0,0.0,0.0,0.0,0.0,0.0,0.0,0.0,0.0,0.0,0.0,0.0,0.0,0.0,0.0,0.0,0.0,0.0,0.0,0.0,0.0,0.0,0.0,0.0,0.0,0.0,0.0,0.0,0.0,0.0,0.0,0.0,0.0,0.0,0.0,0.0,0.0,0.0,0.0,0.0,0.0,0.0,0.0,0.0,0.0,0.0,0.0,0.0,0.0,0.0,0.0,0.0,0.0,0.0,0.0,0.0,0.0,0.0,0.0,0.0,0.0,0.0,0.0,0.0,0.0,0.0,0.0,0.0,0.0,0.0,0.0,0.0,0.0,0.0,0.0,0.0,0.0,0.0,0.0,0.0,0.0,0.0,0.0,0.0,0.0,0.0,0.0,0.0,0.0,0.0,0.0,0.0,0.0,0.0,0.0,0.0,0.0,0.0,0.0,0.0,0.0,0.0,0.0,0.0,0.0,0.0,0.0,0.0,0.0,0.0,0.0,0.0,0.0,0.0,0.0,0.0,0.0,0.0,0.0,0.0,0.0,0.0,0.0,0.0,0.0,0.0,0.0,0.0,0.0,0.0,0.0,0.0,0.0,0.0,0.0,0.0,0.0,0.0,0.0,0.0,0.0,0.0,0.0,0.0,0.0,0.0,0.0,0.0,0.0,0.0,0.0,0.0,0.0,0.0,0.0,0.0,0.0,0.0,0.0,0.0,0.0,0.0,0.0,0.0,0.0,0.0,0.0,0.0,0.0,0.0,0.0,0.0,0.0,0.0,0.0,0.0,0.0,0.0,0.0,0.0,0.0,0.0,0.0,0.0,0.0,0.0,0.0,0.0,0.0,0.0,0.0,0.0,0.0,0.0,0.0,0.0,0.0,0.0,0.0,0.0,0.0,0.0,0.0,0.0,0.0,0.0,0.0,0.0,0.0,0.0,0.0,0.0,0.0,0.0,0.0,0.0,0.0,0.0,0.0,0.0,0.0,0.0,0.0,0.0,0.0,0.0,0.0,0.0,0.0,0.0,0.0,0.0,0.0,0.0,0.0,0.0,0.0,0.0,0.0,0.0,0.0,0.0,0.0,0.0,0.0,0.0,0.0,0.0,0.0,0.0,0.0,0.0,0.0,0.0,0.0,0.0,0.0,0.0,0.0,0.0,0.0,0.0,0.0,0.0,0.0,0.0,0.0,0.0,0.0,0.0,0.0,0.0,0.0,0.0,0.0,0.0,0.0,0.0,0.0,0.0,0.0,0.0,0.0,0.0,0.0,0.0,0.0,0.0,0.0,0.0,0.0,0.0,0.0,0.0,0.0,0.0,0.0,0.0,0.0,0.0,0.0,0.0,0.0,0.0,0.0,0.0,0.0,0.0,0.0,0.0,0.0,0.0,0.0,0.0,0.0,0.0,0.0,0.0,0.0,0.0,0.0,0.0,0.0,0.0,0.0,0.0,0.0,0.0,0.0,0.0,0.0,0.0,0.0,0.0,0.0,0.0,0.0,0.0,0.0,0.0,0.0,0.0,0.0,0.0,0.0,0.0,0.0,0.0,0.0,0.0,0.0,0.0,0.0,0.0,0.0,0.0,0.0,0.0,0.0,0.0,0.0,0.0,0.0,0.0,0.0,0.0,0.0,0.0,0.0,0.0,0.0,0.0,0.0,0.0,0.0,0.0,0.0,0.0,0.0,0.0,0.0,0.0,0.0,0.0,0.0,0.0,0.0,0.0,0.0,0.0,0.0,0.0,0.0,0.0,0.0,0.0,0.0,0.0,0.0,0.0,0.0,0.0,0.0,0.0,0.0,0.0,0.0,0.0,0.0,0.0,0.0,0.0,0.0,0.0,0.0,0.0,0.0,0.0,0.0,0.0,0.0,0.0,0.0,0.0,0.0,0.0,0.0,0.0,0.0,0.0,0.0,0.0,0.0,0.0,0.0,0.0,0.0,0.0,0.0,0.0,0.0,0.0,0.0,0.0,0.0,0.0,0.0,0.0,0.0,0.0,0.0,0.0,0.0,0.0,0.0,0.0,0.0,0.0,0.0,0.0,0.0,0.0,0.0,0.0,0.0,0.0,0.0,0.0,0.0,0.0,0.0,0.0,0.0,0.0,0.0,0.0,0.0,0.0,0.0,0.0,0.0,0.0,0.0,0.0,0.0,0.0,0.0,0.0,0.0,0.0,0.0,0.0,0.0,0.0,0.0,-1.9738,0.0,0.0,0.0,0.0,0.0,0.0,0.0,0.0,0.0,0.0,0.0,0.0,0.0,0.0,0.0,0.0,0.0,0.0,0.0,0.0,0.0,0.0,0.0,0.0,0.0,0.0,0.0,0.0,0.0,0.0,0.0,0.0,0.0,0.0,0.0,0.0,0.0,0.0,0.0,0.0,0.0,0.0,0.0,0.0,0.0,0.0,0.0,0.0,0.0,0.0,0.0,0.0,0.0,0.0,0.0,0.0,0.0,0.0,0.0,0.0,0.0,0.0,0.0,0.0,0.0,0.0,0.0,0.0,0.0,0.0,0.0,0.0,0.0,0.0,0.0,0.0,0.0,0.0,0.0,0.0,0.0,0.0,0.0,0.0,0.0,0.0,0.0,0.0,0.0,0.0,0.0,0.0,0.0,0.0,0.0,0.0,0.0,0.0,0.0,0.0,0.0,0.0,0.0,0.0,0.0,0.0,0.0,0.0,0.0,0.0,-2.2816,-2.2112,-2.2284,-2.1606,-1.9935,0.0,0.0,0.0,0.0,0.0,0.0,0.0,0.0,0.0,0.0,0.0,0.0,0.0,0.0,0.0,0.0,0.0,0.0,0.0,0.0,0.0,0.0,0.0,0.0,0.0,0.0,0.0,0.0,0.0,0.0,0.0,0.0,0.0,0.0,0.0,0.0,0.0,0.0,0.0,0.0,0.0,0.0,0.0,0.0,0.0,0.0,0.0,0.0,0.0,0.0,0.0,0.0,0.0,0.0,0.0,0.0,0.0,0.0,0.0,0.0,0.0,0.0,0.0,0.0,0.0,0.0,0.0,0.0,0.0,0.0,0.0,0.0,0.0,0.0,0.0,0.0,0.0,0.0,0.0,0.0,0.0,0.0,0.0,0.0,0.0,0.0,0.0,0.0,0.0,0.0,0.0,0.0,0.0,0.0,0.0,0.0,0.0,0.0,0.0,0.0,0.0,0.0,0.0,0.0,0.0,0.0,0.0,0.0,0.0,0.0,0.0,0.0,-2.3783,-2.3021,-2.0997,0.0,0.0,0.0,0.0,0.0,0.0,0.0,0.0,0.0,0.0,0.0,0.0,0.0,0.0,0.0,0.0,0.0,0.0,0.0,0.0,0.0,0.0,0.0,0.0,0.0,0.0,0.0,0.0,0.0,0.0,0.0,0.0,0.0,0.0,0.0,0.0,0.0,0.0,0.0,0.0,0.0,0.0,0.0,0.0,0.0,0.0,0.0,0.0,0.0,0.0,0.0,0.0,0.0,0.0,0.0,0.0,0.0,0.0,0.0,0.0,0.0,0.0,0.0,0.0,0.0,0.0,0.0,0.0,0.0,0.0,0.0,0.0,0.0,0.0,0.0,0.0,0.0,0.0,0.0,0.0,0.0,0.0,0.0,0.0,0.0,0.0,0.0,0.0,0.0,0.0,0.0,0.0,0.0,0.0,0.0,0.0,0.0,0.0,0.0,0.0,0.0,0.0,0.0,0.0,0.0,0.0,0.0,0.0,0.0,0.0,-2.4985,-2.7192,-2.7226,0.0,-2.3985,0.0,0.0,0.0,0.0,0.0,0.0,0.0,0.0,0.0,0.0,0.0,0.0,0.0,0.0,0.0,0.0,0.0,0.0,0.0,0.0,0.0,0.0,0.0,0.0,0.0,0.0,0.0,0.0,0.0,0.0,0.0,0.0,0.0,0.0,0.0,0.0,0.0,0.0,0.0,0.0,0.0,0.0,0.0,0.0,0.0,0.0,0.0,0.0,0.0,0.0,0.0,0.0,0.0,0.0,0.0,0.0,0.0,0.0,0.0,0.0,0.0,0.0,0.0,0.0,0.0,0.0,0.0,0.0,0.0,0.0,0.0,0.0,0.0,0.0,0.0,0.0,0.0,0.0,0.0,0.0,0.0,0.0,0.0,0.0,0.0,0.0,0.0,0.0,0.0,0.0,0.0,0.0,0.0,0.0,0.0,0.0,0.0,0.0,0.0,0.0,0.0,0.0,0.0,0.0,0.0,0.0,0.0,0.0,0.0,0.0,-2.6396,-2.8297,-2.703,-2.5148,0.0,0.0,0.0,0.0,0.0,0.0,0.0,0.0,0.0,0.0,0.0,0.0,0.0,0.0,0.0,0.0,0.0,0.0,0.0,0.0,0.0,0.0,0.0,0.0,0.0,0.0,0.0,0.0,0.0,0.0,0.0,0.0,0.0,0.0,0.0,0.0,0.0,0.0,0.0,0.0,0.0,0.0,0.0,0.0,0.0,0.0,0.0,0.0,0.0,0.0,0.0,0.0,0.0,0.0,0.0,0.0,0.0,0.0,0.0,0.0,0.0,0.0,0.0,0.0,0.0,0.0,0.0,0.0,0.0,0.0,0.0,0.0,0.0,0.0,0.0,0.0,0.0,0.0,0.0,0.0,0.0,0.0,0.0,0.0,0.0,0.0,0.0,0.0,0.0,0.0,0.0,0.0,0.0,0.0,0.0,0.0,0.0,0.0,0.0,0.0,0.0,0.0,0.0,0.0,0.0,0.0,0.0,0.0,0.0,0.0,-2.7168,-2.7909,-2.9367,-2.6865,-2.4489,-2.262,0.0,0.0,0.0,0.0,0.0,0.0,0.0,0.0,0.0,0.0,0.0,0.0,0.0,0.0,0.0,0.0,0.0,0.0,0.0,0.0,0.0,0.0,0.0,0.0,0.0,0.0,0.0,0.0,0.0,0.0,0.0,0.0,0.0,0.0,0.0,0.0,0.0,0.0,0.0,0.0,0.0,0.0,0.0,0.0,0.0,0.0,0.0,0.0,0.0,0.0,0.0,0.0,0.0,0.0,0.0,0.0,0.0,0.0,0.0,0.0,0.0,0.0,0.0,0.0,0.0,0.0,0.0,0.0,0.0,0.0,0.0,0.0,0.0,0.0,0.0,0.0,0.0,0.0,0.0,0.0,0.0,0.0,0.0,0.0,0.0,0.0,0.0,0.0,0.0,0.0,0.0,0.0,0.0,0.0,0.0,0.0,0.0,0.0,0.0,0.0,0.0,0.0,0.0,0.0,0.0,0.0,0.0,0.0,-3.2223,-2.997,-2.9639,-3.1651,-2.7671,-2.529,0.0,0.0,0.0,0.0,0.0,0.0,0.0,0.0,0.0,0.0,0.0,0.0,0.0,0.0,0.0,0.0,0.0,0.0,0.0,0.0,0.0,0.0,0.0,0.0,0.0,0.0,0.0,0.0,0.0,0.0,0.0,0.0,0.0,0.0,0.0,0.0,0.0,0.0,0.0,0.0,0.0,0.0,0.0,0.0,0.0,0.0,0.0,0.0,0.0,0.0,0.0,0.0,0.0,0.0,0.0,0.0,0.0,0.0,0.0,0.0,0.0,0.0,0.0,0.0,0.0,0.0,0.0,0.0,0.0,0.0,0.0,0.0,0.0,0.0,0.0,0.0,0.0,0.0,0.0,0.0,0.0,0.0,0.0,0.0,0.0,0.0,0.0,0.0,0.0,0.0,0.0,0.0,0.0,0.0,0.0,0.0,0.0,0.0,0.0,0.0,0.0,0.0,0.0,0.0,0.0,0.0,0.0,0.0,0.0,-2.8659,-2.9287,-3.042,-3.2095,-2.8351,-2.6246,0.0,0.0,0.0,0.0,0.0,0.0,0.0,0.0,0.0,0.0,0.0,0.0,0.0,0.0,0.0,0.0,0.0,0.0,0.0,0.0,0.0,0.0,0.0,0.0,0.0,0.0,0.0,0.0,0.0,0.0,0.0,0.0,0.0,0.0,0.0,0.0,0.0,0.0,0.0,0.0,0.0,0.0,0.0,0.0,0.0,0.0,0.0,0.0,0.0,0.0,0.0,0.0,0.0,0.0,0.0,0.0,0.0,0.0,0.0,0.0,0.0,0.0,0.0,0.0,0.0,0.0,0.0,0.0,0.0,0.0,0.0,0.0,0.0,0.0,0.0,0.0,0.0,0.0,0.0,0.0,0.0,0.0,0.0,0.0,0.0,0.0,0.0,0.0,0.0,0.0,0.0,0.0,0.0,0.0,0.0,0.0,0.0,0.0,0.0,0.0,0.0,0.0,0.0,0.0,0.0,0.0,0.0,0.0,0.0,-2.8377,0.0,-3.1999,-3.2006,-2.885,-2.6518,0.0,0.0,0.0,0.0,0.0,0.0,0.0,0.0,0.0,0.0,0.0,0.0,0.0,0.0,0.0,0.0,0.0,0.0,0.0,0.0,0.0,0.0,0.0,0.0,0.0,0.0,0.0,0.0,0.0,0.0,0.0,0.0,0.0,0.0,0.0,0.0,0.0,0.0,0.0,0.0,0.0,0.0,0.0,0.0,0.0,0.0,0.0,0.0,0.0,0.0,0.0,0.0,0.0,0.0,0.0,0.0,0.0,0.0,0.0,0.0,0.0,0.0,0.0,0.0,0.0,0.0,0.0,0.0,0.0,0.0,0.0,0.0,0.0,0.0,0.0,0.0,0.0,0.0,0.0,0.0,0.0,0.0,0.0,0.0,0.0,0.0,0.0,0.0,0.0,0.0,0.0,0.0,0.0,0.0,0.0,0.0,0.0,0.0,0.0,0.0,0.0,0.0,0.0,0.0,0.0,0.0,0.0,0.0,-2.7861,-3.2194,-3.448,-3.4225,-3.1523,-2.9048,-2.6072,0.0,0.0,0.0,0.0,0.0,0.0,0.0,0.0,0.0,0.0,0.0,0.0,0.0,0.0,0.0,0.0,0.0,0.0,0.0,0.0,0.0,0.0,0.0,0.0,0.0,0.0,0.0,0.0,0.0,0.0,0.0,0.0,0.0,0.0,0.0,0.0,0.0,0.0,0.0,0.0,0.0,0.0,0.0,0.0,0.0,0.0,0.0,0.0,0.0,0.0,0.0,0.0,0.0,0.0,0.0,0.0,0.0,0.0,0.0,0.0,0.0,0.0,0.0,0.0,0.0,0.0,0.0,0.0,0.0,0.0,0.0,0.0,0.0,0.0,0.0,0.0,0.0,0.0,0.0,0.0,0.0,0.0,0.0,0.0,0.0,0.0,0.0,0.0,0.0,0.0,0.0,0.0,0.0,0.0,0.0,0.0,0.0,0.0,0.0,0.0,0.0,0.0,0.0,0.0,0.0,0.0,0.0,0.0,0.0,-2.9319,-3.1976,-3.349,-3.3439,-2.9078,-2.6977,0.0,0.0,0.0,0.0,0.0,0.0,0.0,0.0,0.0,0.0,0.0,0.0,0.0,0.0,0.0,0.0,0.0,0.0,0.0,0.0,0.0,0.0,0.0,0.0,0.0,0.0,0.0,0.0,0.0,0.0,0.0,0.0,0.0,0.0,0.0,0.0,0.0,0.0,0.0,0.0,0.0,0.0,0.0,0.0,0.0,0.0,0.0,0.0,0.0,0.0,0.0,0.0,0.0,0.0,0.0,0.0,0.0,0.0,0.0,0.0,0.0,0.0,0.0,0.0,0.0,0.0,0.0,0.0,0.0,0.0,0.0,0.0,0.0,0.0,0.0,0.0,0.0,0.0,0.0,0.0,0.0,0.0,0.0,0.0,0.0,0.0,0.0,0.0,0.0,0.0,0.0,0.0,0.0,0.0,0.0,0.0,0.0,0.0,0.0,0.0,0.0,0.0,0.0,0.0,0.0,0.0,0.0,0.0,0.0,-2.9901,-3.3095,-3.4728,-3.4366,-3.0047,-2.7721,-2.7733,0.0,0.0,0.0,0.0,0.0,0.0,0.0,0.0,0.0,0.0,0.0,0.0,0.0,0.0,0.0,0.0,0.0,0.0,0.0,0.0,0.0,0.0,0.0,0.0,0.0,0.0,0.0,0.0,0.0,0.0,0.0,0.0,0.0,0.0,0.0,0.0,0.0,0.0,0.0,0.0,0.0,0.0,0.0,0.0,0.0,0.0,0.0,0.0,0.0,0.0,0.0,0.0,0.0,0.0,0.0,0.0,0.0,0.0,0.0,0.0,0.0,0.0,0.0,0.0,0.0,0.0,0.0,0.0,0.0,0.0,0.0,0.0,0.0,0.0,0.0,0.0,0.0,0.0,0.0,0.0,0.0,0.0,0.0,0.0,0.0,0.0,0.0,0.0,0.0,0.0,0.0,0.0,0.0,0.0,0.0,0.0,0.0,0.0,0.0,0.0,0.0,0.0,0.0,0.0,0.0,0.0,0.0,0.0,-3.2883,-3.7141,-3.7757,-3.4387,-3.1793,-2.8528,0.0,0.0,0.0,0.0,0.0,0.0,0.0,0.0,0.0,0.0,0.0,0.0,0.0,0.0,0.0,0.0,0.0,0.0,0.0,0.0,0.0,0.0,0.0,0.0,0.0,0.0,0.0,0.0,0.0,0.0,0.0,0.0,0.0,0.0,0.0,0.0,0.0,0.0,0.0,0.0,0.0,0.0,0.0,0.0,0.0,0.0,0.0,0.0,0.0,0.0,0.0,0.0,0.0,0.0,0.0,0.0,0.0,0.0,0.0,0.0,0.0,0.0,0.0,0.0,0.0,0.0,0.0,0.0,0.0,0.0,0.0,0.0,0.0,0.0,0.0,0.0,0.0,0.0,0.0,0.0,0.0,0.0,0.0,0.0,0.0,0.0,0.0,0.0,0.0,0.0,0.0,0.0,0.0,0.0,0.0,0.0,0.0,0.0,0.0,0.0,0.0,0.0,0.0,0.0,0.0,0.0,0.0,0.0,0.0,-3.5291,-3.8886,-3.9659,-3.713,-3.3361,-3.0527,0.0,0.0,0.0,0.0,0.0,0.0,0.0,0.0,0.0,0.0,0.0,0.0,0.0,0.0,0.0,0.0,0.0,0.0,0.0,0.0,0.0,0.0,0.0,0.0,0.0,0.0,0.0,0.0,0.0,0.0,0.0,0.0,0.0,0.0,0.0,0.0,0.0,0.0,0.0,0.0,0.0,0.0,0.0,0.0,0.0,0.0,0.0,0.0,0.0,0.0,0.0,0.0,0.0,0.0,0.0,0.0,0.0,0.0,0.0,0.0,0.0,0.0,0.0,0.0,0.0,0.0,0.0,0.0,0.0,0.0,0.0,0.0,0.0,0.0,0.0,0.0,0.0,0.0,0.0,0.0,0.0,0.0,0.0,0.0,0.0,0.0,0.0,0.0,0.0,0.0,0.0,0.0,0.0,0.0,0.0,0.0,0.0,0.0,0.0,0.0,0.0,0.0,0.0,0.0,0.0,0.0,0.0,0.0,-3.4819,-3.7065,-3.9971,-4.0881,-3.9662,-3.6082,-3.2645,0.0,0.0,0.0,0.0,0.0,0.0,0.0,0.0,0.0,0.0,0.0,0.0,0.0,0.0,0.0,0.0,0.0,0.0,0.0,0.0,0.0,0.0,0.0,0.0,0.0,0.0,0.0,0.0,0.0,0.0,0.0,0.0,0.0,0.0,0.0,0.0,0.0,0.0,0.0,0.0,0.0,0.0,0.0,0.0,0.0,0.0,0.0,0.0,0.0,0.0,0.0,0.0,0.0,0.0,0.0,0.0,0.0,0.0,0.0,0.0,0.0,0.0,0.0,0.0,0.0,0.0,0.0,0.0,0.0,0.0,0.0,0.0,0.0,0.0,0.0,0.0,0.0,0.0,0.0,0.0,0.0,0.0,0.0,0.0,0.0,0.0,0.0,0.0,0.0,0.0,0.0,0.0,0.0,0.0,0.0,0.0,0.0,0.0,0.0,0.0,0.0,0.0,0.0,0.0,0.0,0.0,0.0,0.0,-3.5583,-3.8431,-4.0616,-4.1663,-4.1474,-3.8767,-3.4539,0.0,0.0,0.0,0.0,0.0,0.0,0.0,0.0,0.0,0.0,0.0,0.0,0.0,0.0,0.0,0.0,0.0,0.0,0.0,0.0,0.0,0.0,0.0,0.0,0.0,0.0,0.0,0.0,0.0,0.0,0.0,0.0,0.0,0.0,0.0,0.0,0.0,0.0,0.0,0.0,0.0,0.0,0.0,0.0,0.0,0.0,0.0,0.0,0.0,0.0,0.0,0.0,0.0,0.0,0.0,0.0,0.0,0.0,0.0,0.0,0.0,0.0,0.0,0.0,0.0,0.0,0.0,0.0,0.0,0.0,0.0,0.0,0.0,0.0,0.0,0.0,0.0,0.0,0.0,0.0,0.0,0.0,0.0,0.0,0.0,0.0,0.0,0.0,0.0,0.0,0.0,0.0,0.0,0.0,0.0,0.0,0.0,0.0,0.0,0.0,0.0,0.0,0.0,0.0,0.0,0.0,0.0,0.0,-3.6412,-3.8477,-4.1047,-4.2053,-4.1342,-3.7667,-3.4055,0.0,0.0,0.0,0.0,0.0,0.0,0.0,0.0,0.0,0.0,0.0,0.0,0.0,0.0,0.0,0.0,0.0,0.0,0.0,0.0,0.0,0.0,0.0,0.0,0.0,0.0,0.0,0.0,0.0,0.0,0.0,0.0,0.0,0.0,0.0,0.0,0.0,0.0,0.0,0.0,0.0,0.0,0.0,0.0,0.0,0.0,0.0,0.0,-1.6604,0.0,0.0,0.0,0.0,0.0,0.0,0.0,0.0,0.0,0.0,0.0,0.0,0.0,0.0,0.0,0.0,0.0,0.0,0.0,0.0,0.0,0.0,0.0,0.0,0.0,0.0,0.0,0.0,0.0,0.0,0.0,0.0,0.0,0.0,0.0,0.0,0.0,0.0,0.0,0.0,0.0,0.0,0.0,0.0,0.0,0.0,0.0,0.0,0.0,0.0,0.0,0.0,0.0,0.0,0.0,0.0,0.0,0.0,0.0,-3.6878,-3.9385,-4.0536,-4.1172,-4.1153,-3.7277,-3.3983,0.0,0.0,0.0,0.0,0.0,0.0,0.0,0.0,0.0,0.0,0.0,0.0,0.0,0.0,0.0,0.0,0.0,0.0,0.0,0.0,0.0,0.0,0.0,0.0,0.0,0.0,0.0,0.0,0.0,0.0,0.0,0.0,0.0,0.0,0.0,0.0,0.0,0.0,0.0,0.0,0.0,0.0,0.0,0.0,0.0,0.0,0.0,0.0,0.0,0.0,0.0,0.0,0.0,0.0,0.0,0.0,0.0,0.0,0.0,0.0,0.0,0.0,0.0,0.0,0.0,0.0,0.0,0.0,0.0,0.0,0.0,0.0,0.0,0.0,0.0,0.0,0.0,0.0,0.0,0.0,0.0,0.0,0.0,0.0,0.0,0.0,0.0,0.0,0.0,0.0,0.0,0.0,0.0,0.0,0.0,0.0,0.0,0.0,0.0,0.0,0.0,0.0,0.0,0.0,0.0,0.0,0.0,-3.4189,-3.7045,-4.0166,-3.989,-4.0036,-4.0685,-3.7027,-3.3925,-3.1692,0.0,0.0,0.0,0.0,0.0,0.0,0.0,0.0,0.0,0.0,0.0,0.0,0.0,0.0,0.0,0.0,0.0,0.0,0.0,0.0,0.0,0.0,0.0,0.0,0.0,0.0,0.0,0.0,0.0,0.0,0.0,0.0,0.0,0.0,0.0,0.0,0.0,0.0,-2.1732,-2.2192,0.0,0.0,0.0,0.0,0.0,0.0,0.0,0.0,-1.7362,0.0,0.0,0.0,0.0,0.0,0.0,0.0,0.0,0.0,0.0,0.0,0.0,0.0,0.0,0.0,0.0,0.0,0.0,0.0,0.0,0.0,0.0,0.0,0.0,0.0,0.0,0.0,0.0,0.0,0.0,0.0,0.0,0.0,0.0,0.0,0.0,0.0,0.0,0.0,0.0,0.0,0.0,0.0,0.0,0.0,0.0,0.0,0.0,0.0,0.0,0.0,0.0,0.0,0.0,0.0,0.0,-3.4288,-3.4912,-3.6625,-3.9567,-4.009,-3.9768,-3.8561,-3.6248,-3.3653,-3.0833,0.0,0.0,0.0,0.0,0.0,0.0,0.0,0.0,0.0,0.0,0.0,0.0,0.0,0.0,0.0,0.0,0.0,0.0,0.0,0.0,0.0,0.0,0.0,0.0,0.0,0.0,0.0,0.0,0.0,0.0,0.0,0.0,0.0,0.0,0.0,0.0,0.0,0.0,0.0,-2.3333,-2.3509,0.0,0.0,0.0,0.0,0.0,0.0,0.0,0.0,-1.7626,0.0,0.0,0.0,0.0,0.0,0.0,0.0,0.0,0.0,0.0,0.0,0.0,0.0,0.0,0.0,0.0,0.0,0.0,0.0,0.0,0.0,0.0,0.0,0.0,0.0,0.0,0.0,0.0,0.0,0.0,0.0,0.0,0.0,0.0,0.0,0.0,0.0,0.0,0.0,0.0,0.0,0.0,0.0,0.0,0.0,0.0,0.0,0.0,0.0,0.0,0.0,0.0,0.0,0.0,0.0,-3.2616,-3.4936,-3.6895,-3.8501,-3.9002,-3.8595,-3.7257,-3.444,-3.199,0.0,0.0,0.0,0.0,0.0,0.0,0.0,0.0,0.0,0.0,0.0,0.0,0.0,0.0,0.0,0.0,0.0,0.0,0.0,0.0,0.0,0.0,0.0,0.0,0.0,0.0,0.0,0.0,0.0,0.0,0.0,0.0,0.0,0.0,0.0,0.0,0.0,0.0,0.0,0.0,-2.4745,-2.5059,-2.4481,0.0,0.0,0.0,0.0,0.0,0.0,-1.8564,-1.8112,0.0,0.0,0.0,0.0,0.0,0.0,0.0,0.0,0.0,0.0,0.0,0.0,0.0,0.0,0.0,0.0,0.0,0.0,0.0,0.0,0.0,0.0,0.0,0.0,0.0,0.0,0.0,0.0,0.0,0.0,0.0,0.0,0.0,0.0,0.0,0.0,0.0,0.0,0.0,0.0,0.0,0.0,0.0,0.0,0.0,0.0,0.0,0.0,0.0,0.0,0.0,0.0,0.0,0.0,0.0,-3.048,-3.4036,-3.6346,-3.7233,-3.7317,-3.6915,-3.5968,-3.2706,-3.0366,0.0,0.0,0.0,0.0,0.0,0.0,0.0,0.0,0.0,0.0,0.0,0.0,0.0,0.0,0.0,0.0,0.0,0.0,0.0,0.0,0.0,0.0,0.0,0.0,0.0,0.0,0.0,0.0,0.0,0.0,0.0,0.0,0.0,0.0,0.0,0.0,0.0,0.0,0.0,0.0,0.0,-2.6386,-2.5561,-2.6059,0.0,0.0,0.0,0.0,-1.9857,-1.9333,0.0,0.0,0.0,0.0,0.0,0.0,0.0,0.0,0.0,0.0,0.0,0.0,0.0,0.0,0.0,0.0,0.0,0.0,0.0,0.0,0.0,0.0,0.0,0.0,0.0,0.0,0.0,0.0,0.0,0.0,0.0,0.0,0.0,0.0,0.0,0.0,0.0,0.0,0.0,0.0,0.0,0.0,0.0,0.0,0.0,0.0,0.0,0.0,0.0,0.0,0.0,0.0,0.0,0.0,0.0,0.0,-2.9803,-3.139,-3.3339,-3.5683,-3.5331,-3.4686,-3.3878,-3.1874,-2.9889,0.0,0.0,0.0,0.0,0.0,0.0,0.0,0.0,0.0,0.0,0.0,0.0,0.0,0.0,0.0,0.0,0.0,0.0,0.0,0.0,0.0,0.0,0.0,0.0,0.0,0.0,0.0,0.0,0.0,0.0,0.0,0.0,0.0,0.0,0.0,0.0,0.0,0.0,0.0,0.0,0.0,-2.6628,-2.5089,-2.5833,-2.558,0.0,0.0,-2.2469,-2.1119,-2.1182,0.0,0.0,0.0,0.0,0.0,0.0,0.0,0.0,0.0,0.0,0.0,0.0,0.0,0.0,0.0,0.0,0.0,0.0,0.0,0.0,0.0,0.0,0.0,0.0,0.0,0.0,0.0,0.0,0.0,0.0,0.0,0.0,0.0,0.0,0.0,0.0,0.0,0.0,0.0,0.0,0.0,0.0,0.0,0.0,0.0,0.0,0.0,0.0,0.0,0.0,0.0,0.0,0.0,0.0,0.0,-2.6994,-2.847,-3.145,-3.3381,-3.4112,-3.4311,-3.3853,-3.2733,-3.0396,-2.8443,0.0,0.0,0.0,0.0,0.0,0.0,0.0,0.0,0.0,0.0,0.0,0.0,0.0,0.0,0.0,0.0,0.0,0.0,0.0,0.0,0.0,0.0,0.0,0.0,0.0,0.0,0.0,0.0,0.0,0.0,0.0,0.0,0.0,0.0,0.0,0.0,0.0,0.0,0.0,0.0,0.0,0.0,-2.5152,-2.5895,0.0,0.0,0.0,-2.2802,-2.169,0.0,0.0,0.0,0.0,0.0,0.0,0.0,0.0,0.0,0.0,0.0,0.0,0.0,0.0,0.0,0.0,0.0,0.0,0.0,0.0,0.0,0.0,0.0,0.0,0.0,0.0,0.0,0.0,0.0,0.0,0.0,0.0,0.0,0.0,0.0,0.0,0.0,0.0,0.0,0.0,0.0,0.0,0.0,0.0,0.0,0.0,0.0,0.0,0.0,0.0,0.0,0.0,0.0,0.0,0.0,0.0,0.0,-2.7362,-3.1087,-3.2855,-3.2584,-3.3018,-3.2741,-3.1659,-2.9027,0.0,0.0,0.0,0.0,0.0,0.0,0.0,0.0,0.0,0.0,0.0,0.0,0.0,0.0,0.0,0.0,0.0,0.0,0.0,0.0,0.0,0.0,0.0,0.0,0.0,0.0,0.0,-1.8459,0.0,0.0,0.0,0.0,0.0,0.0,0.0,0.0,0.0,0.0,0.0,0.0,0.0,0.0,-2.5902,-2.498,-2.5841,-2.5939,0.0,0.0,-2.3128,-2.2123,-2.1803,-2.1381,0.0,0.0,0.0,0.0,0.0,0.0,0.0,0.0,0.0,0.0,0.0,0.0,0.0,0.0,0.0,0.0,0.0,0.0,0.0,0.0,0.0,0.0,0.0,0.0,0.0,0.0,0.0,0.0,0.0,0.0,0.0,0.0,0.0,0.0,0.0,0.0,0.0,0.0,0.0,0.0,0.0,0.0,0.0,0.0,0.0,0.0,0.0,0.0,0.0,0.0,0.0,0.0,0.0,0.0,0.0,-2.7027,-2.8872,-3.0302,-3.1254,-3.0868,-3.0622,-3.0469,-2.8244,-2.6534,0.0,0.0,0.0,0.0,0.0,0.0,0.0,0.0,0.0,0.0,0.0,0.0,0.0,0.0,0.0,0.0,0.0,0.0,0.0,0.0,0.0,0.0,0.0,0.0,0.0,0.0,0.0,0.0,0.0,0.0,0.0,0.0,0.0,0.0,0.0,0.0,0.0,0.0,0.0,0.0,0.0,-2.4863,-2.4164,-2.5356,-2.5848,0.0,0.0,-2.3724,-2.2619,-2.293,-2.2562,-2.0224,0.0,0.0,0.0,0.0,0.0,0.0,0.0,0.0,0.0,0.0,0.0,0.0,0.0,0.0,0.0,0.0,0.0,0.0,0.0,0.0,0.0,0.0,0.0,0.0,0.0,0.0,0.0,0.0,0.0,0.0,0.0,0.0,0.0,0.0,0.0,0.0,0.0,0.0,0.0,0.0,0.0,0.0,0.0,0.0,0.0,0.0,0.0,0.0,0.0,0.0,0.0,0.0,0.0,-2.3945,-2.5638,-2.7213,-2.837,-2.9077,-2.8919,-2.877,-2.8809,-2.6992,-2.5317,0.0,0.0,0.0,0.0,0.0,0.0,0.0,0.0,0.0,0.0,0.0,0.0,0.0,0.0,0.0,0.0,0.0,0.0,0.0,0.0,0.0,0.0,0.0,0.0,0.0,0.0,0.0,0.0,-1.8238,-1.8124,-1.7763,0.0,0.0,0.0,0.0,0.0,0.0,0.0,0.0,0.0,0.0,-2.4,-2.372,-2.4664,0.0,0.0,-2.3995,-2.3803,-2.3349,-2.2727,-2.1931,-2.0825,-1.9737,0.0,0.0,0.0,0.0,0.0,0.0,0.0,0.0,0.0,0.0,0.0,0.0,0.0,0.0,0.0,0.0,0.0,0.0,0.0,0.0,0.0,0.0,0.0,0.0,0.0,0.0,0.0,0.0,0.0,0.0,0.0,0.0,0.0,0.0,0.0,0.0,0.0,0.0,0.0,0.0,0.0,0.0,0.0,0.0,0.0,0.0,0.0,0.0,0.0,0.0,0.0,0.0,-2.2911,-2.4571,-2.5946,-2.6952,-2.7579,-2.7602,-2.7532,-2.7397,-2.5998,-2.4479,0.0,0.0,0.0,0.0,0.0,0.0,0.0,0.0,0.0,0.0,0.0,0.0,0.0,0.0,0.0,0.0,0.0,0.0,0.0,0.0,0.0,0.0,0.0,0.0,0.0,0.0,0.0,0.0,-1.7944,-1.7791,-1.7378,0.0,0.0,0.0,0.0,0.0,0.0,0.0,0.0,0.0,0.0,-2.3047,-2.3213,-2.3857,-2.4133,-2.3511,-2.333,-2.3192,-2.3039,-2.2069,-2.1169,-2.0682,0.0,0.0,0.0,0.0,0.0,0.0,0.0,0.0,0.0,0.0,0.0,0.0,0.0,0.0,0.0,0.0,0.0,0.0,0.0,0.0,0.0,0.0,0.0,0.0,0.0,0.0,0.0,0.0,0.0,0.0,0.0,0.0,0.0,0.0,0.0,0.0,0.0,0.0,0.0,0.0,0.0,0.0,0.0,0.0,0.0,0.0,0.0,0.0,0.0,0.0,0.0,0.0,0.0,-2.2536,-2.411,-2.5081,-2.6101,-2.7035,-2.7098,-2.6881,-2.649,-2.539,-2.4082,-2.2593,0.0,0.0,0.0,0.0,0.0,0.0,0.0,0.0,0.0,0.0,0.0,0.0,0.0,0.0,0.0,0.0,0.0,0.0,0.0,0.0,0.0,0.0,0.0,0.0,0.0,0.0,-1.7988,-1.7259,-1.678,0.0,0.0,0.0,0.0,0.0,0.0,0.0,0.0,0.0,0.0,-2.1356,-2.203,-2.2462,-2.2925,-2.3096,-2.2705,-2.2271,-2.1817,-2.1386,-2.1071,-2.0554,0.0,0.0,0.0,0.0,0.0,0.0,0.0,0.0,0.0,0.0,0.0,0.0,0.0,0.0,0.0,0.0,0.0,0.0,0.0,0.0,0.0,0.0,0.0,0.0,0.0,0.0,0.0,-2.0912,-2.0501,0.0,0.0,0.0,0.0,0.0,0.0,0.0,0.0,0.0,0.0,0.0,-1.8813,-1.8823,0.0,0.0,0.0,0.0,0.0,0.0,0.0,0.0,0.0,0.0,0.0,0.0,-2.1073,-2.3136,-2.3736,-2.4446,-2.5326,-2.5359,-2.5241,-2.4997,-2.4051,-2.2529,-2.04,0.0,0.0,0.0,0.0,0.0,0.0,0.0,0.0,0.0,0.0,0.0,0.0,0.0,0.0,0.0,0.0,0.0,0.0,0.0,0.0,0.0,0.0,0.0,0.0,0.0,-1.8008,0.0,0.0,0.0,0.0,0.0,0.0,0.0,0.0,0.0,0.0,0.0,-1.9861,-2.0557,-2.1332,-2.1914,-2.2071,-2.2745,-2.2952,0.0,0.0,0.0,0.0,0.0,0.0,0.0,0.0,0.0,0.0,0.0,0.0,0.0,0.0,-1.5614,-1.4763,-1.3828,-1.3007,-1.2563,0.0,0.0,0.0,0.0,0.0,0.0,0.0,0.0,0.0,0.0,0.0,0.0,0.0,0.0,0.0,0.0,-1.9764,0.0,0.0,0.0,0.0,0.0,0.0,0.0,0.0,-1.8383,-1.832,-1.8221,-1.8189,-1.8408,0.0,-1.893,-1.8887,0.0,0.0,0.0,0.0,0.0,0.0,0.0,0.0,-2.0249,-2.194,-2.2509,-2.3197,-2.4006,-2.4057,-2.3972,-2.3866,-2.2869,-2.148,-1.9701,-1.8903,-1.8268,0.0,0.0,0.0,0.0,0.0,0.0,0.0,0.0,0.0,0.0,0.0,0.0,0.0,0.0,0.0,0.0,0.0,0.0,0.0,0.0,0.0,0.0,0.0,-1.7967,0.0,0.0,0.0,0.0,0.0,0.0,0.0,0.0,0.0,-1.8486,-1.9199,-2.0145,-2.1103,-2.1738,-2.2158,-2.2357,0.0,0.0,0.0,0.0,0.0,0.0,0.0,-2.0997,-2.0986,-2.043,-1.9886,-1.9659,-1.9575,-1.9268,-1.8264,0.0,0.0,-1.5388,-1.4533,-1.3818,-1.3292,-1.3367,-1.3514,-1.3514,-1.3689,-1.374,0.0,0.0,0.0,0.0,0.0,0.0,0.0,0.0,-1.9628,-1.9459,0.0,-1.8951,0.0,0.0,0.0,0.0,0.0,0.0,0.0,0.0,-1.8,-1.7959,-1.7927,-1.791,-1.7942,-1.7991,-1.8348,-1.8355,-1.8057,-1.8728,0.0,0.0,0.0,0.0,0.0,0.0,-2.0099,-2.0591,-2.1485,-2.2362,-2.3167,-2.3187,-2.3177,-2.3146,-2.1889,-2.0996,-2.0449,-1.9989,-1.9477,-1.8863,-1.8419,0.0,0.0,0.0,0.0,0.0,0.0,0.0,0.0,0.0,0.0,0.0,0.0,0.0,0.0,0.0,0.0,0.0,0.0,0.0,0.0,-1.8166,0.0,0.0,0.0,0.0,0.0,0.0,0.0,0.0,0.0,0.0,-1.9494,-2.0156,-2.1143,-2.2353,0.0,0.0,0.0,0.0,-2.2373,-2.1953,-2.1553,-2.1288,-2.1268,-2.1239,-2.1123,-2.0781,0.0,0.0,-1.9543,-2.0031,-2.0054,-1.8616,-1.7834,-1.6889,-1.5305,-1.4951,-1.4809,-1.457,-1.4479,-1.4555,-1.4555,-1.4553,-1.4511,-2.0817,0.0,0.0,0.0,0.0,-2.0332,-2.021,-2.0095,-1.9998,-1.9566,-1.8885,-1.8454,0.0,0.0,0.0,0.0,0.0,0.0,-1.8389,-1.7795,-1.7795,-1.7445,-1.6845,-1.6622,-1.6844,-1.7406,-1.7293,-1.7482,-1.7989,-1.8223,-1.8336,-1.8368,0.0,0.0,0.0,0.0,-1.9901,-2.0974,-2.1587,-2.2301,-2.3187,-2.2937,-2.2693,-2.2476,-2.1648,-2.0712,-1.9684,-1.981,-1.9077,-1.7428,-1.7309,0.0,0.0,0.0,0.0,0.0,0.0,0.0,0.0,0.0,0.0,0.0,0.0,0.0,0.0,0.0,0.0,0.0,0.0,0.0,-1.8575,-1.799,-1.7559,0.0,0.0,0.0,0.0,0.0,0.0,0.0,0.0,0.0,-2.1012,-2.1903,-2.2549,0.0,0.0,-2.2891,-2.2734,-2.2588,-2.2363,-2.1943,0.0,0.0,0.0,-2.1894,-2.1865,-2.2376,-2.2149,-2.212,-2.2786,-2.1325,-1.997,-1.9783,-1.8425,-1.7019,-1.6169,-1.5577,-1.525,-1.5189,-1.5335,-1.5489,-1.5504,-1.5665,-1.5692,-2.1336,-2.1418,-2.0265,-1.9917,-2.0108,-1.9836,-1.971,-1.9684,-1.9428,-1.8982,-1.8404,-1.8163,-1.7948,-1.7696,-1.7236,0.0,0.0,0.0,-1.7355,-1.6873,-1.6881,-1.655,-1.5907,-1.5727,-1.5818,-1.6178,-1.6024,-1.6165,-1.669,-1.7147,-1.7332,-1.7289,0.0,0.0,-1.8205,-1.8392,-1.8882,-1.9657,-2.0133,-2.0714,-2.136,-2.1303,-2.1248,-2.1147,-2.0638,-1.9976,-1.9208,-1.9295,-1.8771,-1.7473,-1.7199,-1.6649,0.0,0.0,0.0,0.0,0.0,0.0,0.0,0.0,0.0,0.0,0.0,-1.6633,0.0,0.0,0.0,0.0,-1.7077,-1.7694,-1.8026,-1.7363,0.0,0.0,0.0,0.0,0.0,0.0,0.0,-1.9291,-1.9709,-2.0251,-2.1123,-2.2262,-2.3047,-2.3082,-2.2944,-2.2799,-2.2775,0.0,-2.2366,-2.2125,-2.251,-2.2751,-2.25,-2.2394,-2.2602,-2.3411,-2.2931,-2.251,-2.2832,-2.1808,-2.0685,-1.9604,-1.8784,-1.8055,-1.7294,-1.6821,-1.6374,-1.5913,-1.595,-1.6089,-1.6096,-1.6294,-1.6243,-2.179,-2.1338,-1.9625,-1.8937,-1.89,-1.8586,-1.8646,-1.8835,-1.8341,-1.8016,-1.7974,-1.7967,-1.7588,-1.6947,-1.6416,0.0,-1.5673,-1.5697,-1.5735,-1.5683,-1.5683,-1.5536,-1.5315,-1.5287,-1.5126,-1.481,-1.4783,-1.4769,-1.486,-1.5857,-1.6137,-1.5733,-1.6731,-1.7091,-1.678,-1.7192,-1.7427,-1.7453,-1.7834,-1.82,-1.8544,-1.9057,-1.9402,-1.958,-1.923,-1.9008,-1.8862,-1.8608,-1.8354,-1.8204,-1.7595,-1.696,-1.6231,0.0,0.0,0.0,0.0,0.0,0.0,0.0,0.0,0.0,0.0,0.0,0.0,0.0,0.0,0.0,-1.6077,0.0,-1.7081,-1.6512,0.0,0.0,0.0,-1.694,-1.7207,-1.761,-1.8025,-1.8511,0.0,0.0,-2.0206,0.0,-2.2551,-2.2796,-2.2666,-2.2725,-2.3159,-2.2811,-2.2492,-2.2545,-2.2447,-2.2368,-2.2361,-2.2642,-2.3035,-2.3392,-2.3204,-2.2351,-2.1451,-2.1634,-2.108,-1.875,-1.8962,-1.9365,-1.8397,-1.814,-1.7933,-1.6755,-1.6602,-1.6595,-1.6646,-1.6668,-1.6668,-2.0989,-2.049,-2.0065,-1.9853,-1.9836,-1.9298,-1.9031,-1.8877,-1.8737,-1.8311,-1.7681,-1.7681,-1.7353,-1.6779,-1.6621,-1.6512,-1.6436,-1.6383,-1.6364,-1.6364,-1.6364,-1.6323,-1.6253,-1.6008,-1.5861,-1.5777,-1.5501,-1.539,-1.539,-1.5653,-1.5741,-1.5669,-1.5879,-1.6437,-1.72,-1.7367,-1.7547,-1.786,-1.7954,-1.804,-1.8143,-1.9059,-1.9409,-1.9213,-1.8854,-1.8414,-1.7905,-1.7896,-1.7188,-1.5698,-1.5888,-1.5511,-1.4474,-1.426,0.0,0.0,0.0,0.0,0.0,0.0,0.0,0.0,0.0,-1.5226,-1.5281,0.0,-1.5234,0.0,-1.4641,-1.5403,-1.7283,-1.6722,0.0,0.0,-1.6657,-1.6858,-1.6592,-1.7206,-1.783,-1.8224,-1.8812,-1.9241,-1.9455,-2.0023,-2.0427,-2.0543,-2.2431,-2.3862,-2.4004,-2.3635,-2.3407,-2.325,-2.2547,-2.2091,-2.2109,-2.2479,-2.2547,-2.1844,-2.1856,-2.187,-2.1553,-2.0354,-1.9328,-1.9147,-1.8909,-1.8584,-1.8074,-1.8016,-1.7979,-1.7862,-1.7838,-1.7838,-1.7845,-1.7823,-1.7757,-2.0922,-2.0601,-2.0341,-2.022,-2.0157,-1.9426,-1.9015,-1.8899,-1.8584,-1.823,-1.7759,-1.7617,-1.7336,-1.6894,-1.6799,-1.6645,-1.6509,-1.6348,-1.6251,-1.6258,-1.6251,-1.6183,-1.6052,-1.5881,-1.573,-1.5599,-1.5435,-1.5353,-1.5353,-1.5442,-1.5493,-1.5449,-1.5569,-1.5908,-1.6573,-1.6583,-1.6768,-1.7083,-1.6999,-1.7027,-1.7141,-1.7592,-1.7833,-1.7829,-1.7321,-1.685,-1.6524,-1.6303,-1.5725,-1.481,-1.4924,-1.4678,-1.3947,-1.3892,-1.3457,0.0,0.0,0.0,0.0,0.0,0.0,0.0,0.0,0.0,0.0,0.0,-1.5082,0.0,-1.4972,-1.5364,-1.7055,-1.6516,-1.6165,-1.6299,-1.6517,-1.6629,-1.6481,-1.6929,-1.738,-1.7702,-1.8103,-1.8368,-1.8458,-1.9077,-1.9498,-1.9498,-2.1412,-2.2663,-2.2289,-2.2044,-2.1912,-2.1873,-2.1379,-2.1046,-2.1189,-2.1546,-2.1651,-2.1246,-2.103,-2.0904,-2.0794,-1.9886,-1.9118,-1.8906,-1.8627,-1.8334,-1.8164,-1.8122,-1.8173,-1.8274,-1.8325,-1.8261,-1.8125,-1.8079,-1.8021,-2.1009,-2.0895,-2.0388,-2.0154,-2.0067,-1.9299,-1.8958,-1.8835,-1.8328,-1.8062,-1.7969,-1.7716,-1.7474,-1.7186,-1.684,-1.654,-1.6308,-1.5965,-1.5825,-1.5825,-1.5825,-1.5651,-1.5458,-1.5451,-1.5317,-1.5129,-1.5122,-1.5122,-1.5115,-1.5303,-1.5348,-1.5348,-1.5552,-1.5642,-1.5687,-1.5642,-1.5742,-1.5938,-1.5744,-1.5781,-1.6004,-1.5788,-1.5826,-1.6081,-1.5504,-1.5225,-1.519,-1.4629,-1.4406,-1.4622,-1.442,-1.4192,-1.407,-1.4036,-1.3716,0.0,-1.3193,0.0,0.0,0.0,0.0,0.0,0.0,0.0,0.0,-1.4573,-1.5387,-1.6794,-1.6052,-1.5843,-1.6643,-1.6203,-1.6046,-1.6299,-1.6326,-1.6426,-1.6673,-1.6707,-1.6807,-1.7119,-1.7172,-1.73,-1.7598,-1.8426,-1.8968,-1.9036,-1.9804,-2.0249,-1.9685,-1.9823,-2.0125,-1.9817,-1.9719,-1.9834,-1.9895,-2.0274,-2.0543,-2.0703,-2.0341,-1.9775,-1.942,-1.9472,-1.9265,-1.8304,-1.8199,-1.8349,-1.8377,-1.8356,-1.8356,-1.8373,-1.8331,-1.8182,-1.8051,-1.8025,-1.795,-2.0481,-2.004,-1.9927,-1.9746,-1.9519,-1.9352,-1.9145,-1.8911,-1.8804,-1.8435,-1.7975,-1.7716,-1.7474,-1.7186,-1.684,-1.654,-1.6259,-1.5959,-1.5825,-1.5825,-1.5825,-1.5798,-1.5704,-1.5698,-1.5718,-1.5665,-1.5665,-1.5665,-1.5665,-1.5665,-1.5712,-1.5712,-1.5752,-1.5852,-1.6093,0.0,0.0,0.0,-1.5903,-1.5892,-1.5718,-1.5892,-1.5938,-1.5807,-1.5392,0.0,-1.467,-1.4503,-1.4234,-1.3864,-1.4026,0.0,0.0,0.0,0.0,0.0,0.0,0.0,0.0,0.0,0.0,0.0,-1.4556,-1.4519,-1.4177,-1.4642,-1.5365,-1.6319,-1.6231,-1.6296,-1.6623,-1.6599,-1.656,-1.6613,-1.662,-1.6647,-1.67,-1.6714,-1.6727,-1.678,-1.7052,-1.7219,-1.7358,-1.7637,-1.7943,-1.7996,-1.8094,-1.8157,-1.8092,-1.9477,-2.0569,-2.0628,-1.9811,-1.8993,-1.8206,-1.8919,-1.928,-1.8603,-1.8975,-1.8968,-1.8251,-1.8048,-1.8094,-1.7687,-1.7905,-1.8069,-1.8069,-1.8062,-1.8122,-1.837,-1.8026,-1.7874,-1.8524,-1.8693,-1.8751,-2.0421,0.0,-1.986,-1.9713,0.0,-1.9426,-1.9199,-1.8911,-1.8771,-1.837,-1.7809,-1.7655,-1.7554,-1.74,-1.7105,-1.6898,-1.6744,-1.64,-1.6186,-1.6046,-1.6046,-1.5972,-1.5825,-1.5825,-1.5825,-1.5825,-1.5825,-1.5825,-1.5825,-1.5825,-1.5825,-1.5825,-1.5825,-1.5879,-1.5981,-1.5879,-1.5779,-1.5706,-1.585,-1.5857,-1.5713,-1.585,-1.5835,-1.554,0.0,0.0,0.0,0.0,0.0,0.0,0.0,0.0,0.0,0.0,0.0,-1.473,-1.4736,-1.4863,-1.5144,-1.5304,-1.5444,-1.5585,-1.5738,-1.5578,-1.499,-1.5484,-1.6005,-1.6433,-1.667,-1.6817,-1.6907,-1.7054,-1.7134,-1.7134,-1.7141,-1.7141,-1.7134,-1.7134,-1.7141,-1.7148,-1.7275,-1.7361,-1.742,-1.7475,-1.7575,-1.7589,-1.7589,-1.7589,-1.7687,-1.8506,-1.9235,-1.9287,-1.9383,-1.8812,-1.7943,-1.8461,-1.8812,-1.7989,-1.8048,-1.8146,-1.7681,-1.7589,-1.7589,-1.7635,-1.774,-1.7799,-1.7799,-1.7793,-1.7845,-1.7943,-1.7782,-1.7721,-1.8356,-1.848,-1.8522,-2.0428,-2.0073,-1.984,-1.9726,-1.97,-1.9412,-1.9085,-1.8751,0.0,0.0,0.0,-1.7549,-1.7475,-1.7408,-1.7172,-1.7018,-1.6958,-1.6667,-1.642,-1.6199,-1.6192,-1.6066,-1.5832,-1.5825,-1.5825,-1.5825,-1.5825,-1.5825,-1.5825,-1.5825,-1.5825,-1.5825,-1.5825,-1.5825,-1.5825,-1.5825,-1.5825,-1.5825,-1.5825,-1.5825,-1.5825,-1.5724,-1.5591,-1.5404,-1.5162,-1.4823,-1.4529,-1.4342,-1.4329,-1.4466,-1.4569,-1.4643,-1.475,-1.4983,-1.5157,-1.5323,-1.5498,-1.5838,-1.6362,-1.6353,-1.648,-1.6767,-1.678,-1.658,-1.6092,-1.6506,-1.6807,-1.686,-1.7081,-1.7273,-1.728,-1.7435,-1.7589,-1.7589,-1.7589,-1.7582,-1.7582,-1.7589,-1.7555,-1.7589,-1.7569,-1.7582,-1.7575,-1.7582,-1.7589,-1.7589,-1.7589,-1.7589,-1.7589,-1.7687,-1.7793,-1.7898,-1.8408,-1.8558,-1.7996,-1.8251,-1.8506,-1.7793,-1.7641,-1.7589,-1.7589,-1.7589,-1.7589,-1.7589,-1.7589,-1.7635,-1.7641,-1.7641,-1.7589,-1.7589,-1.7589,-1.7635,-1.7884,-1.7922,-1.8042,-2.0127,-1.984,-1.9553,-1.9432,-1.9406,-1.9112,-1.8677,-1.8122,-1.8075,-1.8009,-1.7896,-1.7435,-1.7119,-1.6814,-1.6526,-1.6259,-1.5971,-1.5924,-1.5878,0.0,-1.5892,-1.5865,-1.5832,-1.5825,-1.5825,-1.5825,-1.5825,-1.5825,-1.5825,-1.5825,-1.5825,-1.5825,-1.5825,-1.5825,-1.5825,-1.5825,-1.5825,-1.5825,-1.5825,-1.5825,-1.5771,-1.5585,-1.5438,-1.5391,-1.5162,-1.4823,-1.4536,-1.473,-1.4743,-1.4536,-1.4763,-1.5124,-1.5558,-1.5638,-1.5925,-1.6413,-1.65,-1.656,-1.664,-1.664,-1.6767,-1.7105,-1.7139,-1.7099,-1.7032,-1.7092,-1.7239,-1.7422,-1.7488,-1.7522,-1.7522,-1.7555,-1.7589,-1.7589,-1.7589,-1.7589,-1.7589,-1.7589,-1.7589,-1.7589,-1.7589,-1.7589,-1.7589,-1.7589,-1.7589,-1.7589,-1.7589,-1.7589,-1.7589,-1.7589,-1.7589,-1.7589,-1.7687,-1.7733,-1.7687,-1.7687,-1.7793,-1.7641,-1.7589,-1.7589,-1.7589,-1.7589,-1.7589,-1.7589,-1.7589,-1.7582,-1.7575,-1.7589,-1.7562,-1.7549,-1.7522,-1.7601,-1.7634,-1.7625,-1.7782,-1.9421,-1.9031,-1.8888,-1.8836,-1.8803,-1.8361,-1.8036,-1.7763,-1.7445,-1.7475,-1.7769,-1.7502,-1.7273,-1.6998,-1.6857,-1.6587,-1.6306,-1.6299,-1.6219,-1.6072,-1.6072,-1.5985,-1.5838,-1.5825,-1.5825,-1.5825,-1.5825,-1.5825,-1.5825,-1.5825,-1.5825,-1.5825,-1.5825,-1.5825,-1.5825,-1.5825,-1.5825,-1.5825,-1.5825,-1.5825,-1.5825,-1.5651,-1.5584,-1.5625,-1.5498,-1.5371,-1.5244,-1.5511,-1.5658,-1.5471,-1.5752,-1.6032,-1.6286,-1.6306,-1.65,-1.6907,-1.6947,-1.7021,-1.7168,-1.7181,-1.7241,-1.742,-1.744,-1.7336,-1.7238,-1.7336,-1.7494,-1.7569,-1.7589,-1.7589,-1.7589,-1.7589,-1.7589,-1.7589,-1.7589,-1.7589,-1.7589,-1.7589,-1.7589,-1.7589,-1.7589,-1.7589,-1.7589,-1.7589,-1.7589,-1.7589,-1.7589,-1.7589,-1.7589,-1.7589,-1.7589,-1.7589,-1.7589,-1.7589,-1.7589,-1.7589,-1.7589,-1.7589,-1.7589,-1.7589,-1.7589,-1.7589,-1.7589,-1.7589,-1.7582,-1.7515,-1.7402,-1.7482,-1.7435,-1.7161,-1.7255,-1.7333,-1.7168,-1.7108,-1.7376,-1.8977,-1.8517,-1.844,-1.8383,-1.8281,-1.7804,-1.7556,-1.7455,-1.6952,-1.6942,-1.7364,-1.7358,-1.7166,-1.6907,-1.6835,-1.6636,-1.6391,-1.6365,-1.6239,-1.6137,-1.6124,-1.5997,-1.5852,-1.5825,-1.5825,-1.5825,-1.5825,-1.5825,-1.5825,-1.5825,-1.5825,-1.5825,-1.5825,-1.5825,-1.5825,-1.5825,-1.5825,-1.5832,-1.5892,-1.5851,-1.5832,-1.5825,-1.5825,-1.5832,-1.5844,-1.5932,-1.5945,-1.6213,-1.6373,-1.638,-1.6587,-1.6683,-1.6693,-1.6647,-1.6766,-1.7033,-1.7027,-1.7119,-1.7331,-1.7371,-1.7424,-1.7417,-1.7364,-1.7318,-1.712,-1.7272,-1.7364,-1.7417,-1.7371,-1.7371,-1.7371,-1.7371,-1.7371,-1.7417,-1.7417,-1.7371,-1.7424,-1.7483,-1.7529,-1.7536,-1.7582,-1.7589,-1.7589,-1.7589,-1.7589,-1.7589,-1.7589,-1.7589,-1.7589,-1.7589,-1.7589,-1.7589,-1.7589,-1.7589,-1.7589,-1.7589,-1.7589,-1.7589,-1.7589,-1.7589,-1.7589,-1.7589,-1.7589,-1.7575,-1.7561,-1.7454,-1.7273,-1.7293,-1.7174,-1.686,-1.6927,-1.6974,-1.6807,-1.6754,-1.6891,-1.8907,-1.8824,-1.8458,-1.8269,-1.7983,-1.7672,-1.7289,-1.7037,-1.6816,-1.673,-1.6599,-1.6521,-1.6273,-1.5985,-1.5818,-1.5569,-1.53,-1.5262,-1.5399,-1.5551,-1.5586,-1.5662,-1.5737,-1.5778,-1.5778,-1.573,-1.5683,-1.5588,-1.5588,-1.5683,-1.5778,-1.5825,-1.5825,-1.5778,-1.5778,-1.5784,-1.5784,-1.5784,-1.6092,-1.6106,-1.5845,-1.5825,-1.5825,-1.5791,-1.6099,-1.6233,-1.6239,-1.6506,-1.6667,-1.6667,-1.6693,-1.6682,-1.6689,-1.6469,-1.6458,-1.6727,-1.6561,-1.6496,-1.6745,-1.6789,-1.6764,-1.6783,-1.681,-1.6757,-1.6723,-1.6776,-1.6783,-1.6783,-1.6783,-1.6836,-1.6776,-1.6836,-1.6836,-1.6829,-1.6836,-1.6783,-1.6836,-1.7054,-1.7226,-1.7232,-1.7378,-1.7589,-1.7529,-1.7529,-1.7582,-1.7536,-1.7536,-1.7589,-1.7582,-1.7601,-1.7562,-1.7569,-1.7575,-1.7562,-1.7569,-1.7589,-1.7589,-1.7589,-1.7589,-1.7569,-1.7555,-1.7601,-1.7569,-1.7395,-1.7335,-1.7219,-1.7105,-1.7038,-1.68,-1.6647,-1.6647,-1.6714,-1.67,-1.6647,-1.675,-1.8204,-1.8056,-1.7938,-1.7354,-1.6495,-1.5363,-1.4799,-1.4625,-1.4309,-1.4143,-1.4132,-1.4035,-1.4768,-1.6094,-1.603,-1.5744,-1.5337,-1.5325,-1.5277,-1.5274,-1.5267,-1.4975,-1.4478,-1.443,-1.413,-1.3547,-1.3499,-1.3553,-1.3746,-1.389,-1.3986,-1.4034,-1.443,-1.4675,-1.4688,-1.4624,-1.4552,-1.4564,-1.4824,-1.4959,-1.4917,-1.5793,-1.6346,-1.6359,-1.6466,-1.6526,-1.656,-1.6669,-1.6719,-1.6675,-1.6716,-1.6626,-1.6478,-1.6529,-1.6522,-1.6488,-1.6386,-1.6392,-1.6651,-1.6437,-1.6368,-1.6469,-1.6336,-1.6265,-1.6221,-1.6239,-1.6243,-1.6287,-1.6524,-1.667,-1.667,-1.667,-1.667,-1.667,-1.667,-1.6677,-1.667,-1.6849,-1.6902,-1.6902,-1.7001,-1.71,-1.7054,-1.7054,-1.716,-1.7272,-1.7378,-1.743,-1.7523,-1.7494,-1.7408,-1.7488,-1.7301,-1.7248,-1.7482,-1.7589,-1.7575,-1.7582,-1.7589,-1.7562,-1.7414,-1.738,-1.7333,-1.7114,-1.6974,-1.682,-1.6683,-1.6707,-1.664,-1.6426,-1.6144,-1.6186,-1.6144,-1.6186,-1.6137,-1.6632,-1.6473,-1.6399,-1.5831,-1.4895,-1.3533,-1.2951,-1.2904,-1.2569,-1.2417,-1.2417,-1.2417,-1.3408,-1.5065,-1.5146,-1.4857,-1.4474,-1.4445,-1.4394,-1.4277,-1.4266,-1.3869,-1.3215,-1.3215,-1.2773,-1.2132,-1.2137,-1.2187,-1.2324,-1.2522,-1.2625,-1.2724,-1.3221,-1.3466,-1.3483,-1.3391,-1.3368,-1.339,-1.3609,-1.3713,-1.3862,-1.4978,-1.596,-1.6413,-1.6506,-1.6349,-1.6048,-1.6113,-1.6161,-1.6168,-1.6125,-1.6137,-1.6187,-1.6264,-1.6149,-1.594,-1.5989,-1.6197,-1.6346,-1.6116,-1.6015,-1.6185,-1.6034,-1.5933,-1.5786,-1.5765,-1.5756,-1.5737,-1.6104,-1.6364,-1.6465,-1.6471,-1.6465,-1.6465,-1.6465,-1.6471,-1.6465,-1.6524,-1.6583,-1.6577,-1.6683,-1.667,-1.667,-1.673,-1.6842,-1.7008,-1.7067,-1.7068,-1.72,-1.7081,-1.7008,-1.7218,-1.6866,-1.695,-1.7442,-1.7375,-1.7395,-1.7474,-1.7388,-1.7221,-1.7119,-1.7092,-1.7065,-1.6881,-1.67,-1.6553,-1.6426,-1.646,-1.6413,-1.6019,-1.5798,-1.5811,-1.5905,-1.5804,-1.5845,-1.3849,-1.3875,-1.3678,-1.3606,-1.3446,-1.2918,-1.2739,-1.2576,-1.2398,-1.2309,-1.22,-1.2254,-1.2413,-1.2537,-1.236,-1.2097,-1.1892,-1.1976,-1.2111,-1.2281,-1.224,-1.226,-1.248,-1.2475,-1.2357,-1.2006,-1.195,-1.2067,-1.224,-1.2306,-1.2428,-1.2357,-1.2388,-1.2454,-1.2444,-1.2418,-1.2438,-1.2407,-1.2653,-1.2772,-1.2714,-1.3018,-1.4108,-1.5594,-1.591,-1.5405,-1.4587,-1.4705,-1.4885,-1.4885,-1.4653,-1.4887,-1.5679,-1.5362,-1.4978,-1.4809,-1.5188,-1.5447,-1.5513,-1.5569,-1.5736,-1.5837,-1.5641,-1.5722,-1.5569,-1.5447,-1.5387,-1.5203,-1.5521,-1.5767,-1.5956,-1.6045,-1.5992,-1.5992,-1.5992,-1.5992,-1.5939,-1.6217,-1.6324,-1.6358,-1.6493,-1.652,-1.6651,-1.667,-1.6664,-1.6664,-1.6723,-1.6687,-1.6497,-1.6413,-1.6427,-1.6411,-1.6377,-1.6603,-1.7329,-1.7208,-1.7001,-1.7092,-1.7014,-1.6787,-1.6747,-1.6714,-1.67,-1.6627,-1.642,-1.6286,-1.6233,-1.6132,-1.5999,-1.5825,-1.5825,-1.5825,-1.5825,-1.5825,-1.5825,-1.3778,-1.3586,-1.2613,-1.2177,-1.2076,-1.098,-1.0494,-1.0475,-1.0263,-1.019,-1.019,-1.0194,-1.0135,-1.0135,-1.0077,-1.07,-1.1796,-1.1839,-1.1817,-1.1742,-1.1728,-1.1475,-1.0958,-1.091,-1.0495,-0.998,-0.9928,-0.9984,-1.02,-1.0304,-1.0408,-1.0508,-1.0867,-1.1126,-1.1092,-1.1094,-1.1045,-1.1059,-1.1335,-1.1451,-1.1469,-1.2023,-1.2795,-1.3507,-1.386,-1.3841,-1.3335,-1.3398,-1.3346,-1.3251,-1.3096,-1.306,-1.321,-1.3194,-1.3148,-1.3231,-1.3209,-1.3334,-1.3438,-1.3272,-1.3603,-1.4376,-1.3666,-1.3964,-1.5007,-1.4862,-1.4717,-1.538,-1.5668,-1.5807,-1.5849,-1.5885,-1.5885,-1.5885,-1.5885,-1.5885,-1.5885,-1.5992,-1.599,-1.585,-1.59,-1.59,-1.602,-1.61,-1.6184,-1.6218,-1.6318,-1.6317,-1.6189,-1.6056,-1.6024,-1.6029,-1.5785,-1.5776,-1.6432,-1.6735,-1.6754,-1.6794,-1.676,-1.6607,-1.652,-1.644,-1.6413,-1.6253,-1.6072,-1.6079,-1.6052,-1.6066,-1.5885,-1.5864,-1.5905,-1.5959,-1.5825,-1.5952,-1.5919,-1.2513,-1.2256,-1.1256,-1.0809,-1.0654,-0.9603,-0.9086,-0.9072,-0.8981,-0.8937,-0.8937,-0.8937,-0.8937,-0.8937,-0.8937,-0.9592,-1.0882,-1.0981,-1.0905,-1.0737,-1.0729,-1.0363,-0.9841,-0.9735,-0.9314,-0.8735,-0.8628,-0.8738,-0.8905,-0.9115,-0.9169,-0.9222,-0.9694,-0.9902,-0.9922,-0.9858,-0.9857,-0.9876,-1.0023,-1.0108,-1.0155,-1.0634,-1.096,-1.1019,-1.1367,-1.1725,-1.1902,-1.1874,-1.1821,-1.1755,-1.1649,-1.157,-1.1719,-1.1817,-1.1957,-1.2128,-1.2042,-1.206,-1.2222,-1.2,-1.2317,-1.3191,-1.2504,-1.2723,-1.4176,-1.364,-1.3746,-1.4292,-1.4599,-1.4632,-1.4649,-1.47,-1.5072,-1.5672,-1.5885,-1.5885,-1.5885,-1.5885,-1.5807,-1.5698,-1.5715,-1.5644,-1.5644,-1.5789,-1.5901,-1.5912,-1.6066,-1.6061,-1.5863,-1.5707,-1.5664,-1.5663,-1.5297,-1.527,-1.5665,-1.593,-1.6213,-1.6322,-1.6341,-1.627,-1.6224,-1.6144,-1.6051,-1.5858,-1.5804,-1.5838,-1.5878,-1.5959,-1.6012,-1.6011,-1.6137,-1.6286,-1.6206,-1.6159,-1.6132,-0.9883,-0.9959,-0.9503,-0.9569,-0.9531,-0.9142,-0.8892,-0.8898,-0.8944,-0.8937,-0.8937,-0.8937,-0.8937,-0.8937,-0.8937,-0.8985,-0.9137,-0.924,-0.9233,-0.9164,-0.9116,-0.912,-0.9006,-0.9054,-0.8996,-0.8893,-0.892,-0.892,-0.8899,-0.8944,-0.8951,-0.8916,-0.9006,-0.9099,-0.8923,-0.9071,-0.8978,-0.9034,-0.9096,-0.8979,-0.8737,-0.8946,-0.8983,-0.8807,-0.8959,-0.9435,-1.0212,-1.022,-1.035,-1.0453,-1.0249,-1.0564,-1.1218,-1.1397,-1.1469,-1.1447,-1.1709,-1.185,-1.1891,-1.1972,-1.1973,-1.2321,-1.2222,-1.2016,-1.2385,-1.2192,-1.2082,-1.2254,-1.2274,-1.2259,-1.2404,-1.2578,-1.3555,-1.5399,-1.5672,-1.5725,-1.5885,-1.5879,-1.5873,-1.5831,-1.5807,-1.5867,-1.5867,-1.5873,-1.5908,-1.5866,-1.5902,-1.5818,-1.5606,-1.5405,-1.5186,-1.5146,-1.5029,-1.5059,-1.511,-1.5175,-1.5499,-1.5768,-1.5776,-1.5808,-1.58,-1.5767,-1.5774,-1.5648,-1.5706,-1.5759,-1.6191,-1.6237,-1.631,-1.6377,-1.649,-1.6573,-1.6506,-1.6433,-1.6413,-0.9819,-0.9785,-0.9503,-0.9381,-0.9344,-0.9062,-0.8937,-0.8937,-0.8937,-0.8937,-0.8937,-0.8937,-0.8937,-0.8937,-0.8937,-0.8937,-0.8937,-0.8937,-0.8937,-0.8937,-0.8937,-0.8937,-0.8937,-0.8937,-0.8937,-0.8937,-0.8937,-0.8937,-0.8937,-0.8937,-0.8937,-0.8937,-0.8937,-0.8937,-0.8937,-0.8937,-0.8937,-0.8937,-0.8937,-0.8854,-0.8817,-0.8866,-0.8794,-0.8665,-0.8689,-0.8894,-0.9115,-0.9169,-0.914,-0.9202,-0.9136,-0.9323,-0.9676,-0.9706,-0.9706,-0.9714,-0.9806,-0.9843,-0.9902,-0.9991,-1.046,-1.0836,-1.0515,-1.0874,-1.19,-1.1504,-1.1423,-1.1947,-1.2231,-1.2269,-1.2283,-1.237,-1.3014,-1.4546,-1.4756,-1.5083,-1.5654,-1.5694,-1.5638,-1.562,-1.562,-1.562,-1.5662,-1.5753,-1.5825,-1.5704,-1.5789,-1.5753,-1.5378,-1.5354,-1.5276,-1.5123,-1.5045,-1.4985,-1.5029,-1.514,-1.5363,-1.5579,-1.5583,-1.5641,-1.5602,-1.563,-1.5604,-1.5582,-1.5577,-1.5836,-1.6269,-1.6451,-1.6467,-1.6593,-1.6677,-1.6677,-1.6707,-1.6714,-1.6727,-0.9819,-0.9791,-0.9564,-0.9432,-0.9357,-0.9117,-0.8984,-0.8944,-0.8937,-0.8937,-0.8937,-0.8937,-0.8937,-0.8937,-0.8937,-0.8937,-0.8937,-0.8937,-0.8937,-0.8937,-0.8937,-0.8937,-0.8937,-0.8937,-0.8937,-0.8937,-0.8937,-0.8937,-0.8937,-0.8937,-0.8937,-0.8937,-0.8937,-0.8937,-0.8937,-0.8937,-0.8937,-0.8937,-0.8937,-0.8937,-0.8937,-0.8937,-0.8838,-0.8811,-0.8794,-0.8798,-0.8794,-0.8798,-0.875,-0.8682,-0.875,-0.8842,-0.8875,-0.893,-0.8937,-0.8937,-0.8937,-0.8933,-0.8937,-0.9044,-0.9154,-0.9754,-0.9316,-0.9482,-1.068,-1.0351,-1.046,-1.095,-1.1055,-1.1109,-1.1055,-1.1063,-1.166,-1.2743,-1.329,-1.3997,-1.4942,-1.5111,-1.5299,-1.5463,-1.5668,-1.5644,-1.5692,-1.5747,-1.5825,-1.5704,-1.5777,-1.5837,-1.5493,-1.5469,-1.5372,-1.5258,-1.5113,-1.5109,-1.5071,-1.5172,-1.5323,-1.5382,-1.5487,-1.5615,-1.5669,-1.5718,-1.5705,-1.5682,-1.5703,-1.5907,-1.627,-1.6348,-1.6406,-1.6565,-1.6828,-1.6985,-1.7058,-1.7128,-1.7108,-0.9819,-0.9802,-0.9669,-0.9513,-0.9367,-0.9262,-0.9062,-0.895,-0.8937,-0.8937,-0.8937,-0.8937,-0.8937,-0.8937,-0.8937,-0.8937,-0.8937,-0.8937,-0.8937,-0.8937,-0.8937,-0.8937,-0.8937,-0.8937,-0.8937,-0.8937,-0.8937,-0.8937,-0.8937,-0.8937,-0.8937,-0.8937,-0.8937,-0.8937,-0.8937,-0.8937,-0.8937,-0.8937,-0.8937,-0.8937,-0.8937,-0.8937,-0.8878,-0.8868,-0.8868,-0.8865,-0.8861,-0.8858,-0.8868,-0.8875,-0.8858,-0.8865,-0.8937,-0.8937,-0.8937,-0.8937,-0.8937,-0.8937,-0.8937,-0.8937,-0.894,-0.9047,-0.8992,-0.8937,-0.9154,-0.9265,-0.921,-0.932,-0.9265,-0.9154,-0.9154,-0.921,-0.9699,-1.0566,-1.1873,-1.3014,-1.3889,-1.4094,-1.4389,-1.5209,-1.5666,-1.5773,-1.5636,-1.5713,-1.5873,-1.5873,-1.5873,-1.5837,-1.5801,-1.5674,-1.5559,-1.5457,-1.5372,-1.536,-1.539,-1.539,-1.55,-1.5566,-1.556,-1.5563,-1.5595,-1.5613,-1.5877,-1.5859,-1.5815,-1.5973,-1.6221,-1.631,-1.6509,-1.6736,-1.6997,-1.7298,-1.7325,-1.7219,-1.7264,-0.9819,-0.9805,-0.9669,-0.9523,-0.9371,-0.9275,-0.9072,-0.8892,-0.894,-0.8937,-0.8937,-0.8937,-0.8937,-0.8937,-0.8937,-0.8937,-0.8937,-0.8937,-0.8937,-0.8937,-0.8937,-0.8937,-0.8937,-0.8937,-0.8937,-0.8937,-0.8937,-0.8937,-0.8937,-0.8937,-0.8937,-0.8937,-0.8937,-0.8937,-0.8937,-0.8937,-0.8937,-0.8937,-0.8937,-0.8937,-0.8937,-0.8937,-0.8937,-0.8937,-0.8937,-0.8937,-0.8937,-0.8937,-0.8937,-0.8937,-0.8937,-0.8937,-0.8937,-0.8937,-0.8937,-0.8937,-0.8937,-0.8937,-0.8937,-0.8937,-0.8937,-0.8937,-0.8937,-0.8937,-0.8937,-0.8937,-0.8937,-0.8937,-0.8937,-0.8937,-0.8937,-0.8937,-0.9154,-0.9537,-1.1059,-1.2363,-1.2743,-1.2852,-1.3014,-1.3339,-1.4159,-1.4541,-1.4869,-1.5351,-1.5832,-1.5885,-1.5885,-1.5885,-1.5861,-1.5843,-1.5722,-1.5771,-1.5728,-1.5716,-1.571,-1.571,-1.5716,-1.5787,-1.5725,-1.5619,-1.5487,-1.5366,-1.5725,-1.5979,-1.5772,-1.5844,-1.6221,-1.6464,-1.6723,-1.6783,-1.6836,-1.6948,-1.7001,-1.6996,-1.7154,-0.9785,-0.9727,-0.9642,-0.952,-0.9367,-0.9272,-0.9106,-0.9025,-0.8905,-0.8937,-0.8937,-0.8937,-0.8937,-0.8937,-0.8937,-0.8937,-0.8937,-0.8937,-0.8937,-0.8937,-0.8937,-0.8937,-0.8937,-0.8937,-0.8937,-0.8937,-0.8937,-0.8937,-0.8937,-0.8937,-0.8937,-0.8937,-0.8937,-0.8937,-0.8937,-0.8937,-0.8937,-0.8937,-0.8937,-0.8937,-0.8937,-0.8937,-0.8937,-0.8937,-0.8937,-0.8937,-0.8937,-0.8937,-0.8937,-0.8937,-0.8937,-0.8937,-0.8937,-0.8937,-0.8937,-0.8937,-0.8937,-0.8937,-0.8937,-0.8937,-0.8937,-0.8937,-0.8937,-0.8937,-0.8937,-0.8937,-0.8937,-0.8937,-0.8937,-0.8937,-0.8937,-0.8937,-0.8937,-0.9103,-1.0135,-1.1164,-1.1601,-1.1705,-1.1923,-1.2363,-1.2965,-1.3673,-1.4056,-1.4815,-1.5351,-1.5725,-1.5885,-1.5885,-1.5885,-1.5885,-1.5832,-1.5725,-1.5779,-1.5731,-1.5807,-1.5807,-1.5801,-1.5843,-1.5825,-1.5698,-1.5578,-1.5354,-1.5625,-1.5956,-1.5789,-1.5739,-1.6072,-1.6318,-1.6371,-1.6418,-1.6471,-1.6571,-1.6683,-1.6789,-1.6955,-0.9737,-0.9612,-0.9612,-0.9513,-0.9347,-0.9268,-0.9187,-0.9156,-0.8988,-0.8937,-0.8937,-0.8937,-0.8937,-0.8937,-0.8937,-0.8937,-0.8937,-0.8937,-0.8937,-0.8937,-0.8937,-0.8937,-0.8937,-0.8937,-0.8937,-0.8937,-0.8937,-0.8937,-0.8937,-0.8937,-0.8937,-0.8937,-0.8937,-0.8937,-0.8937,-0.8937,-0.8937,-0.8937,-0.8937,-0.8937,-0.8937,-0.8937,-0.8937,-0.8937,-0.8937,-0.8937,-0.8937,-0.8937,-0.8937,-0.8937,-0.8937,-0.8937,-0.8937,-0.8937,-0.8937,-0.8937,-0.8937,-0.8937,-0.8937,-0.8937,-0.8937,-0.8937,-0.8937,-0.8937,-0.8937,-0.8937,-0.8937,-0.8937,-0.8937,-0.8937,-0.8937,-0.8937,-0.8937,-0.894,-0.9044,-0.9478,-1.0186,-1.0507,-1.0891,-1.1869,-1.2037,-1.2802,-1.3457,-1.4051,-1.432,-1.4476,-1.4745,-1.4691,-1.4691,-1.4637,-1.4911,-1.5405,-1.5512,-1.5678,-1.5773,-1.5879,-1.5873,-1.5879,-1.5873,-1.5819,-1.5819,-1.5722,-1.5795,-1.5849,-1.5783,-1.5783,-1.5896,-1.6051,-1.6105,-1.6105,-1.6258,-1.6365,-1.6518,-1.6577,-1.669,-0.9737,-0.9612,-0.9612,-0.9452,-0.9279,-0.9221,-0.9089,-0.8991,-0.8957,-0.8937,-0.8937,-0.8937,-0.8885,-0.8944,-0.8888,-0.8937,-0.8902,-0.8902,-0.8937,-0.8937,-0.8937,-0.8937,-0.8937,-0.8937,-0.8937,-0.8937,-0.8937,-0.8937,-0.8937,-0.8937,-0.8937,-0.8937,-0.8937,-0.8937,-0.8937,-0.8937,-0.8937,-0.8937,-0.8937,-0.8937,-0.8937,-0.8937,-0.8937,-0.8937,-0.8937,-0.8937,-0.8937,-0.8937,-0.8937,-0.8937,-0.8937,-0.8937,-0.8937,-0.8937,-0.8937,-0.8937,-0.8937,-0.8937,-0.8937,-0.8937,-0.8937,-0.8937,-0.8937,-0.8937,-0.8937,-0.8937,-0.8937,-0.8937,-0.8937,-0.8937,-0.8937,-0.8937,-0.8937,-0.8937,-0.8937,-0.8992,-0.9206,-0.9316,-0.9588,-0.986,-1.0566,-1.1219,-1.1542,-1.2467,-1.2847,-1.3122,-1.3285,-1.3231,-1.3334,-1.3496,-1.3879,-1.4482,-1.4535,-1.4643,-1.4911,-1.5018,-1.5018,-1.5185,-1.5345,-1.5565,-1.5565,-1.5885,-1.5885,-1.5885,-1.5879,-1.5885,-1.5885,-1.5885,-1.5998,-1.5998,-1.5998,-1.6099,-1.6205,-1.6311,-1.6424,-0.9696,-0.9507,-0.9503,-0.9367,-0.9217,-0.9083,-0.9045,-0.9025,-0.8964,-0.8937,-0.8937,-0.8937,-0.8974,-0.9028,-0.8981,-0.9001,-0.9103,-0.9066,-0.9001,-0.8902,-0.8937,-0.8937,-0.8937,-0.8937,-0.8937,-0.8937,-0.8937,-0.8937,-0.8937,-0.894,-0.8937,-0.8937,-0.8937,-0.8937,-0.8937,-0.8937,-0.8937,-0.8937,-0.8937,-0.8937,-0.8937,-0.8937,-0.8937,-0.8937,-0.8937,-0.8937,-0.8937,-0.8937,-0.8937,-0.8937,-0.8937,-0.8937,-0.8937,-0.8937,-0.8937,-0.8937,-0.8937,-0.8937,-0.8937,-0.8937,-0.8937,-0.8937,-0.8937,-0.8937,-0.8937,-0.8937,-0.8937,-0.8937,-0.8937,-0.8937,-0.8937,-0.8937,-0.8937,-0.8937,-0.8937,-0.8937,-0.8937,-0.8937,-0.8937,-0.8992,-0.9533,-1.0186,-1.0731,-1.1273,-1.1923,-1.2413,-1.2684,-1.263,-1.2743,-1.2901,-1.2906,-1.3236,-1.3344,-1.3506,-1.3884,-1.3932,-1.3825,-1.4046,-1.4374,-1.4648,-1.4869,-1.5351,-1.5885,-1.5885,-1.5885,-1.5885,-1.5885,-1.5885,-1.5885,-1.5939,-1.5939,-1.5885,-1.5939,-1.6099,-1.6211,-0.9649,-0.9381,-0.9381,-0.934,-0.9113,-0.8994,-0.9005,-0.9079,-0.8991,-0.8937,-0.8947,-0.8902,-0.9032,-0.9076,-0.9062,-0.9161,-0.9232,-0.9171,-0.9022,-0.8892,-0.8937,-0.8937,-0.8937,-0.8937,-0.8937,-0.8937,-0.8937,-0.8944,-0.8971,-0.8895,-0.8905,-0.8964,-0.8885,-0.8885,-0.8937,-0.8937,-0.8937,-0.8937,-0.8937,-0.8937,-0.8937,-0.8937,-0.8937,-0.8937,-0.8937,-0.8937,-0.8937,-0.8937,-0.8937,-0.8937,-0.8937,-0.8937,-0.8937,-0.8937,-0.8937,-0.8937,-0.8937,-0.8937,-0.8937,-0.8937,-0.8937,-0.8937,-0.8937,-0.8937,-0.8937,-0.8937,-0.8937,-0.8937,-0.8937,-0.8937,-0.8937,-0.8937,-0.8937,-0.8937,-0.8937,-0.8937,-0.8937,-0.8937,-0.8937,-0.8937,-0.9099,-0.9537,-0.9915,-1.0406,-1.1059,-1.1601,-1.1819,-1.1982,-1.1982,-1.1982,-1.1819,-1.2037,-1.2146,-1.2635,-1.3068,-1.3176,-1.3009,-1.3014,-1.3398,-1.3673,-1.3948,-1.4159,-1.4691,-1.5725,-1.5885,-1.5832,-1.5885,-1.5885,-1.5885,-1.5885,-1.5885,-1.5885,-1.5885,-1.5885,-1.6051,-0.9649,-0.9381,-0.9381,-0.9225,-0.8991,-0.8892,-0.8902,-0.8915,-0.8912,-0.8885,-0.896,-0.9062,-0.9055,-0.9049,-0.9232,-0.9269,-0.9171,-0.9072,-0.8988,-0.8944,-0.8937,-0.8937,-0.8937,-0.8937,-0.8937,-0.8937,-0.8885,-0.8988,-0.9039,-0.9008,-0.8991,-0.9059,-0.8994,-0.8885,-0.8937,-0.8937,-0.8937,-0.8937,-0.8937,-0.8937,-0.8937,-0.8937,-0.8937,-0.8937,-0.8937,-0.8937,-0.8937,-0.8937,-0.8937,-0.8937,-0.8937,-0.8937,-0.8937,-0.8937,-0.8937,-0.8937,-0.8937,-0.8937,-0.8937,-0.8937,-0.8937,-0.8937,-0.8937,-0.8937,-0.8937,-0.8937,-0.8937,-0.8937,-0.8937,-0.8937,-0.8937,-0.8937,-0.8937,-0.8937,-0.8937,-0.8937,-0.8937,-0.8937,-0.8937,-0.8937,-0.8937,-0.8995,-0.9375,-0.9588,-0.9915,-1.0245,-1.0296,-1.0296,-1.03,-1.0245,-1.019,-1.0515,-1.1,-1.1655,-1.2363,-1.2363,-1.2309,-1.2141,-1.2363,-1.2526,-1.2743,-1.2743,-1.3339,-1.4476,-1.5399,-1.5618,-1.5725,-1.5779,-1.5885,-1.5885,-1.5885,-1.5885,-1.5885,-1.5885,-1.5885,-0.9466,-0.9326,-0.932,-0.914,-0.8905,-0.8937,-0.8984,-0.9045,-0.9049,-0.9049,-0.9069,-0.9176,-0.9176,-0.9083,-0.9093,-0.9103,-0.9052,-0.9069,-0.9005,-0.896,-0.8937,-0.8937,-0.8937,-0.8937,-0.8937,-0.8937,-0.8888,-0.8912,-0.9028,-0.8919,-0.8988,-0.9001,-0.8964,-0.894,-0.8937,-0.8937,-0.8937,-0.8937,-0.8937,-0.8937,-0.8937,-0.8937,-0.8937,-0.8937,-0.8937,-0.8937,-0.8937,-0.8937,-0.8937,-0.8937,-0.8937,-0.8937,-0.8937,-0.8937,-0.8937,-0.8937,-0.8937,-0.8937,-0.8937,-0.8937,-0.8937,-0.8937,-0.8937,-0.8937,-0.8937,-0.8937,-0.8937,-0.8937,-0.8937,-0.8937,-0.8937,-0.8937,-0.8937,-0.8937,-0.8937,-0.8937,-0.8937,-0.8937,-0.8937,-0.8937,-0.8937,-0.8937,-0.8937,-0.9047,-0.8937,-0.8937,-0.8937,-0.8937,-0.8937,-0.9047,-0.9265,-0.9537,-1.0025,-1.0351,-1.1004,-1.1059,-1.1168,-1.1168,-1.1273,-1.1437,-1.1651,-1.1764,-1.2417,-1.3447,-1.4207,-1.475,-1.5244,-1.5244,-1.5565,-1.5885,-1.5891,-1.5891,-1.5885,-1.5885,-1.5885,-0.9289,-0.921,-0.921,-0.9069,-0.895,-0.8937,-0.8998,-0.9093,-0.9156,-0.9093,-0.9117,-0.9193,-0.919,-0.9083,-0.9008,-0.8905,-0.8981,-0.9086,-0.9022,-0.896,-0.8937,-0.8937,-0.8937,-0.8937,-0.8937,-0.8937,-0.8937,-0.8902,-0.9005,-0.896,-0.8954,-0.8988,-0.8974,-0.8937,-0.8937,-0.8937,-0.8937,-0.8937,-0.8937,-0.8937,-0.8937,-0.8937,-0.8937,-0.8937,-0.8937,-0.8937,-0.8937,-0.8937,-0.8937,-0.8937,-0.8937,-0.8937,-0.8937,-0.8937,-0.8937,-0.8937,-0.8937,-0.8937,-0.8937,-0.8937,-0.8937,-0.8937,-0.8937,-0.8937,-0.8937,-0.8937,-0.8937,-0.8937,-0.8937,-0.8937,-0.8937,-0.8937,-0.8937,-0.8937,-0.8937,-0.8937,-0.8937,-0.8937,-0.8937,-0.8937,-0.8937,-0.8937,-0.8937,-0.8937,-0.8937,-0.8937,-0.8937,-0.8937,-0.8937,-0.8937,-0.9047,-0.8992,-0.9154,-0.9154,-0.9427,-0.9592,-0.9699,-0.9809,-1.0025,-1.0296,-1.0566,-1.084,-1.1492,-1.1928,-1.2635,-1.3176,-1.3884,-1.4648,-1.4976,-1.5298,-1.5678,-1.5891,-1.5885,-1.5885,-1.5885,-0.9289,-0.921,-0.9207,-0.9069,-0.8895,-0.8937,-0.8892,-0.8922,-0.8988,-0.8964,-0.9008,-0.9089,-0.9086,-0.8991,-0.896,-0.9008,-0.9055,-0.9015,-0.8974,-0.894,-0.8937,-0.8937,-0.8937,-0.8937,-0.8954,-0.8964,-0.8957,-0.9015,-0.9066,-0.9008,-0.9008,-0.9066,-0.8991,-0.8944,-0.8967,-0.8947,-0.8937,-0.8937,-0.8937,-0.8937,-0.8937,-0.8937,-0.8937,-0.8937,-0.8937,-0.895,-0.896,-0.8967,-0.8967,-0.8919,-0.8902,-0.8888,-0.8937,-0.8937,-0.8937,-0.8937,-0.8937,-0.8937,-0.8944,-0.8937,-0.8937,-0.8937,-0.8937,-0.8937,-0.8937,-0.8937,-0.8937,-0.8937,-0.8937,-0.8937,-0.8937,-0.8937,-0.8937,-0.8937,-0.8937,-0.8937,-0.8937,-0.8937,-0.8937,-0.8937,-0.8937,-0.8937,-0.8937,-0.8937,-0.8937,-0.8937,-0.8937,-0.8937,-0.8937,-0.8937,-0.8937,-0.8937,-0.8937,-0.8937,-0.8937,-0.8937,-0.8937,-0.8937,-0.9099,-0.9372,-0.9699,-0.9915,-0.9592,-1.008,-1.0844,-1.1605,-1.22,-1.3019,-1.4002,-1.4595,-1.4917,-1.5399,-1.5885,-1.5885,-1.5885,-0.9093,-0.9032,-0.9032,-0.8998,-0.8885,-0.8937,-0.8984,-0.9049,-0.9059,-0.9059,-0.9069,-0.912,-0.9072,-0.8964,-0.8937,-0.8967,-0.9008,-0.8974,-0.8885,-0.8944,-0.8947,-0.894,-0.8937,-0.8944,-0.8964,-0.9042,-0.9076,-0.9154,-0.9171,-0.9079,-0.9011,-0.911,-0.9022,-0.8991,-0.9008,-0.8971,-0.8947,-0.8937,-0.8937,-0.8937,-0.8937,-0.894,-0.8944,-0.8944,-0.8947,-0.8991,-0.9042,-0.9059,-0.9113,-0.9157,-0.9188,-0.9191,-0.9191,-0.9195,-0.9195,-0.9195,-0.9195,-0.9117,-0.8919,-0.895,-0.895,-0.8885,-0.8885,-0.8937,-0.8937,-0.8937,-0.8937,-0.8937,-0.8937,-0.8937,-0.8937,-0.8937,-0.8937,-0.8937,-0.8937,-0.8937,-0.8937,-0.8937,-0.8937,-0.8937,-0.8937,-0.8937,-0.8937,-0.8937,-0.8937,-0.8937,-0.8937,-0.8937,-0.8937,-0.8937,-0.8937,-0.8937,-0.8937,-0.8937,-0.8937,-0.8937,-0.8937,-0.8937,-0.8937,-0.9099,-0.9047,-0.8992,-0.8937,-0.8937,-0.9592,-1.019,-1.0625,-1.171,-1.3019,-1.3614,-1.4099,-1.4535,-1.5024,-1.5779,-1.5725,-0.8937,-0.8937,-0.8937,-0.8937,-0.8937,-0.8937,-0.8994,-0.9089,-0.9089,-0.9096,-0.91,-0.9093,-0.9049,-0.8994,-0.8964,-0.8967,-0.9001,-0.8991,-0.8991,-0.8994,-0.8994,-0.8998,-0.9011,-0.9011,-0.9052,-0.921,-0.919,-0.9222,-0.9249,-0.9164,-0.9062,-0.9197,-0.9008,-0.8994,-0.9035,-0.8994,-0.8937,-0.8885,-0.8984,-0.9005,-0.9011,-0.9049,-0.9062,-0.9059,-0.9062,-0.91,-0.9191,-0.9268,-0.9279,-0.933,-0.9351,-0.9337,-0.9344,-0.9334,-0.9337,-0.9337,-0.9334,-0.9269,-0.9144,-0.9086,-0.9032,-0.8994,-0.8888,-0.8937,-0.8937,-0.8937,-0.8937,-0.8937,-0.8937,-0.8937,-0.8937,-0.8937,-0.8937,-0.8937,-0.8937,-0.8937,-0.8937,-0.8937,-0.8937,-0.8937,-0.8937,-0.8937,-0.8937,-0.8937,-0.8937,-0.8937,-0.8937,-0.8937,-0.8937,-0.8937,-0.8937,-0.8937,-0.8937,-0.8937,-0.8937,-0.8937,-0.8937,-0.8937,-0.8937,-0.8937,-0.8937,-0.8937,-0.8937,-0.8937,-0.8937,-0.9154,-0.9809,-1.095,-1.1982,-1.2358,-1.2797,-1.3398,-1.3997,-1.4863,-1.5131,-0.8937,-0.8937,-0.8937,-0.8937,-0.8937,-0.8937,-0.8947,-0.8971,-0.8908,-0.8919,-0.8998,-0.8919,-0.9055,-0.9089,-0.9049,-0.9049,-0.9197,-0.9197,-0.9197,-0.9197,-0.9197,-0.9197,-0.92,-0.9147,-0.9214,-0.9245,-0.9282,-0.9296,-0.933,-0.9286,-0.9181,-0.919,-0.9052,-0.8981,-0.8967,-0.8974,-0.8902,-0.8984,-0.9055,-0.9123,-0.9171,-0.9239,-0.9306,-0.932,-0.9334,-0.9354,-0.9364,-0.9364,-0.9395,-0.9432,-0.9445,-0.9445,-0.9462,-0.9456,-0.9459,-0.9459,-0.9456,-0.9415,-0.9364,-0.9296,-0.9252,-0.9147,-0.9039,-0.8957,-0.8885,-0.8937,-0.8937,-0.8937,-0.8937,-0.8937,-0.8937,-0.8937,-0.8937,-0.8937,-0.8937,-0.8937,-0.8937,-0.8937,-0.8937,-0.8937,-0.8937,-0.8937,-0.8937,-0.8937,-0.8937,-0.8937,-0.8937,-0.8937,-0.8937,-0.8937,-0.8937,-0.8937,-0.8937,-0.8937,-0.8937,-0.8937,-0.8937,-0.8937,-0.8937,-0.8937,-0.8937,-0.8937,-0.8937,-0.8937,-0.8937,-0.8937,-0.8992,-1.0025,-1.084,-1.1055,-1.1546,-1.2363,-1.3019,-1.3776,-1.3668,-0.8937,-0.8937,-0.8937,-0.8937,-0.8937,-0.8937,-0.8937,-0.8937,-0.894,-0.8994,-0.9066,-0.9076,-0.9154,-0.9239,-0.9256,-0.9235,-0.9289,-0.935,-0.935,-0.9354,-0.935,-0.935,-0.9293,-0.931,-0.9337,-0.9401,-0.9432,-0.9507,-0.9629,-0.9469,-0.9445,-0.9371,-0.9188,-0.91,-0.9059,-0.9011,-0.9005,-0.9072,-0.9133,-0.9245,-0.9357,-0.9334,-0.9381,-0.9381,-0.9381,-0.9439,-0.95,-0.9517,-0.9571,-0.9618,-0.9632,-0.9625,-0.9618,-0.9622,-0.9622,-0.9622,-0.9618,-0.9622,-0.9581,-0.9486,-0.9317,-0.9245,-0.9093,-0.9035,-0.8967,-0.8885,-0.8937,-0.8937,-0.8937,-0.8937,-0.8937,-0.8937,-0.8937,-0.8937,-0.8937,-0.8937,-0.8937,-0.8937,-0.8937,-0.8937,-0.8937,-0.8937,-0.8937,-0.8937,-0.8937,-0.8937,-0.8937,-0.8937,-0.8937,-0.8937,-0.8937,-0.8937,-0.8937,-0.8937,-0.8937,-0.8937,-0.8937,-0.8937,-0.8937,-0.8937,-0.8937,-0.8937,-0.8937,-0.8937,-0.8937,-0.8937,-0.9044,-0.9316,-0.9644,-1.0025,-1.0676,-1.1542,-1.2146,-1.2639,-1.2417,-0.8937,-0.8937,-0.8937,-0.8937,-0.8937,-0.8937,-0.8937,-0.8937,-0.8937,-0.9022,-0.9207,-0.9217,-0.9326,-0.9395,-0.9388,-0.9415,-0.9432,-0.9449,-0.9449,-0.9449,-0.9449,-0.9445,-0.9449,-0.9459,-0.949,-0.9598,-0.9622,-0.9666,-0.9778,-0.9669,-0.9598,-0.9513,-0.9408,-0.9303,-0.9255,-0.9137,-0.912,-0.9255,-0.934,-0.9323,-0.9445,-0.9503,-0.9527,-0.9534,-0.954,-0.9574,-0.9649,-0.9673,-0.971,-0.9761,-0.9795,-0.9805,-0.9812,-0.9819,-0.9819,-0.9819,-0.9819,-0.9819,-0.9754,-0.9605,-0.9408,-0.934,-0.9241,-0.9106,-0.9028,-0.8967,-0.8937,-0.8937,-0.8937,-0.8937,-0.8937,-0.8937,-0.8937,-0.8937,-0.8937,-0.8937,-0.8937,-0.8937,-0.8937,-0.8937,-0.8937,-0.8937,-0.8937,-0.8937,-0.8937,-0.8937,-0.8937,-0.8937,-0.8937,-0.8937,-0.8937,-0.8937,-0.8937,-0.8937,-0.8937,-0.8937,-0.8937,-0.8937,-0.8937,-0.8937,-0.8937,-0.8937,-0.8937,-0.8937,-0.8937,-0.8937,-0.8992,-0.9154,-0.9099,-0.9047,-0.9809,-1.0566,-1.0731,-1.1168,-1.1278,-0.8937,-0.8937,-0.8937,-0.8937,-0.8937,-0.8937,-0.8937,-0.8885,-0.8957,-0.9039,-0.9228,-0.9245,-0.9347,-0.9527,-0.9493,-0.9513,-0.9585,-0.9602,-0.9605,-0.9602,-0.9598,-0.9602,-0.9605,-0.9612,-0.9615,-0.9608,-0.9642,-0.9717,-0.9819,-0.971,-0.9646,-0.9635,-0.9581,-0.9486,-0.9388,-0.9367,-0.9367,-0.9398,-0.951,-0.9554,-0.9618,-0.97,-0.9734,-0.9737,-0.9734,-0.9747,-0.9761,-0.9774,-0.9791,-0.9812,-0.9819,-0.9819,-0.9819,-0.9819,-0.9819,-0.9819,-0.9819,-0.9819,-0.9805,-0.9676,-0.9591,-0.951,-0.9327,-0.9228,-0.912,-0.9035,-0.8937,-0.8937,-0.8937,-0.8937,-0.8937,-0.8937,-0.8937,-0.8937,-0.8937,-0.8937,-0.8937,-0.8937,-0.8937,-0.8937,-0.8937,-0.8937,-0.8937,-0.8937,-0.8937,-0.8937,-0.8937,-0.8937,-0.8937,-0.8937,-0.8937,-0.8937,-0.8937,-0.8937,-0.8937,-0.8937,-0.8937,-0.8937,-0.8937,-0.8937,-0.8937,-0.8937,-0.8937,-0.8937,-0.8937,-0.8937,-0.8937,-0.8937,-0.8937,-0.8937,-0.8937,-0.9372,-0.9537,-0.9754,-1.008,-0.8937,-0.8937,-0.8937,-0.8937,-0.8937,-0.8937,-0.8937,-0.8957,-0.9042,-0.9164,-0.9306,-0.9401,-0.9554,-0.968,-0.97,-0.9683,-0.9727,-0.9747,-0.9747,-0.9744,-0.9737,-0.9747,-0.9744,-0.9734,-0.9741,-0.9747,-0.9754,-0.9754,-0.9819,-0.9747,-0.9751,-0.9751,-0.9713,-0.9608,-0.9445,-0.9391,-0.9415,-0.9517,-0.9591,-0.9649,-0.9741,-0.9795,-0.9819,-0.9819,-0.9819,-0.9819,-0.9819,-0.9819,-0.9819,-0.9819,-0.9819,-0.9819,-0.9819,-0.9819,-0.9819,-0.9819,-0.9819,-0.9819,-0.9819,-0.9758,-0.9703,-0.9585,-0.9429,-0.9309,-0.9221,-0.9022,-0.896,-0.8937,-0.8937,-0.8937,-0.8937,-0.8937,-0.8937,-0.8937,-0.8937,-0.8937,-0.8937,-0.8937,-0.8937,-0.8937,-0.8937,-0.8937,-0.8937,-0.8967,-0.8974,-0.896,-0.896,-0.8944,-0.8885,-0.8937,-0.8937,-0.8937,-0.8937,-0.8937,-0.8937,-0.8937,-0.8937,-0.8937,-0.8937,-0.8937,-0.8937,-0.8937,-0.8937,-0.8937,-0.8937,-0.8937,-0.8937,-0.8937,-0.8937,-0.8937,-0.8937,-0.8937,-0.9154,-0.921,-0.9265,-0.8937,-0.8937,-0.8937,-0.8937,-0.8937,-0.8937,-0.8937,-0.8964,-0.9089,-0.9296,-0.9388,-0.954,-0.9683,-0.9781,-0.9819,-0.9819,-0.9819,-0.9819,-0.9819,-0.9819,-0.9819,-0.9808,-0.9812,-0.9819,-0.9802,-0.9819,-0.9819,-0.9819,-0.9819,-0.9819,-0.9812,-0.9808,-0.9819,-0.972,-0.9591,-0.9574,-0.9591,-0.9673,-0.971,-0.973,-0.9788,-0.9819,-0.9819,-0.9819,-0.9819,-0.9819,-0.9819,-0.9819,-0.9819,-0.9819,-0.9819,-0.9819,-0.9819,-0.9819,-0.9819,-0.9819,-0.9819,-0.9819,-0.9819,-0.9819,-0.9761,-0.9696,-0.9503,-0.9408,-0.9268,-0.9059,-0.8971,-0.8937,-0.8937,-0.8937,-0.8937,-0.8937,-0.8937,-0.8937,-0.8937,-0.8937,-0.8937,-0.8937,-0.8937,-0.8937,-0.8937,-0.8937,-0.8947,-0.8991,-0.9018,-0.9001,-0.8984,-0.8964,-0.8888,-0.8885,-0.8937,-0.8937,-0.8937,-0.8937,-0.8937,-0.8937,-0.8937,-0.8937,-0.8937,-0.8937,-0.8937,-0.8937,-0.8937,-0.8937,-0.8937,-0.8937,-0.8937,-0.8937,-0.8937,-0.8937,-0.8937,-0.8937,-0.8937,-0.8937,-0.8937,-0.8937,-0.8937,-0.8937,-0.8937,-0.8937,-0.8937,-0.8937,-0.8902,-0.9159,-0.9309,-0.9391,-0.9554,-0.9707,-0.9802,-0.9819,-0.9819,-0.9819,-0.9819,-0.9819,-0.9819,-0.9819,-0.9819,-0.9819,-0.9819,-0.9819,-0.9819,-0.9819,-0.9819,-0.9819,-0.9819,-0.9819,-0.9819,-0.9819,-0.9778,-0.9758,-0.9751,-0.9761,-0.9771,-0.9781,-0.9791,-0.9819,-0.9819,-0.9819,-0.9819,-0.9819,-0.9819,-0.9819,-0.9819,-0.9819,-0.9819,-0.9819,-0.9819,-0.9819,-0.9819,-0.9819,-0.9819,-0.9819,-0.9819,-0.9819,-0.9819,-0.9819,-0.9747,-0.953,-0.9422,-0.9303,-0.9127,-0.9008,-0.895,-0.8937,-0.8937,-0.8937,-0.8937,-0.8937,-0.8937,-0.8937,-0.8937,-0.8937,-0.8937,-0.8937,-0.8937,-0.8937,-0.894,-0.8954,-0.8991,-0.9025,-0.8994,-0.8919,-0.8977,-0.8902,-0.8885,-0.8937,-0.8937,-0.8937,-0.8937,-0.8937,-0.8937,-0.8937,-0.8937,-0.8937,-0.8937,-0.8937,-0.894,-0.8937,-0.8937,-0.8937,-0.8937,-0.8937,-0.8937,-0.8937,-0.8937,-0.8885,-0.8937,-0.8937,-0.8937,-0.8937,-0.8937,-0.8937,-0.8937,-0.8937,-0.8937,-0.8937,-0.8937,-0.8971,-0.9195,-0.9408,-0.9395,-0.9649,-0.9771,-0.9819,-0.9819,-0.9819,-0.9819,-0.9819,-0.9819,-0.9819,-0.9819,-0.9819,-0.9819,-0.9819,-0.9819,-0.9819,-0.9819,-0.9819,-0.9819,-0.9819,-0.9819,-0.9819,-0.9819,-0.9819,-0.9819,-0.9819,-0.9819,-0.9819,-0.9819,-0.9819,-0.9819,-0.9819,-0.9819,-0.9819,-0.9819,-0.9819,-0.9819,-0.9819,-0.9819,-0.9819,-0.9819,-0.9819,-0.9819,-0.9819,-0.9819,-0.9819,-0.9819,-0.9819,-0.9819,-0.9819,-0.9819,-0.9771,-0.9561,-0.9422,-0.9323,-0.9208,-0.9042,-0.8971,-0.894,-0.8937,-0.8937,-0.8937,-0.8937,-0.8937,-0.8937,-0.8937,-0.8944,-0.8967,-0.8967,-0.8977,-0.8974,-0.8957,-0.8971,-0.8988,-0.9008,-0.8922,-0.8912,-0.8929,-0.8919,-0.8957,-0.8937,-0.8937,-0.8937,-0.8937,-0.8937,-0.8937,-0.8937,-0.8937,-0.894,-0.895,-0.896,-0.896,-0.8944,-0.8947,-0.8964,-0.8954,-0.8937,-0.895,-0.8984,-0.8895,-0.8888,-0.8885,-0.894,-0.8957,-0.8967,-0.8937,-0.8937,-0.8937,-0.8937,-0.8937,-0.8937,-0.8937,-0.8939,-0.9256,-0.9381,-0.9418,-0.969,-0.9819,-0.9819,-0.9819,-0.9819,-0.9819,-0.9819,-0.9819,-0.9819,-0.9819,-0.9819,-0.9819,-0.9819,-0.9819,-0.9819,-0.9819,-0.9819,-0.9819,-0.9819,-0.9819,-0.9819,-0.9819,-0.9819,-0.9819,-0.9819,-0.9819,-0.9819,-0.9819,-0.9819,-0.9819,-0.9819,-0.9819,-0.9819,-0.9819,-0.9819,-0.9819,-0.9819,-0.9819,-0.9819,-0.9819,-0.9819,-0.9819,-0.9819,-0.9819,-0.9819,-0.9819,-0.9819,-0.9819,-0.9819,-0.9819,-0.9778,-0.9649,-0.9564,-0.9381,-0.9228,-0.9069,-0.8954,-0.8944,-0.8937,-0.8937,-0.8937,-0.8937,-0.8937,-0.8937,-0.8937,-0.8967,-0.8998,-0.9015,-0.9028,-0.9015,-0.8991,-0.8991,-0.9005,-0.9028,-0.9049,-0.9059,-0.9062,-0.9028,-0.8981,-0.8954,-0.8937,-0.8937,-0.8937,-0.895,-0.8984,-0.9005,-0.8998,-0.8957,-0.8967,-0.8984,-0.8977,-0.8957,-0.8974,-0.9001,-0.9011,-0.9039,-0.9032,-0.9045,-0.9022,-0.9011,-0.9008,-0.9018,-0.9025,-0.9032,-0.8871,-0.8937,-0.8937,-0.8937,-0.8937,-0.8937,-0.8937,-0.8971,-0.9232,-0.9361,-0.9408,-0.9649,-0.9764,-0.9764,-0.9771,-0.9798,-0.9812,-0.9819,-0.9819,-0.9819,-0.9819,-0.9819,-0.9819,-0.9819,-0.9819,-0.9819,-0.9819,-0.9819,-0.9819,-0.9819,-0.9819,-0.9819,-0.9819,-0.9819,-0.9819,-0.9819,-0.9819,-0.9819,-0.9819,-0.9819,-0.9819,-0.9819,-0.9819,-0.9819,-0.9819,-0.9819,-0.9819,-0.9819,-0.9819,-0.9819,-0.9819,-0.9819,-0.9819,-0.9819,-0.9819,-0.9819,-0.9819,-0.9819,-0.9819,-0.9819,-0.9819,-0.9815,-0.9802,-0.9683,-0.9486,-0.934,-0.9201,-0.91,-0.9093,-0.9093,-0.9096,-0.9096,-0.9096,-0.9069,-0.9049,-0.9032,-0.9025,-0.9042,-0.9035,-0.9059,-0.9089,-0.9066,-0.9055,-0.9076,-0.9127,-0.9147,-0.9187,-0.9183,-0.9062,-0.8994,-0.8998,-0.8971,-0.8994,-0.9022,-0.9072,-0.9103,-0.9106,-0.9083,-0.9049,-0.9028,-0.9076,-0.9032,-0.8964,-0.9025,-0.9096,-0.9147,-0.9174,-0.9171,-0.9174,-0.9231,-0.9154,-0.911,-0.9106,-0.9144,-0.9117,-0.8777,-0.8937,-0.8937,-0.8937,-0.8937,-0.8937,-0.8937,-0.8898,-0.9127,-0.9265,-0.9303,-0.9401,-0.9557,-0.9652,-0.9659,-0.9696,-0.9778,-0.9785,-0.9815,-0.9812,-0.9812,-0.9819,-0.9819,-0.9819,-0.9819,-0.9819,-0.9819,-0.9819,-0.9819,-0.9819,-0.9819,-0.9819,-0.9819,-0.9819,-0.9819,-0.9819,-0.9819,-0.9819,-0.9819,-0.9819,-0.9819,-0.9819,-0.9819,-0.9819,-0.9819,-0.9819,-0.9819,-0.9819,-0.9819,-0.9819,-0.9819,-0.9819,-0.9819,-0.9819,-0.9819,-0.9819,-0.9819,-0.9819,-0.9819,-0.9819,-0.9819,-0.9781,-0.9747,-0.9669,-0.9574,-0.9493,-0.9405,-0.9313,-0.9256,-0.9252,-0.9249,-0.9249,-0.9242,-0.9201,-0.9167,-0.9133,-0.91,-0.9079,-0.9069,-0.91,-0.92,-0.9204,-0.919,-0.921,-0.9275,-0.9268,-0.9224,-0.9123,-0.9035,-0.8922,-0.9066,-0.9066,-0.9096,-0.913,-0.9184,-0.9228,-0.9239,-0.9262,-0.9252,-0.9218,-0.9234,-0.9197,-0.911,-0.915,-0.9205,-0.9276,-0.9327,-0.9323,-0.9327,-0.9384,-0.9374,-0.9276,-0.932,-0.9364,-0.9283,-0.8699,-0.8784,-0.8858,-0.8937,-0.8937,-0.8937,-0.8937,-0.8954,-0.9025,-0.9055,-0.9096,-0.9276,-0.9429,-0.9503,-0.951,-0.9544,-0.9646,-0.97,-0.9707,-0.9727,-0.9798,-0.9819,-0.9819,-0.9819,-0.9819,-0.9819,-0.9819,-0.9819,-0.9819,-0.9819,-0.9819,-0.9819,-0.9819,-0.9819,-0.9819,-0.9819,-0.9819,-0.9819,-0.9819,-0.9819,-0.9819,-0.9819,-0.9819,-0.9819,-0.9819,-0.9819,-0.9819,-0.9819,-0.9819,-0.9819,-0.9819,-0.9819,-0.9819,-0.9819,-0.9819,-0.9819,-0.9819,-0.9819,-0.9819,-0.9819,-0.9819,-0.9781,-0.9768,-0.9724,-0.9727,-0.9642,-0.9523,-0.9432,-0.934,-0.9323,-0.9323,-0.9327,-0.9327,-0.93,-0.9286,-0.9266,-0.9268,-0.9224,-0.92,-0.9183,-0.9217,-0.9174,-0.9154,-0.918,-0.9231,-0.9171,-0.9137,-0.9197,-0.9049,-0.8942,-0.9083,-0.9154,-0.9184,-0.9235,-0.9293,-0.934,-0.9378,-0.9405,-0.9442,-0.9364,-0.935,-0.9333,-0.9323,-0.93,-0.9354,-0.9445,-0.9483,-0.9469,-0.9476,-0.9483,-0.9469,-0.9452,-0.9507,-0.9551,-0.95,-0.8543,-0.8696,-0.8842,-0.8854,-0.8861,-0.8878,-0.8937,-0.894,-0.894,-0.8944,-0.8974,-0.9205,-0.9317,-0.9347,-0.9351,-0.9367,-0.9435,-0.9591,-0.9618,-0.9666,-0.9764,-0.9802,-0.9819,-0.9819,-0.9819,-0.9819,-0.9819,-0.9819,-0.9819,-0.9819,-0.9819,-0.9819,-0.9819,-0.9819,-0.9819,-0.9819,-0.9819,-0.9819,-0.9819,-0.9819,-0.9819,-0.9819,-0.9819,-0.9819,-0.9819,-0.9819,-0.9819,-0.9819,-0.9819,-0.9819,-0.9819,-0.9819,-0.9819,-0.9819,-0.9819,-0.9819,-0.9819,-0.9819,-0.9819,-0.9819,-0.9819,-0.9815,-0.9819,-0.9819,-0.9812,-0.9754,-0.9635,-0.9568,-0.9479,-0.9445,-0.9449,-0.9449,-0.9449,-0.9435,-0.9429,-0.9463,-0.9398,-0.933,-0.9286,-0.9255,-0.9272,-0.9235,-0.9198,-0.9164,-0.9167,-0.9154,-0.9144,-0.9127,-0.9113,-0.9096,-0.9123,-0.9205,-0.9262,-0.9323,-0.9429,-0.9483,-0.9537,-0.9568,-0.9588,-0.949,-0.9418,-0.9415,-0.9418,-0.9435,-0.95,-0.9595,-0.9612,-0.9591,-0.9608,-0.9615,-0.9568,-0.9544,-0.9608,-0.9652,-0.9693,-0.8446,-0.854,-0.8693,-0.8754,-0.8774,-0.8879,-0.8937,-0.8937,-0.8937,-0.8937,-0.8954,-0.8925,-0.9072,-0.9251,-0.9251,-0.9232,-0.9337,-0.9496,-0.9591,-0.9635,-0.9751,-0.9802,-0.9819,-0.9819,-0.9819,-0.9819,-0.9819,-0.9819,-0.9819,-0.9819,-0.9819,-0.9819,-0.9819,-0.9819,-0.9819,-0.9819,-0.9819,-0.9819,-0.9819,-0.9819,-0.9819,-0.9819,-0.9819,-0.9819,-0.9819,-0.9819,-0.9819,-0.9819,-0.9819,-0.9819,-0.9819,-0.9819,-0.9819,-0.9819,-0.9819,-0.9819,-0.9819,-0.9819,-0.9819,-0.9819,-0.9819,-0.9819,-0.9819,-0.9819,-0.9815,-0.9815,-0.9744,-0.9744,-0.9686,-0.9686,-0.969,-0.969,-0.9686,-0.9649,-0.9629,-0.9571,-0.9507,-0.9422,-0.9354,-0.9361,-0.9384,-0.9364,-0.9323,-0.933,-0.9388,-0.9381,-0.9378,-0.9344,-0.9245,-0.9234,-0.9181,-0.9269,-0.9354,-0.953,-0.9683,-0.968,-0.9713,-0.9741,-0.9717,-0.9602,-0.9544,-0.9564,-0.9571,-0.9581,-0.9649,-0.9741,-0.9737,-0.969,-0.9703,-0.97,-0.9635,-0.9618,-0.9686,-0.9734,-0.9758]},{"header":{"parameterUnit":"m.s-1","parameterCategory":1,"la1":31.0,"la2":29.5877,"lo1":-88.7671,"lo2":-86.6584,"dy":0.0162,"dx":0.0185,"nx":115,"ny":88,"refTime":"2023-10-21T06:00:00:Z","depth":0,"parameterNumber":3,"parameterNumberName":"V-component_of_WINDS"},"data":[0.0,0.0,0.0,0.0,0.0,0.0,0.0,0.0,0.0,0.0,0.0,0.0,0.0,0.0,0.0,0.0,0.0,0.0,0.0,0.0,0.0,0.0,0.0,0.0,0.0,0.0,0.0,0.0,0.0,0.0,0.0,0.0,0.0,0.0,0.0,0.0,0.0,0.0,0.0,0.0,0.0,0.0,0.0,0.0,0.0,0.0,0.0,0.0,0.0,0.0,0.0,0.0,0.0,0.0,0.0,0.0,0.0,0.0,0.0,0.0,0.0,0.0,0.0,0.0,0.0,0.0,0.0,0.0,0.0,0.0,0.0,0.0,0.0,0.0,0.0,0.0,0.0,0.0,0.0,0.0,0.0,0.0,0.0,0.0,0.0,0.0,0.0,0.0,0.0,0.0,0.0,0.0,0.0,0.0,0.0,0.0,0.0,0.0,0.0,0.0,0.0,0.0,0.0,0.0,0.0,0.0,0.0,0.0,0.0,0.0,0.0,0.0,0.0,0.0,0.0,0.0,0.0,0.0,0.0,0.0,0.0,0.0,0.0,0.0,0.0,0.0,0.0,0.0,0.0,0.0,0.0,0.0,0.0,0.0,0.0,0.0,0.0,0.0,0.0,0.0,0.0,0.0,0.0,0.0,0.0,0.0,0.0,0.0,0.0,0.0,0.0,0.0,0.0,0.0,0.0,0.0,0.0,0.0,0.0,0.0,0.0,0.0,0.0,0.0,0.0,0.0,0.0,0.0,0.0,0.0,0.0,0.0,0.0,0.0,0.0,0.0,0.0,0.0,0.0,0.0,0.0,0.0,0.0,0.0,0.0,0.0,0.0,0.0,0.0,0.0,0.0,0.0,0.0,0.0,0.0,0.0,0.0,0.0,0.0,0.0,0.0,0.0,0.0,0.0,0.0,0.0,0.0,0.0,0.0,0.0,0.0,0.0,0.0,0.0,0.0,0.0,0.0,0.0,0.0,0.0,0.0,0.0,0.0,0.0,0.0,0.0,0.0,0.0,0.0,0.0,0.0,0.0,0.0,0.0,0.0,0.0,0.0,0.0,0.0,0.0,0.0,0.0,0.0,0.0,0.0,0.0,0.0,0.0,0.0,0.0,0.0,0.0,0.0,0.0,0.0,0.0,0.0,0.0,0.0,0.0,0.0,0.0,0.0,0.0,0.0,0.0,0.0,0.0,0.0,0.0,0.0,0.0,0.0,0.0,0.0,0.0,0.0,0.0,0.0,0.0,0.0,0.0,0.0,0.0,0.0,0.0,0.0,0.0,0.0,0.0,0.0,0.0,0.0,0.0,0.0,0.0,0.0,0.0,0.0,0.0,0.0,0.0,0.0,0.0,0.0,0.0,0.0,0.0,0.0,0.0,0.0,0.0,0.0,0.0,0.0,0.0,0.0,0.0,0.0,0.0,0.0,0.0,0.0,0.0,0.0,0.0,0.0,0.0,0.0,0.0,0.0,0.0,0.0,0.0,0.0,0.0,0.0,0.0,0.0,0.0,0.0,0.0,0.0,0.0,0.0,0.0,0.0,0.0,0.0,0.0,0.0,0.0,0.0,0.0,0.0,0.0,0.0,0.0,0.0,0.0,0.0,0.0,0.0,0.0,0.0,0.0,0.0,0.0,0.0,0.0,0.0,0.0,0.0,0.0,0.0,0.0,0.0,0.0,0.0,0.0,0.0,0.0,0.0,0.0,0.0,0.0,0.0,0.0,0.0,0.0,0.0,0.0,0.0,0.0,0.0,0.0,0.0,0.0,0.0,0.0,0.0,0.0,0.0,0.0,0.0,0.0,0.0,0.0,0.0,0.0,0.0,0.0,0.0,0.0,0.0,0.0,0.0,0.0,0.0,0.0,0.0,0.0,0.0,0.0,0.0,0.0,0.0,0.0,0.0,0.0,0.0,0.0,0.0,0.0,0.0,0.0,0.0,0.0,0.0,0.0,0.0,0.0,0.0,0.0,0.0,0.0,0.0,0.0,0.0,0.0,0.0,0.0,0.0,0.0,0.0,0.0,0.0,0.0,0.0,0.0,0.0,0.0,0.0,0.0,0.0,0.0,0.0,0.0,0.0,0.0,0.0,0.0,0.0,0.0,0.0,0.0,0.0,0.0,0.0,0.0,0.0,0.0,0.0,0.0,0.0,0.0,0.0,0.0,0.0,0.0,0.0,0.0,0.0,0.0,0.0,0.0,0.0,0.0,0.0,0.0,0.0,0.0,0.0,0.0,0.0,0.0,0.0,0.0,0.0,0.0,0.0,0.0,0.0,0.0,0.0,0.0,0.0,0.0,0.0,0.0,0.0,0.0,0.0,0.0,0.0,0.0,0.0,0.0,0.0,0.0,0.0,0.0,0.0,0.0,0.0,0.0,0.0,0.0,0.0,0.0,0.0,0.0,0.0,0.0,0.0,0.0,0.0,0.0,0.0,0.0,0.0,0.0,0.0,0.0,0.0,0.0,0.0,0.0,0.0,0.0,0.0,0.0,0.0,0.0,0.0,0.0,0.0,0.0,0.0,0.0,0.0,0.0,0.0,0.0,0.0,0.0,0.0,0.0,0.0,0.0,0.0,0.0,0.0,0.0,0.0,0.0,0.0,0.0,0.0,0.0,0.0,0.0,0.0,0.0,0.0,0.0,0.0,0.0,0.0,0.0,0.0,0.0,0.0,0.0,0.0,0.0,0.0,0.0,0.0,0.0,0.0,0.0,0.0,0.0,0.0,0.0,0.0,0.0,0.0,0.0,0.0,0.0,0.0,0.0,0.0,0.0,0.0,0.0,0.0,0.0,0.0,0.0,0.0,0.0,0.0,0.0,0.0,0.0,0.0,0.0,0.0,0.0,0.0,0.0,0.0,0.0,0.0,0.0,0.0,0.0,0.0,0.0,0.0,0.0,0.0,0.0,0.0,0.0,0.0,0.0,0.0,0.0,0.0,0.0,0.0,0.0,0.0,0.0,0.0,0.0,0.0,0.0,0.0,0.0,0.0,0.0,0.0,0.0,0.0,0.0,0.0,0.0,0.0,0.0,0.0,0.0,0.0,0.0,0.0,0.0,0.0,0.0,0.0,0.0,0.0,0.0,0.0,0.0,0.0,0.0,0.0,0.0,0.0,0.0,0.0,0.0,0.0,0.0,0.0,0.0,0.0,0.0,0.0,0.0,0.0,0.0,0.0,0.0,0.0,0.0,0.0,0.0,0.0,0.0,0.0,0.0,0.0,0.0,0.0,0.0,0.0,0.0,0.0,0.0,0.0,0.0,0.0,0.0,0.0,0.0,0.0,0.0,0.0,0.0,0.0,0.0,0.0,0.0,0.0,0.0,0.0,0.0,0.0,0.0,0.0,0.0,0.0,0.0,0.0,0.0,0.0,0.0,0.0,0.0,0.0,0.0,0.0,0.0,0.0,0.0,0.0,0.0,0.0,0.0,0.0,0.0,0.0,0.0,0.0,0.0,0.0,0.0,0.0,0.0,0.0,0.0,0.0,0.0,0.0,0.0,0.0,0.0,0.0,0.0,0.0,0.0,0.0,0.0,0.0,0.0,0.0,0.0,0.0,0.0,0.0,0.0,0.0,0.0,0.0,0.0,0.0,0.0,0.0,0.0,0.0,0.0,0.0,0.0,0.0,0.0,0.0,0.0,0.0,0.0,0.0,0.0,0.0,0.0,0.0,0.0,0.0,0.0,0.0,0.0,0.0,0.0,0.0,0.0,0.0,0.0,0.0,0.0,0.0,0.0,0.0,0.0,0.0,0.0,0.0,0.0,0.0,0.0,0.0,0.0,0.0,0.0,0.0,0.0,0.0,0.0,0.0,0.0,0.0,0.0,0.0,0.0,0.0,0.0,0.0,0.0,0.0,0.0,0.0,0.0,0.0,0.0,0.0,0.0,0.0,0.0,0.0,0.0,0.0,0.0,0.0,0.0,0.0,0.0,0.0,0.0,0.0,0.0,0.0,0.0,0.0,0.0,0.0,0.0,0.0,0.0,0.0,0.0,0.0,0.0,0.0,0.0,0.0,0.0,0.0,0.0,0.0,0.0,0.0,0.0,0.0,0.0,0.0,0.0,0.0,0.0,0.0,0.0,0.0,0.0,0.0,0.0,0.0,0.0,0.0,0.0,0.0,0.0,0.0,0.0,0.0,0.0,0.0,0.0,0.0,0.0,0.0,0.0,0.0,0.0,0.0,0.0,0.0,0.0,0.0,0.0,0.0,0.0,0.0,0.0,0.0,0.0,0.0,0.0,0.0,0.0,0.0,0.0,0.0,0.0,0.0,0.0,1.6525,0.0,0.0,0.0,0.0,0.0,0.0,0.0,0.0,0.0,0.0,0.0,0.0,0.0,0.0,0.0,0.0,0.0,0.0,0.0,0.0,0.0,0.0,0.0,0.0,0.0,0.0,0.0,0.0,0.0,0.0,0.0,0.0,0.0,0.0,0.0,0.0,0.0,0.0,0.0,0.0,0.0,0.0,0.0,0.0,0.0,0.0,0.0,0.0,0.0,0.0,0.0,0.0,0.0,0.0,0.0,0.0,0.0,0.0,0.0,0.0,0.0,0.0,0.0,0.0,0.0,0.0,0.0,0.0,0.0,0.0,0.0,0.0,0.0,0.0,0.0,0.0,0.0,0.0,0.0,0.0,0.0,0.0,0.0,0.0,0.0,0.0,0.0,0.0,0.0,0.0,0.0,0.0,0.0,0.0,0.0,0.0,0.0,0.0,0.0,0.0,0.0,0.0,0.0,0.0,0.0,0.0,0.0,0.0,0.0,0.0,1.5939,1.5447,1.7254,1.7575,1.6287,0.0,0.0,0.0,0.0,0.0,0.0,0.0,0.0,0.0,0.0,0.0,0.0,0.0,0.0,0.0,0.0,0.0,0.0,0.0,0.0,0.0,0.0,0.0,0.0,0.0,0.0,0.0,0.0,0.0,0.0,0.0,0.0,0.0,0.0,0.0,0.0,0.0,0.0,0.0,0.0,0.0,0.0,0.0,0.0,0.0,0.0,0.0,0.0,0.0,0.0,0.0,0.0,0.0,0.0,0.0,0.0,0.0,0.0,0.0,0.0,0.0,0.0,0.0,0.0,0.0,0.0,0.0,0.0,0.0,0.0,0.0,0.0,0.0,0.0,0.0,0.0,0.0,0.0,0.0,0.0,0.0,0.0,0.0,0.0,0.0,0.0,0.0,0.0,0.0,0.0,0.0,0.0,0.0,0.0,0.0,0.0,0.0,0.0,0.0,0.0,0.0,0.0,0.0,0.0,0.0,0.0,0.0,0.0,0.0,0.0,0.0,0.0,1.7963,1.8435,1.727,0.0,0.0,0.0,0.0,0.0,0.0,0.0,0.0,0.0,0.0,0.0,0.0,0.0,0.0,0.0,0.0,0.0,0.0,0.0,0.0,0.0,0.0,0.0,0.0,0.0,0.0,0.0,0.0,0.0,0.0,0.0,0.0,0.0,0.0,0.0,0.0,0.0,0.0,0.0,0.0,0.0,0.0,0.0,0.0,0.0,0.0,0.0,0.0,0.0,0.0,0.0,0.0,0.0,0.0,0.0,0.0,0.0,0.0,0.0,0.0,0.0,0.0,0.0,0.0,0.0,0.0,0.0,0.0,0.0,0.0,0.0,0.0,0.0,0.0,0.0,0.0,0.0,0.0,0.0,0.0,0.0,0.0,0.0,0.0,0.0,0.0,0.0,0.0,0.0,0.0,0.0,0.0,0.0,0.0,0.0,0.0,0.0,0.0,0.0,0.0,0.0,0.0,0.0,0.0,0.0,0.0,0.0,0.0,0.0,0.0,1.6071,1.8084,1.9645,0.0,2.0485,0.0,0.0,0.0,0.0,0.0,0.0,0.0,0.0,0.0,0.0,0.0,0.0,0.0,0.0,0.0,0.0,0.0,0.0,0.0,0.0,0.0,0.0,0.0,0.0,0.0,0.0,0.0,0.0,0.0,0.0,0.0,0.0,0.0,0.0,0.0,0.0,0.0,0.0,0.0,0.0,0.0,0.0,0.0,0.0,0.0,0.0,0.0,0.0,0.0,0.0,0.0,0.0,0.0,0.0,0.0,0.0,0.0,0.0,0.0,0.0,0.0,0.0,0.0,0.0,0.0,0.0,0.0,0.0,0.0,0.0,0.0,0.0,0.0,0.0,0.0,0.0,0.0,0.0,0.0,0.0,0.0,0.0,0.0,0.0,0.0,0.0,0.0,0.0,0.0,0.0,0.0,0.0,0.0,0.0,0.0,0.0,0.0,0.0,0.0,0.0,0.0,0.0,0.0,0.0,0.0,0.0,0.0,0.0,0.0,0.0,1.6655,1.8997,1.9684,1.987,0.0,0.0,0.0,0.0,0.0,0.0,0.0,0.0,0.0,0.0,0.0,0.0,0.0,0.0,0.0,0.0,0.0,0.0,0.0,0.0,0.0,0.0,0.0,0.0,0.0,0.0,0.0,0.0,0.0,0.0,0.0,0.0,0.0,0.0,0.0,0.0,0.0,0.0,0.0,0.0,0.0,0.0,0.0,0.0,0.0,0.0,0.0,0.0,0.0,0.0,0.0,0.0,0.0,0.0,0.0,0.0,0.0,0.0,0.0,0.0,0.0,0.0,0.0,0.0,0.0,0.0,0.0,0.0,0.0,0.0,0.0,0.0,0.0,0.0,0.0,0.0,0.0,0.0,0.0,0.0,0.0,0.0,0.0,0.0,0.0,0.0,0.0,0.0,0.0,0.0,0.0,0.0,0.0,0.0,0.0,0.0,0.0,0.0,0.0,0.0,0.0,0.0,0.0,0.0,0.0,0.0,0.0,0.0,0.0,0.0,1.6445,1.744,1.9855,1.9743,1.9349,1.8771,0.0,0.0,0.0,0.0,0.0,0.0,0.0,0.0,0.0,0.0,0.0,0.0,0.0,0.0,0.0,0.0,0.0,0.0,0.0,0.0,0.0,0.0,0.0,0.0,0.0,0.0,0.0,0.0,0.0,0.0,0.0,0.0,0.0,0.0,0.0,0.0,0.0,0.0,0.0,0.0,0.0,0.0,0.0,0.0,0.0,0.0,0.0,0.0,0.0,0.0,0.0,0.0,0.0,0.0,0.0,0.0,0.0,0.0,0.0,0.0,0.0,0.0,0.0,0.0,0.0,0.0,0.0,0.0,0.0,0.0,0.0,0.0,0.0,0.0,0.0,0.0,0.0,0.0,0.0,0.0,0.0,0.0,0.0,0.0,0.0,0.0,0.0,0.0,0.0,0.0,0.0,0.0,0.0,0.0,0.0,0.0,0.0,0.0,0.0,0.0,0.0,0.0,0.0,0.0,0.0,0.0,0.0,0.0,1.9409,1.7963,1.8431,2.1149,2.0197,1.9626,0.0,0.0,0.0,0.0,0.0,0.0,0.0,0.0,0.0,0.0,0.0,0.0,0.0,0.0,0.0,0.0,0.0,0.0,0.0,0.0,0.0,0.0,0.0,0.0,0.0,0.0,0.0,0.0,0.0,0.0,0.0,0.0,0.0,0.0,0.0,0.0,0.0,0.0,0.0,0.0,0.0,0.0,0.0,0.0,0.0,0.0,0.0,0.0,0.0,0.0,0.0,0.0,0.0,0.0,0.0,0.0,0.0,0.0,0.0,0.0,0.0,0.0,0.0,0.0,0.0,0.0,0.0,0.0,0.0,0.0,0.0,0.0,0.0,0.0,0.0,0.0,0.0,0.0,0.0,0.0,0.0,0.0,0.0,0.0,0.0,0.0,0.0,0.0,0.0,0.0,0.0,0.0,0.0,0.0,0.0,0.0,0.0,0.0,0.0,0.0,0.0,0.0,0.0,0.0,0.0,0.0,0.0,0.0,0.0,1.7263,1.8256,1.9426,2.0793,2.0222,1.9823,0.0,0.0,0.0,0.0,0.0,0.0,0.0,0.0,0.0,0.0,0.0,0.0,0.0,0.0,0.0,0.0,0.0,0.0,0.0,0.0,0.0,0.0,0.0,0.0,0.0,0.0,0.0,0.0,0.0,0.0,0.0,0.0,0.0,0.0,0.0,0.0,0.0,0.0,0.0,0.0,0.0,0.0,0.0,0.0,0.0,0.0,0.0,0.0,0.0,0.0,0.0,0.0,0.0,0.0,0.0,0.0,0.0,0.0,0.0,0.0,0.0,0.0,0.0,0.0,0.0,0.0,0.0,0.0,0.0,0.0,0.0,0.0,0.0,0.0,0.0,0.0,0.0,0.0,0.0,0.0,0.0,0.0,0.0,0.0,0.0,0.0,0.0,0.0,0.0,0.0,0.0,0.0,0.0,0.0,0.0,0.0,0.0,0.0,0.0,0.0,0.0,0.0,0.0,0.0,0.0,0.0,0.0,0.0,0.0,1.7389,0.0,2.0582,2.039,2.0295,1.9622,0.0,0.0,0.0,0.0,0.0,0.0,0.0,0.0,0.0,0.0,0.0,0.0,0.0,0.0,0.0,0.0,0.0,0.0,0.0,0.0,0.0,0.0,0.0,0.0,0.0,0.0,0.0,0.0,0.0,0.0,0.0,0.0,0.0,0.0,0.0,0.0,0.0,0.0,0.0,0.0,0.0,0.0,0.0,0.0,0.0,0.0,0.0,0.0,0.0,0.0,0.0,0.0,0.0,0.0,0.0,0.0,0.0,0.0,0.0,0.0,0.0,0.0,0.0,0.0,0.0,0.0,0.0,0.0,0.0,0.0,0.0,0.0,0.0,0.0,0.0,0.0,0.0,0.0,0.0,0.0,0.0,0.0,0.0,0.0,0.0,0.0,0.0,0.0,0.0,0.0,0.0,0.0,0.0,0.0,0.0,0.0,0.0,0.0,0.0,0.0,0.0,0.0,0.0,0.0,0.0,0.0,0.0,0.0,1.6658,2.0313,2.1703,2.1595,2.0131,2.0387,1.8942,0.0,0.0,0.0,0.0,0.0,0.0,0.0,0.0,0.0,0.0,0.0,0.0,0.0,0.0,0.0,0.0,0.0,0.0,0.0,0.0,0.0,0.0,0.0,0.0,0.0,0.0,0.0,0.0,0.0,0.0,0.0,0.0,0.0,0.0,0.0,0.0,0.0,0.0,0.0,0.0,0.0,0.0,0.0,0.0,0.0,0.0,0.0,0.0,0.0,0.0,0.0,0.0,0.0,0.0,0.0,0.0,0.0,0.0,0.0,0.0,0.0,0.0,0.0,0.0,0.0,0.0,0.0,0.0,0.0,0.0,0.0,0.0,0.0,0.0,0.0,0.0,0.0,0.0,0.0,0.0,0.0,0.0,0.0,0.0,0.0,0.0,0.0,0.0,0.0,0.0,0.0,0.0,0.0,0.0,0.0,0.0,0.0,0.0,0.0,0.0,0.0,0.0,0.0,0.0,0.0,0.0,0.0,0.0,0.0,1.753,1.9024,2.0372,2.1303,1.9019,1.8368,0.0,0.0,0.0,0.0,0.0,0.0,0.0,0.0,0.0,0.0,0.0,0.0,0.0,0.0,0.0,0.0,0.0,0.0,0.0,0.0,0.0,0.0,0.0,0.0,0.0,0.0,0.0,0.0,0.0,0.0,0.0,0.0,0.0,0.0,0.0,0.0,0.0,0.0,0.0,0.0,0.0,0.0,0.0,0.0,0.0,0.0,0.0,0.0,0.0,0.0,0.0,0.0,0.0,0.0,0.0,0.0,0.0,0.0,0.0,0.0,0.0,0.0,0.0,0.0,0.0,0.0,0.0,0.0,0.0,0.0,0.0,0.0,0.0,0.0,0.0,0.0,0.0,0.0,0.0,0.0,0.0,0.0,0.0,0.0,0.0,0.0,0.0,0.0,0.0,0.0,0.0,0.0,0.0,0.0,0.0,0.0,0.0,0.0,0.0,0.0,0.0,0.0,0.0,0.0,0.0,0.0,0.0,0.0,0.0,1.8639,2.053,2.1859,2.2424,2.0314,1.9456,2.0011,0.0,0.0,0.0,0.0,0.0,0.0,0.0,0.0,0.0,0.0,0.0,0.0,0.0,0.0,0.0,0.0,0.0,0.0,0.0,0.0,0.0,0.0,0.0,0.0,0.0,0.0,0.0,0.0,0.0,0.0,0.0,0.0,0.0,0.0,0.0,0.0,0.0,0.0,0.0,0.0,0.0,0.0,0.0,0.0,0.0,0.0,0.0,0.0,0.0,0.0,0.0,0.0,0.0,0.0,0.0,0.0,0.0,0.0,0.0,0.0,0.0,0.0,0.0,0.0,0.0,0.0,0.0,0.0,0.0,0.0,0.0,0.0,0.0,0.0,0.0,0.0,0.0,0.0,0.0,0.0,0.0,0.0,0.0,0.0,0.0,0.0,0.0,0.0,0.0,0.0,0.0,0.0,0.0,0.0,0.0,0.0,0.0,0.0,0.0,0.0,0.0,0.0,0.0,0.0,0.0,0.0,0.0,0.0,2.2706,2.5407,2.5648,2.3414,2.3526,2.1791,0.0,0.0,0.0,0.0,0.0,0.0,0.0,0.0,0.0,0.0,0.0,0.0,0.0,0.0,0.0,0.0,0.0,0.0,0.0,0.0,0.0,0.0,0.0,0.0,0.0,0.0,0.0,0.0,0.0,0.0,0.0,0.0,0.0,0.0,0.0,0.0,0.0,0.0,0.0,0.0,0.0,0.0,0.0,0.0,0.0,0.0,0.0,0.0,0.0,0.0,0.0,0.0,0.0,0.0,0.0,0.0,0.0,0.0,0.0,0.0,0.0,0.0,0.0,0.0,0.0,0.0,0.0,0.0,0.0,0.0,0.0,0.0,0.0,0.0,0.0,0.0,0.0,0.0,0.0,0.0,0.0,0.0,0.0,0.0,0.0,0.0,0.0,0.0,0.0,0.0,0.0,0.0,0.0,0.0,0.0,0.0,0.0,0.0,0.0,0.0,0.0,0.0,0.0,0.0,0.0,0.0,0.0,0.0,0.0,2.4029,2.7482,2.8551,2.6915,2.3961,2.2281,0.0,0.0,0.0,0.0,0.0,0.0,0.0,0.0,0.0,0.0,0.0,0.0,0.0,0.0,0.0,0.0,0.0,0.0,0.0,0.0,0.0,0.0,0.0,0.0,0.0,0.0,0.0,0.0,0.0,0.0,0.0,0.0,0.0,0.0,0.0,0.0,0.0,0.0,0.0,0.0,0.0,0.0,0.0,0.0,0.0,0.0,0.0,0.0,0.0,0.0,0.0,0.0,0.0,0.0,0.0,0.0,0.0,0.0,0.0,0.0,0.0,0.0,0.0,0.0,0.0,0.0,0.0,0.0,0.0,0.0,0.0,0.0,0.0,0.0,0.0,0.0,0.0,0.0,0.0,0.0,0.0,0.0,0.0,0.0,0.0,0.0,0.0,0.0,0.0,0.0,0.0,0.0,0.0,0.0,0.0,0.0,0.0,0.0,0.0,0.0,0.0,0.0,0.0,0.0,0.0,0.0,0.0,0.0,2.4267,2.6806,2.9712,3.0876,3.0091,2.676,2.4377,0.0,0.0,0.0,0.0,0.0,0.0,0.0,0.0,0.0,0.0,0.0,0.0,0.0,0.0,0.0,0.0,0.0,0.0,0.0,0.0,0.0,0.0,0.0,0.0,0.0,0.0,0.0,0.0,0.0,0.0,0.0,0.0,0.0,0.0,0.0,0.0,0.0,0.0,0.0,0.0,0.0,0.0,0.0,0.0,0.0,0.0,0.0,0.0,0.0,0.0,0.0,0.0,0.0,0.0,0.0,0.0,0.0,0.0,0.0,0.0,0.0,0.0,0.0,0.0,0.0,0.0,0.0,0.0,0.0,0.0,0.0,0.0,0.0,0.0,0.0,0.0,0.0,0.0,0.0,0.0,0.0,0.0,0.0,0.0,0.0,0.0,0.0,0.0,0.0,0.0,0.0,0.0,0.0,0.0,0.0,0.0,0.0,0.0,0.0,0.0,0.0,0.0,0.0,0.0,0.0,0.0,0.0,0.0,2.6936,3.0025,3.1733,3.2551,3.2476,3.0356,2.7107,0.0,0.0,0.0,0.0,0.0,0.0,0.0,0.0,0.0,0.0,0.0,0.0,0.0,0.0,0.0,0.0,0.0,0.0,0.0,0.0,0.0,0.0,0.0,0.0,0.0,0.0,0.0,0.0,0.0,0.0,0.0,0.0,0.0,0.0,0.0,0.0,0.0,0.0,0.0,0.0,0.0,0.0,0.0,0.0,0.0,0.0,0.0,0.0,0.0,0.0,0.0,0.0,0.0,0.0,0.0,0.0,0.0,0.0,0.0,0.0,0.0,0.0,0.0,0.0,0.0,0.0,0.0,0.0,0.0,0.0,0.0,0.0,0.0,0.0,0.0,0.0,0.0,0.0,0.0,0.0,0.0,0.0,0.0,0.0,0.0,0.0,0.0,0.0,0.0,0.0,0.0,0.0,0.0,0.0,0.0,0.0,0.0,0.0,0.0,0.0,0.0,0.0,0.0,0.0,0.0,0.0,0.0,0.0,2.7814,3.0062,3.207,3.3003,3.2738,2.9828,2.7028,0.0,0.0,0.0,0.0,0.0,0.0,0.0,0.0,0.0,0.0,0.0,0.0,0.0,0.0,0.0,0.0,0.0,0.0,0.0,0.0,0.0,0.0,0.0,0.0,0.0,0.0,0.0,0.0,0.0,0.0,0.0,0.0,0.0,0.0,0.0,0.0,0.0,0.0,0.0,0.0,0.0,0.0,0.0,0.0,0.0,0.0,0.0,0.0,2.7095,0.0,0.0,0.0,0.0,0.0,0.0,0.0,0.0,0.0,0.0,0.0,0.0,0.0,0.0,0.0,0.0,0.0,0.0,0.0,0.0,0.0,0.0,0.0,0.0,0.0,0.0,0.0,0.0,0.0,0.0,0.0,0.0,0.0,0.0,0.0,0.0,0.0,0.0,0.0,0.0,0.0,0.0,0.0,0.0,0.0,0.0,0.0,0.0,0.0,0.0,0.0,0.0,0.0,0.0,0.0,0.0,0.0,0.0,0.0,2.849,3.0771,3.1741,3.2385,3.2661,2.9785,2.7274,0.0,0.0,0.0,0.0,0.0,0.0,0.0,0.0,0.0,0.0,0.0,0.0,0.0,0.0,0.0,0.0,0.0,0.0,0.0,0.0,0.0,0.0,0.0,0.0,0.0,0.0,0.0,0.0,0.0,0.0,0.0,0.0,0.0,0.0,0.0,0.0,0.0,0.0,0.0,0.0,0.0,0.0,0.0,0.0,0.0,0.0,0.0,0.0,0.0,0.0,0.0,0.0,0.0,0.0,0.0,0.0,0.0,0.0,0.0,0.0,0.0,0.0,0.0,0.0,0.0,0.0,0.0,0.0,0.0,0.0,0.0,0.0,0.0,0.0,0.0,0.0,0.0,0.0,0.0,0.0,0.0,0.0,0.0,0.0,0.0,0.0,0.0,0.0,0.0,0.0,0.0,0.0,0.0,0.0,0.0,0.0,0.0,0.0,0.0,0.0,0.0,0.0,0.0,0.0,0.0,0.0,0.0,2.6952,2.9008,3.1452,3.1235,3.1491,3.2435,2.9784,2.7594,2.6067,0.0,0.0,0.0,0.0,0.0,0.0,0.0,0.0,0.0,0.0,0.0,0.0,0.0,0.0,0.0,0.0,0.0,0.0,0.0,0.0,0.0,0.0,0.0,0.0,0.0,0.0,0.0,0.0,0.0,0.0,0.0,0.0,0.0,0.0,0.0,0.0,0.0,0.0,2.5899,2.6507,0.0,0.0,0.0,0.0,0.0,0.0,0.0,0.0,2.7451,0.0,0.0,0.0,0.0,0.0,0.0,0.0,0.0,0.0,0.0,0.0,0.0,0.0,0.0,0.0,0.0,0.0,0.0,0.0,0.0,0.0,0.0,0.0,0.0,0.0,0.0,0.0,0.0,0.0,0.0,0.0,0.0,0.0,0.0,0.0,0.0,0.0,0.0,0.0,0.0,0.0,0.0,0.0,0.0,0.0,0.0,0.0,0.0,0.0,0.0,0.0,0.0,0.0,0.0,0.0,0.0,2.758,2.7957,2.9067,3.0983,3.1392,3.1421,3.1087,2.9288,2.7495,2.5757,0.0,0.0,0.0,0.0,0.0,0.0,0.0,0.0,0.0,0.0,0.0,0.0,0.0,0.0,0.0,0.0,0.0,0.0,0.0,0.0,0.0,0.0,0.0,0.0,0.0,0.0,0.0,0.0,0.0,0.0,0.0,0.0,0.0,0.0,0.0,0.0,0.0,0.0,0.0,2.7869,2.8079,0.0,0.0,0.0,0.0,0.0,0.0,0.0,0.0,2.8483,0.0,0.0,0.0,0.0,0.0,0.0,0.0,0.0,0.0,0.0,0.0,0.0,0.0,0.0,0.0,0.0,0.0,0.0,0.0,0.0,0.0,0.0,0.0,0.0,0.0,0.0,0.0,0.0,0.0,0.0,0.0,0.0,0.0,0.0,0.0,0.0,0.0,0.0,0.0,0.0,0.0,0.0,0.0,0.0,0.0,0.0,0.0,0.0,0.0,0.0,0.0,0.0,0.0,0.0,0.0,2.7612,2.8672,3.001,3.1809,3.1442,3.1324,3.147,2.8963,2.7142,0.0,0.0,0.0,0.0,0.0,0.0,0.0,0.0,0.0,0.0,0.0,0.0,0.0,0.0,0.0,0.0,0.0,0.0,0.0,0.0,0.0,0.0,0.0,0.0,0.0,0.0,0.0,0.0,0.0,0.0,0.0,0.0,0.0,0.0,0.0,0.0,0.0,0.0,0.0,0.0,2.949,2.9864,2.9175,0.0,0.0,0.0,0.0,0.0,0.0,2.9209,2.9055,0.0,0.0,0.0,0.0,0.0,0.0,0.0,0.0,0.0,0.0,0.0,0.0,0.0,0.0,0.0,0.0,0.0,0.0,0.0,0.0,0.0,0.0,0.0,0.0,0.0,0.0,0.0,0.0,0.0,0.0,0.0,0.0,0.0,0.0,0.0,0.0,0.0,0.0,0.0,0.0,0.0,0.0,0.0,0.0,0.0,0.0,0.0,0.0,0.0,0.0,0.0,0.0,0.0,0.0,0.0,2.7504,2.9198,3.0974,3.2725,3.1731,3.139,3.2032,2.8999,2.7163,0.0,0.0,0.0,0.0,0.0,0.0,0.0,0.0,0.0,0.0,0.0,0.0,0.0,0.0,0.0,0.0,0.0,0.0,0.0,0.0,0.0,0.0,0.0,0.0,0.0,0.0,0.0,0.0,0.0,0.0,0.0,0.0,0.0,0.0,0.0,0.0,0.0,0.0,0.0,0.0,0.0,3.1376,3.0462,3.0987,0.0,0.0,0.0,0.0,2.9789,3.0201,0.0,0.0,0.0,0.0,0.0,0.0,0.0,0.0,0.0,0.0,0.0,0.0,0.0,0.0,0.0,0.0,0.0,0.0,0.0,0.0,0.0,0.0,0.0,0.0,0.0,0.0,0.0,0.0,0.0,0.0,0.0,0.0,0.0,0.0,0.0,0.0,0.0,0.0,0.0,0.0,0.0,0.0,0.0,0.0,0.0,0.0,0.0,0.0,0.0,0.0,0.0,0.0,0.0,0.0,0.0,0.0,2.8036,2.94,3.1089,3.2985,3.2446,3.1993,3.18,2.9854,2.8117,0.0,0.0,0.0,0.0,0.0,0.0,0.0,0.0,0.0,0.0,0.0,0.0,0.0,0.0,0.0,0.0,0.0,0.0,0.0,0.0,0.0,0.0,0.0,0.0,0.0,0.0,0.0,0.0,0.0,0.0,0.0,0.0,0.0,0.0,0.0,0.0,0.0,0.0,0.0,0.0,0.0,3.1734,2.9966,3.0718,3.1308,0.0,0.0,3.2239,3.307,3.3816,0.0,0.0,0.0,0.0,0.0,0.0,0.0,0.0,0.0,0.0,0.0,0.0,0.0,0.0,0.0,0.0,0.0,0.0,0.0,0.0,0.0,0.0,0.0,0.0,0.0,0.0,0.0,0.0,0.0,0.0,0.0,0.0,0.0,0.0,0.0,0.0,0.0,0.0,0.0,0.0,0.0,0.0,0.0,0.0,0.0,0.0,0.0,0.0,0.0,0.0,0.0,0.0,0.0,0.0,0.0,2.6701,2.8595,3.0637,3.2377,3.3669,3.2989,3.262,3.2591,3.0066,2.8319,0.0,0.0,0.0,0.0,0.0,0.0,0.0,0.0,0.0,0.0,0.0,0.0,0.0,0.0,0.0,0.0,0.0,0.0,0.0,0.0,0.0,0.0,0.0,0.0,0.0,0.0,0.0,0.0,0.0,0.0,0.0,0.0,0.0,0.0,0.0,0.0,0.0,0.0,0.0,0.0,0.0,0.0,3.1479,3.241,0.0,0.0,0.0,3.2793,3.4211,0.0,0.0,0.0,0.0,0.0,0.0,0.0,0.0,0.0,0.0,0.0,0.0,0.0,0.0,0.0,0.0,0.0,0.0,0.0,0.0,0.0,0.0,0.0,0.0,0.0,0.0,0.0,0.0,0.0,0.0,0.0,0.0,0.0,0.0,0.0,0.0,0.0,0.0,0.0,0.0,0.0,0.0,0.0,0.0,0.0,0.0,0.0,0.0,0.0,0.0,0.0,0.0,0.0,0.0,0.0,0.0,0.0,2.9471,3.1912,3.3653,3.4562,3.382,3.3463,3.3581,3.0722,0.0,0.0,0.0,0.0,0.0,0.0,0.0,0.0,0.0,0.0,0.0,0.0,0.0,0.0,0.0,0.0,0.0,0.0,0.0,0.0,0.0,0.0,0.0,0.0,0.0,0.0,0.0,2.4608,0.0,0.0,0.0,0.0,0.0,0.0,0.0,0.0,0.0,0.0,0.0,0.0,0.0,0.0,3.4063,3.2851,3.406,3.5134,0.0,0.0,3.3731,3.4978,3.5063,3.4383,0.0,0.0,0.0,0.0,0.0,0.0,0.0,0.0,0.0,0.0,0.0,0.0,0.0,0.0,0.0,0.0,0.0,0.0,0.0,0.0,0.0,0.0,0.0,0.0,0.0,0.0,0.0,0.0,0.0,0.0,0.0,0.0,0.0,0.0,0.0,0.0,0.0,0.0,0.0,0.0,0.0,0.0,0.0,0.0,0.0,0.0,0.0,0.0,0.0,0.0,0.0,0.0,0.0,0.0,0.0,3.0955,3.2922,3.4552,3.5717,3.5121,3.4765,3.4743,3.2278,3.0323,0.0,0.0,0.0,0.0,0.0,0.0,0.0,0.0,0.0,0.0,0.0,0.0,0.0,0.0,0.0,0.0,0.0,0.0,0.0,0.0,0.0,0.0,0.0,0.0,0.0,0.0,0.0,0.0,0.0,0.0,0.0,0.0,0.0,0.0,0.0,0.0,0.0,0.0,0.0,0.0,0.0,3.3986,3.3335,3.498,3.6238,0.0,0.0,3.6013,3.5935,3.7145,3.6638,3.2365,0.0,0.0,0.0,0.0,0.0,0.0,0.0,0.0,0.0,0.0,0.0,0.0,0.0,0.0,0.0,0.0,0.0,0.0,0.0,0.0,0.0,0.0,0.0,0.0,0.0,0.0,0.0,0.0,0.0,0.0,0.0,0.0,0.0,0.0,0.0,0.0,0.0,0.0,0.0,0.0,0.0,0.0,0.0,0.0,0.0,0.0,0.0,0.0,0.0,0.0,0.0,0.0,0.0,2.9768,3.1033,3.3681,3.5507,3.6392,3.6194,3.6088,3.6056,3.3933,3.1971,0.0,0.0,0.0,0.0,0.0,0.0,0.0,0.0,0.0,0.0,0.0,0.0,0.0,0.0,0.0,0.0,0.0,0.0,0.0,0.0,0.0,0.0,0.0,0.0,0.0,0.0,0.0,0.0,2.723,2.7447,2.7682,0.0,0.0,0.0,0.0,0.0,0.0,0.0,0.0,0.0,0.0,3.5665,3.55,3.6913,0.0,0.0,3.7305,3.6917,3.8102,3.7178,3.5787,3.4151,3.2687,0.0,0.0,0.0,0.0,0.0,0.0,0.0,0.0,0.0,0.0,0.0,0.0,0.0,0.0,0.0,0.0,0.0,0.0,0.0,0.0,0.0,0.0,0.0,0.0,0.0,0.0,0.0,0.0,0.0,0.0,0.0,0.0,0.0,0.0,0.0,0.0,0.0,0.0,0.0,0.0,0.0,0.0,0.0,0.0,0.0,0.0,0.0,0.0,0.0,0.0,0.0,0.0,3.0473,3.1662,3.4275,3.6011,3.6933,3.6964,3.687,3.6606,3.4895,3.3007,0.0,0.0,0.0,0.0,0.0,0.0,0.0,0.0,0.0,0.0,0.0,0.0,0.0,0.0,0.0,0.0,0.0,0.0,0.0,0.0,0.0,0.0,0.0,0.0,0.0,0.0,0.0,0.0,2.8099,2.8265,2.8567,0.0,0.0,0.0,0.0,0.0,0.0,0.0,0.0,0.0,0.0,3.6704,3.6969,3.8086,3.8904,3.9032,3.7609,3.6936,3.8154,3.6549,3.4971,3.4421,0.0,0.0,0.0,0.0,0.0,0.0,0.0,0.0,0.0,0.0,0.0,0.0,0.0,0.0,0.0,0.0,0.0,0.0,0.0,0.0,0.0,0.0,0.0,0.0,0.0,0.0,0.0,0.0,0.0,0.0,0.0,0.0,0.0,0.0,0.0,0.0,0.0,0.0,0.0,0.0,0.0,0.0,0.0,0.0,0.0,0.0,0.0,0.0,0.0,0.0,0.0,0.0,0.0,3.1162,3.3109,3.46,3.6008,3.7381,3.7383,3.7083,3.6377,3.5027,3.3298,3.1169,0.0,0.0,0.0,0.0,0.0,0.0,0.0,0.0,0.0,0.0,0.0,0.0,0.0,0.0,0.0,0.0,0.0,0.0,0.0,0.0,0.0,0.0,0.0,0.0,0.0,0.0,3.0999,2.9818,2.899,0.0,0.0,0.0,0.0,0.0,0.0,0.0,0.0,0.0,0.0,3.4765,3.6664,3.7384,3.8154,3.8439,3.7694,3.6883,3.6131,3.5592,3.5417,3.4634,0.0,0.0,0.0,0.0,0.0,0.0,0.0,0.0,0.0,0.0,0.0,0.0,0.0,0.0,0.0,0.0,0.0,0.0,0.0,0.0,0.0,0.0,0.0,0.0,0.0,0.0,0.0,3.7246,3.6513,0.0,0.0,0.0,0.0,0.0,0.0,0.0,0.0,0.0,0.0,0.0,3.5476,3.5494,0.0,0.0,0.0,0.0,0.0,0.0,0.0,0.0,0.0,0.0,0.0,0.0,3.1537,3.382,3.5607,3.7198,3.8629,3.8678,3.8591,3.8401,3.7036,3.4857,3.1791,0.0,0.0,0.0,0.0,0.0,0.0,0.0,0.0,0.0,0.0,0.0,0.0,0.0,0.0,0.0,0.0,0.0,0.0,0.0,0.0,0.0,0.0,0.0,0.0,0.0,3.119,0.0,0.0,0.0,0.0,0.0,0.0,0.0,0.0,0.0,0.0,0.0,3.3136,3.4382,3.6215,3.7482,3.7752,3.8806,3.916,0.0,0.0,0.0,0.0,0.0,0.0,0.0,0.0,0.0,0.0,0.0,0.0,0.0,0.0,3.6784,3.1841,3.0787,3.0549,3.0143,0.0,0.0,0.0,0.0,0.0,0.0,0.0,0.0,0.0,0.0,0.0,0.0,0.0,0.0,0.0,0.0,3.8374,0.0,0.0,0.0,0.0,0.0,0.0,0.0,0.0,3.5789,3.615,3.6746,3.6783,3.6324,0.0,3.579,3.515,0.0,0.0,0.0,0.0,0.0,0.0,0.0,0.0,3.2326,3.4191,3.5935,3.7577,3.8983,3.9066,3.9118,3.9137,3.7503,3.5399,3.2868,3.1616,3.063,0.0,0.0,0.0,0.0,0.0,0.0,0.0,0.0,0.0,0.0,0.0,0.0,0.0,0.0,0.0,0.0,0.0,0.0,0.0,0.0,0.0,0.0,0.0,3.1596,0.0,0.0,0.0,0.0,0.0,0.0,0.0,0.0,0.0,3.2019,3.3254,3.4805,3.6552,3.7652,3.8379,3.8625,0.0,0.0,0.0,0.0,0.0,0.0,0.0,3.6004,3.6349,3.5385,3.4706,3.5104,3.7305,3.8646,3.7552,0.0,0.0,3.3962,3.2932,3.2751,3.2694,3.3085,3.3447,3.3447,3.3882,3.4009,0.0,0.0,0.0,0.0,0.0,0.0,0.0,0.0,4.1036,4.0683,0.0,3.9844,0.0,0.0,0.0,0.0,0.0,0.0,0.0,0.0,3.7007,3.7027,3.7064,3.7029,3.6992,3.6989,3.7619,3.7529,3.6718,3.37,0.0,0.0,0.0,0.0,0.0,0.0,3.345,3.427,3.5669,3.7125,3.8556,3.8589,3.8572,3.8522,3.652,3.5029,3.4287,3.3515,3.282,3.2184,3.1426,0.0,0.0,0.0,0.0,0.0,0.0,0.0,0.0,0.0,0.0,0.0,0.0,0.0,0.0,0.0,0.0,0.0,0.0,0.0,0.0,3.2605,0.0,0.0,0.0,0.0,0.0,0.0,0.0,0.0,0.0,0.0,3.385,3.4912,3.6529,3.8717,0.0,0.0,0.0,0.0,3.8751,3.8024,3.733,3.6965,3.6931,3.688,3.6586,3.5904,0.0,0.0,3.6659,3.7771,3.8729,3.838,3.8685,3.8382,3.7294,3.689,3.6653,3.5949,3.5838,3.5912,3.5912,3.6019,3.5804,4.7877,0.0,0.0,0.0,0.0,4.2388,4.3094,4.4609,4.4395,4.369,4.2667,4.194,0.0,0.0,0.0,0.0,0.0,0.0,3.877,3.9046,3.9046,3.9182,3.9444,3.8923,3.8508,3.8193,3.7837,3.7384,3.6882,3.5958,3.4668,3.3051,0.0,0.0,0.0,0.0,3.3203,3.4906,3.5927,3.7116,3.8589,3.8079,3.7861,3.7967,3.6936,3.6147,3.5694,3.466,3.4065,3.393,3.2383,0.0,0.0,0.0,0.0,0.0,0.0,0.0,0.0,0.0,0.0,0.0,0.0,0.0,0.0,0.0,0.0,0.0,0.0,0.0,3.3339,3.3658,3.3731,0.0,0.0,0.0,0.0,0.0,0.0,0.0,0.0,0.0,3.7615,3.8323,3.9056,0.0,0.0,3.9648,3.9377,3.9123,3.8734,3.8007,0.0,0.0,0.0,3.7922,3.7872,3.8659,3.9754,4.0528,4.0584,4.1853,4.2343,4.0787,4.1141,4.1214,3.9768,3.8554,3.7865,3.7594,3.7957,3.8337,3.8373,3.8771,3.8718,5.3142,4.9405,4.6605,4.567,4.597,4.5215,4.5739,4.7086,4.6473,4.5686,4.4847,4.4397,4.3197,4.1438,4.036,0.0,0.0,0.0,4.0033,4.0238,4.0256,4.0203,4.0126,3.9672,3.9152,3.8581,3.8095,3.7738,3.7487,3.7302,3.644,3.4963,0.0,0.0,3.3097,3.3351,3.4151,3.5463,3.6227,3.7177,3.8338,3.8235,3.8333,3.8745,3.811,3.7668,3.7495,3.6481,3.5962,3.6025,3.4309,3.3121,0.0,0.0,0.0,0.0,0.0,0.0,0.0,0.0,0.0,0.0,0.0,3.2998,0.0,0.0,0.0,0.0,3.3605,3.399,3.4081,3.473,0.0,0.0,0.0,0.0,0.0,0.0,0.0,3.776,3.8577,3.9638,4.1123,4.165,4.1579,4.0798,4.045,4.0195,4.0051,0.0,3.9431,3.9006,3.9685,4.011,3.9668,3.9481,3.9746,4.0858,4.1799,4.2558,4.294,4.3622,4.3734,4.3266,4.333,4.3322,4.2537,4.1633,4.0528,3.9387,3.9478,3.9822,3.984,4.0202,4.0202,5.7138,5.5952,5.163,4.9656,4.9398,4.8577,4.8575,4.9068,4.7625,4.6934,4.6825,4.6807,4.5969,4.4437,4.2904,0.0,4.1097,4.1025,4.099,4.0989,4.0989,4.0606,3.9896,3.9823,3.9404,3.8709,3.8636,3.8599,3.8585,3.8165,3.7559,3.684,3.6397,3.5732,3.4885,3.5445,3.583,3.5883,3.6566,3.7213,3.7915,3.8751,3.9561,4.0256,3.9536,3.9188,3.9324,3.847,3.8051,3.8058,3.6682,3.5557,3.4907,0.0,0.0,0.0,0.0,0.0,0.0,0.0,0.0,0.0,0.0,0.0,0.0,0.0,0.0,0.0,3.5793,0.0,3.5021,3.6025,0.0,0.0,0.0,3.7825,3.8647,3.9323,4.0014,4.0737,0.0,0.0,4.3957,0.0,4.3902,4.2095,4.1209,4.0998,4.1673,4.1151,4.0681,4.0673,4.0705,4.0771,4.0864,4.1378,4.1987,4.2638,4.3073,4.3631,4.4103,4.3991,4.4195,4.5127,4.5081,4.4803,4.5251,4.5039,4.4385,4.147,4.0963,4.0945,4.1071,4.1126,4.1126,5.7084,5.5727,5.4572,5.3276,5.1843,5.0438,4.9578,4.9177,4.8812,4.8014,4.6978,4.6978,4.6413,4.548,4.4455,4.387,4.3669,4.2959,4.2631,4.2631,4.2631,4.2522,4.2339,4.1701,4.1318,4.1099,4.0515,4.0223,4.0223,4.0121,3.9961,3.9779,3.9675,3.8259,3.5658,3.5707,3.6076,3.6619,3.6812,3.6987,3.7198,3.9076,3.9905,3.9501,3.8763,3.8823,3.9747,3.816,3.7606,3.8252,3.7092,3.6212,3.5713,3.4006,0.0,0.0,0.0,0.0,0.0,0.0,0.0,0.0,0.0,3.5123,3.2958,0.0,3.5566,0.0,3.6699,3.8245,3.8592,3.9157,0.0,0.0,3.8887,3.8886,3.9932,3.9927,4.0165,4.0931,4.2251,4.3215,4.3568,4.4191,4.4436,4.393,4.3437,4.3159,4.3304,4.2749,4.2228,4.227,4.2516,4.2777,4.2812,4.3412,4.4014,4.4541,4.5187,4.5722,4.5829,4.6396,4.6663,4.6083,4.6076,4.5997,4.5591,4.5446,4.5208,4.435,4.415,4.415,4.4168,4.4114,4.3951,5.7483,5.6602,5.5886,5.4994,5.3913,5.1956,5.0858,5.038,4.9706,4.8921,4.8137,4.7752,4.7148,4.6416,4.5535,4.4967,4.4601,4.3723,4.3322,4.334,4.3322,4.3139,4.2791,4.2334,4.1932,4.1584,4.1145,4.0926,4.0926,4.0892,4.0894,4.0911,4.0823,3.9873,3.8115,3.8026,3.8222,3.8595,3.8632,3.8812,3.9188,4.01,4.0527,4.0401,3.9365,3.9102,3.977,3.8061,3.75,3.8332,3.7406,3.6789,3.6571,3.5609,3.4604,0.0,0.0,0.0,0.0,0.0,0.0,0.0,0.0,0.0,0.0,0.0,3.6752,0.0,3.8751,4.042,4.067,4.1397,4.1975,4.2321,4.1796,4.1814,4.2795,4.2704,4.2881,4.3678,4.4527,4.5178,4.5542,4.5773,4.5935,4.5935,4.5529,4.4963,4.4342,4.3853,4.3591,4.3633,4.3834,4.4124,4.4424,4.4794,4.5264,4.5822,4.6415,4.6814,4.6842,4.7277,4.7467,4.7089,4.7137,4.7146,4.671,4.66,4.658,4.6541,4.6521,4.6063,4.5003,4.4747,4.4603,5.7721,5.7409,5.6014,5.5372,5.5133,5.3023,5.2087,5.1924,5.0528,4.9794,4.9537,4.8673,4.7846,4.7058,4.6269,4.5443,4.4654,4.3864,4.3479,4.3479,4.3479,4.3147,4.247,4.2451,4.2084,4.1425,4.1407,4.1407,4.1389,4.1341,4.1324,4.1324,4.1185,4.1151,4.1134,4.1151,4.1008,4.0722,4.0882,4.1244,4.1828,4.1262,4.1227,4.1756,4.0388,3.9533,3.9442,3.8109,3.7651,3.8216,3.7687,3.746,3.7631,3.754,3.693,0.0,3.6248,0.0,0.0,0.0,0.0,0.0,0.0,0.0,0.0,3.7963,3.8083,3.9445,4.1412,4.2515,4.225,4.3194,4.4085,4.4782,4.4856,4.5131,4.581,4.5902,4.6177,4.6874,4.7021,4.7369,4.7863,4.7844,4.7695,4.7563,4.7227,4.6569,4.5409,4.505,4.4938,4.4904,4.4947,4.5344,4.5893,4.594,4.6141,4.6775,4.7062,4.7302,4.747,4.7449,4.7533,4.7995,4.8035,4.7957,4.803,4.7975,4.7975,4.7864,4.7755,4.7059,4.539,4.4895,4.4568,5.6271,5.506,5.4748,5.4252,5.3628,5.317,5.2601,5.1958,5.1665,5.0822,4.9555,4.8673,4.7846,4.7058,4.6269,4.5443,4.4672,4.3846,4.3479,4.3479,4.3479,4.3406,4.3294,4.3276,4.3185,4.3039,4.3039,4.3039,4.3039,4.3039,4.3021,4.3021,4.2986,4.297,4.2901,0.0,0.0,0.0,4.1428,4.1536,4.108,4.1536,4.1519,4.1046,4.0096,0.0,3.872,3.8407,3.8071,3.7708,3.8148,0.0,0.0,0.0,0.0,0.0,0.0,0.0,0.0,0.0,0.0,0.0,3.9992,3.9756,3.882,3.969,4.1234,4.3359,4.3996,4.4471,4.5059,4.5297,4.5498,4.5645,4.5663,4.5736,4.5883,4.592,4.5957,4.6104,4.6691,4.7149,4.7369,4.7807,4.8152,4.8132,4.8075,4.7926,4.7595,4.6876,4.6472,4.6467,4.6672,4.7159,4.774,4.742,4.7274,4.7838,4.7713,4.7695,4.8015,4.8113,4.8075,4.8267,4.8208,4.8168,4.8168,4.8149,4.8148,4.8012,4.7579,4.7177,4.7177,4.7152,4.715,5.6106,0.0,5.4564,5.4161,0.0,5.3371,5.2747,5.1958,5.1573,5.0472,4.893,4.8508,4.8067,4.7645,4.6837,4.6269,4.5847,4.5057,4.447,4.4085,4.4085,4.3883,4.3479,4.3479,4.3479,4.3479,4.3479,4.3479,4.3479,4.3479,4.3479,4.3479,4.3479,4.348,4.3464,4.348,4.3059,4.2149,4.2533,4.2552,4.2167,4.2533,4.2351,4.1565,0.0,0.0,0.0,0.0,0.0,0.0,0.0,0.0,0.0,0.0,0.0,4.0469,4.0487,4.0836,4.1607,4.2047,4.2433,4.2818,4.324,4.28,4.1185,4.2543,4.3975,4.5149,4.5645,4.6049,4.6452,4.6856,4.7076,4.7076,4.7095,4.7095,4.7076,4.7076,4.7095,4.7113,4.7462,4.77,4.77,4.8012,4.8288,4.8324,4.8324,4.8324,4.8267,4.7897,4.7609,4.7588,4.7527,4.7756,4.8152,4.7935,4.7756,4.8114,4.8113,4.8055,4.8249,4.8324,4.8324,4.8287,4.8248,4.8247,4.8247,4.8229,4.8209,4.8152,4.7879,4.7714,4.7975,4.7676,4.7325,5.6124,5.5339,5.4509,5.4197,5.4124,5.3335,5.2435,5.1518,0.0,0.0,0.0,4.8214,4.8012,4.7829,4.7021,4.6599,4.6434,4.5792,4.5112,4.4507,4.4488,4.414,4.3497,4.3479,4.3479,4.3479,4.3479,4.3479,4.3479,4.3479,4.3479,4.3479,4.3479,4.3479,4.3479,4.3479,4.3479,4.3479,4.3479,4.3479,4.3479,4.3349,4.2982,4.2323,4.1517,4.0726,3.9918,3.9405,3.9368,3.9879,4.0029,4.023,4.0524,4.1167,4.1644,4.1957,4.258,4.3516,4.4801,4.4929,4.5278,4.6067,4.6104,4.5553,4.4213,4.5351,4.6177,4.6324,4.6929,4.7296,4.7314,4.7902,4.8324,4.8324,4.8324,4.8306,4.8306,4.8324,4.8233,4.8324,4.8269,4.8306,4.8288,4.8306,4.8324,4.8324,4.8324,4.8324,4.8324,4.8267,4.8229,4.819,4.7955,4.7877,4.8132,4.8015,4.7897,4.8229,4.8305,4.8324,4.8324,4.8324,4.8324,4.8324,4.8324,4.8287,4.8305,4.8305,4.8324,4.8324,4.8324,4.8287,4.8153,4.7618,4.7154,5.5299,5.4509,5.372,5.339,5.3316,5.2509,5.1316,4.9959,4.9831,4.9647,4.9335,4.7902,4.6874,4.6195,4.5406,4.4672,4.4029,4.39,4.3772,0.0,4.3663,4.3589,4.3497,4.3479,4.3479,4.3479,4.3479,4.3479,4.3479,4.3479,4.3479,4.3479,4.3479,4.3479,4.3479,4.3479,4.3479,4.3479,4.3479,4.3479,4.3478,4.2818,4.2415,4.2286,4.1517,4.0726,3.9937,4.0469,4.0506,3.9937,4.0561,4.1552,4.289,4.3111,4.3754,4.5094,4.5333,4.5498,4.5718,4.5718,4.6067,4.6837,4.6929,4.6819,4.6636,4.6801,4.7204,4.7865,4.8049,4.8141,4.8141,4.8233,4.8324,4.8324,4.8324,4.8324,4.8324,4.8324,4.8324,4.8324,4.8324,4.8324,4.8324,4.8324,4.8324,4.8324,4.8324,4.8324,4.8324,4.8324,4.8324,4.8324,4.8267,4.823,4.8267,4.8267,4.8229,4.8305,4.8324,4.8324,4.8324,4.8324,4.8324,4.8324,4.8324,4.8306,4.8288,4.8324,4.8251,4.8214,4.8141,4.8195,4.8121,4.7937,4.7879,5.5033,5.3928,5.3523,5.3375,5.3283,5.2031,5.111,5.0336,4.9434,4.9009,4.882,4.8086,4.7296,4.6544,4.6159,4.5571,4.48,4.4782,4.4562,4.4158,4.4158,4.392,4.3516,4.3479,4.3479,4.3479,4.3479,4.3479,4.3479,4.3479,4.3479,4.3479,4.3479,4.3479,4.3479,4.3479,4.3479,4.3479,4.3479,4.3479,4.3479,4.3147,4.2964,4.2928,4.258,4.2231,4.1882,4.2616,4.2875,4.2506,4.3277,4.4048,4.4745,4.48,4.5333,4.6452,4.6562,4.6764,4.7168,4.7205,4.737,4.77,4.7755,4.7793,4.7849,4.7793,4.7901,4.8269,4.8324,4.8324,4.8324,4.8324,4.8324,4.8324,4.8324,4.8324,4.8324,4.8324,4.8324,4.8324,4.8324,4.8324,4.8324,4.8324,4.8324,4.8324,4.8324,4.8324,4.8324,4.8324,4.8324,4.8324,4.8324,4.8324,4.8324,4.8324,4.8324,4.8324,4.8324,4.8324,4.8324,4.8324,4.8324,4.8324,4.8306,4.8122,4.781,4.8031,4.7902,4.715,4.7407,4.7461,4.7168,4.7003,4.7258,5.4919,5.3776,5.3555,5.3388,5.3093,5.1708,5.0988,5.0692,4.9233,4.8514,4.8364,4.8179,4.7647,4.693,4.6728,4.6177,4.5497,4.5423,4.5074,4.4488,4.4451,4.4102,4.3552,4.3479,4.3479,4.3479,4.3479,4.3479,4.3479,4.3479,4.3479,4.3479,4.3479,4.3479,4.3479,4.3479,4.3479,4.3497,4.3663,4.3698,4.3497,4.3479,4.3479,4.3497,4.368,4.3773,4.3809,4.4544,4.4984,4.5002,4.5571,4.5993,4.6177,4.6048,4.6379,4.7279,4.7261,4.7518,4.8272,4.8382,4.8363,4.8345,4.8364,4.8401,4.8513,4.8438,4.8364,4.8345,4.8382,4.8382,4.8382,4.8382,4.8382,4.8345,4.8345,4.8382,4.8363,4.8363,4.8325,4.8343,4.8306,4.8324,4.8324,4.8324,4.8324,4.8324,4.8324,4.8324,4.8324,4.8324,4.8324,4.8324,4.8324,4.8324,4.8324,4.8324,4.8324,4.8324,4.8324,4.8324,4.8324,4.8324,4.8324,4.8288,4.8085,4.7791,4.7296,4.7351,4.7186,4.6324,4.6507,4.6636,4.6177,4.603,4.625,5.4716,5.4476,5.3796,5.3056,5.2411,5.1506,5.0749,5.001,4.9012,4.8587,4.8549,4.7812,4.7092,4.6261,4.5616,4.4897,4.4122,4.4011,4.3942,4.3764,4.371,4.3621,4.3532,4.3496,4.3496,4.3513,4.3531,4.3565,4.3565,4.3531,4.3496,4.3479,4.3479,4.3496,4.3496,4.3515,4.3515,4.3515,4.4213,4.425,4.3534,4.3479,4.3479,4.3533,4.4232,4.4599,4.4617,4.5351,4.5792,4.5792,4.5865,4.6305,4.6967,4.6506,4.68,4.8237,4.7757,4.7738,4.8458,4.8587,4.8513,4.8569,4.8477,4.8495,4.8569,4.855,4.8569,4.8569,4.8569,4.855,4.855,4.855,4.855,4.8532,4.855,4.8569,4.855,4.8495,4.8476,4.8494,4.8401,4.8324,4.8325,4.8325,4.8306,4.8343,4.8343,4.8324,4.8306,4.8195,4.8251,4.8269,4.8288,4.8251,4.8269,4.8324,4.8324,4.8324,4.8324,4.8269,4.8233,4.8195,4.8269,4.7792,4.7627,4.7149,4.6837,4.6654,4.6159,4.5736,4.5736,4.592,4.5883,4.5736,4.5865,5.4604,5.4159,5.3807,5.3609,5.3327,5.2282,5.1611,5.1214,4.9903,4.9321,4.9283,4.8945,4.8117,4.6906,4.6556,4.5725,4.4543,4.4506,4.4212,4.3738,4.3719,4.38,4.3905,4.3921,4.3977,4.414,4.4154,4.4158,4.4099,4.4053,4.4023,4.4008,4.3921,4.386,4.3897,4.435,4.4621,4.4658,4.5456,4.57,4.5405,4.5067,4.4911,4.4947,4.5241,4.5406,4.5498,4.6268,4.6728,4.6764,4.7206,4.7444,4.7351,4.7499,4.7646,4.7885,4.759,4.7774,4.8531,4.7737,4.7369,4.783,4.7442,4.7404,4.7956,4.8011,4.8196,4.8676,4.8678,4.8587,4.8587,4.8587,4.8587,4.8587,4.8587,4.8605,4.8587,4.8587,4.8569,4.8569,4.8513,4.8458,4.8495,4.8495,4.8458,4.8438,4.8401,4.8382,4.8307,4.7901,4.7829,4.8049,4.7535,4.7388,4.8031,4.8324,4.8288,4.8306,4.8324,4.8251,4.7681,4.759,4.7461,4.7021,4.6636,4.6214,4.5682,4.5902,4.5718,4.5131,4.4506,4.447,4.4506,4.447,4.4488,5.4613,5.409,5.3847,5.3875,5.3938,5.2563,5.1945,5.1755,5.041,4.9803,4.9803,4.9803,4.9181,4.8147,4.7856,4.6943,4.5733,4.564,4.5307,4.4771,4.4733,4.4838,4.4974,4.4974,4.5101,4.5278,4.5297,4.5283,4.5205,4.5151,4.5143,4.5115,4.4992,4.4919,4.4976,4.5573,4.5865,4.594,4.669,4.7046,4.6799,4.6617,4.6352,4.6028,4.5974,4.601,4.6116,4.6961,4.744,4.7458,4.7844,4.7881,4.7514,4.757,4.7403,4.6958,4.7271,4.7716,4.8326,4.7476,4.718,4.7679,4.7235,4.7105,4.7525,4.7635,4.7782,4.8076,4.8304,4.8381,4.8678,4.8696,4.8678,4.8678,4.8678,4.8696,4.8678,4.8678,4.8678,4.866,4.8624,4.8587,4.8587,4.8587,4.8569,4.8532,4.8532,4.8366,4.807,4.7573,4.7371,4.7628,4.6654,4.6728,4.7921,4.7737,4.7792,4.7846,4.7774,4.7315,4.6874,4.6801,4.6727,4.6379,4.5883,4.548,4.5131,4.5223,4.5094,4.4011,4.3551,4.3588,4.3699,4.357,4.3534,5.478,5.4633,5.3857,5.3573,5.3432,5.1812,5.1092,5.1152,5.0191,4.983,4.9857,4.9844,4.9784,4.9592,4.8891,4.8071,4.7257,4.7155,4.704,4.6855,4.6906,4.6981,4.6984,4.6965,4.6936,4.6845,4.6839,4.687,4.6906,4.6949,4.6998,4.6936,4.6847,4.689,4.6852,4.696,4.7035,4.7124,4.7847,4.7876,4.7245,4.7749,4.7439,4.6436,4.6205,4.6376,4.6619,4.7359,4.7753,4.7753,4.7191,4.7036,4.7375,4.6246,4.5591,4.5749,4.6919,4.7718,4.7923,4.8274,4.861,4.8742,4.8497,4.8389,4.774,4.7718,4.7532,4.6791,4.7592,4.8169,4.8744,4.8838,4.8855,4.8855,4.8855,4.8855,4.8873,4.8822,4.8787,4.8713,4.8586,4.8494,4.8531,4.8587,4.8568,4.8568,4.8569,4.8292,4.7572,4.7332,4.7038,4.6506,4.6248,4.6562,4.7774,4.7278,4.6709,4.6801,4.6746,4.6122,4.6012,4.592,4.5883,4.5681,4.5112,4.4745,4.4599,4.4323,4.3956,4.3479,4.3479,4.3479,4.3479,4.3479,4.3479,5.5261,5.4745,5.4096,5.3815,5.3638,5.2217,5.158,5.1484,5.073,5.0366,5.0366,5.0385,5.0377,5.0377,5.009,4.9281,4.8207,4.8156,4.7839,4.7315,4.7258,4.734,4.7462,4.7493,4.7587,4.7718,4.7728,4.7737,4.7731,4.7708,4.7686,4.7644,4.7543,4.7483,4.7571,4.8052,4.8324,4.8381,4.9099,4.9353,4.8948,4.8674,4.8173,4.7694,4.7552,4.7294,4.6891,4.7705,4.7922,4.7381,4.7627,4.7697,4.7433,4.7377,4.7612,4.8116,4.8244,4.8493,4.887,4.8267,4.8033,4.8337,4.8055,4.7909,4.7777,4.7863,4.7949,4.8048,4.8221,4.8649,4.8779,4.889,4.889,4.889,4.889,4.889,4.889,4.8855,4.8671,4.8244,4.8043,4.8043,4.8229,4.847,4.8545,4.8122,4.8418,4.8068,4.7017,4.6629,4.6537,4.606,4.5359,4.5176,4.6726,4.6452,4.603,4.614,4.6049,4.5626,4.5388,4.5168,4.5094,4.4654,4.4158,4.4176,4.4103,4.414,4.3644,4.3735,4.3699,4.3846,4.3479,4.3828,4.3736,5.5581,5.4999,5.4115,5.3728,5.356,5.2131,5.1529,5.1452,5.0933,5.0683,5.0683,5.0683,5.0683,5.0683,5.0683,5.0225,4.9341,4.9279,4.8936,4.8433,4.8395,4.8495,4.8643,4.8665,4.8767,4.8914,4.8933,4.8933,4.8942,4.8884,4.8874,4.8864,4.8733,4.8671,4.8766,4.9277,4.9556,4.9652,5.0101,5.0243,4.9915,4.9236,4.8684,4.845,4.851,4.8143,4.7295,4.7845,4.808,4.7814,4.8061,4.796,4.7441,4.7839,4.8408,4.8869,4.875,4.8825,4.9248,4.8579,4.8278,4.8593,4.8351,4.8112,4.805,4.8164,4.8337,4.8443,4.8699,4.8811,4.8867,4.9035,4.9106,4.8959,4.889,4.889,4.889,4.889,4.8649,4.8314,4.8186,4.8147,4.8147,4.8593,4.8577,4.808,4.8543,4.8174,4.7067,4.6439,4.6144,4.5814,4.4742,4.4504,4.5173,4.5143,4.5312,4.5459,4.5203,4.4855,4.4726,4.4506,4.4249,4.3717,4.357,4.3662,4.3772,4.3846,4.3993,4.4139,4.4488,4.4745,4.4525,4.4397,4.4323,5.5692,5.5421,5.3895,5.3248,5.3037,5.1519,5.075,5.0789,5.0721,5.0683,5.0683,5.0683,5.0683,5.0683,5.0683,5.0635,5.0528,5.047,5.0431,5.0364,5.0413,5.0432,5.0433,5.0384,5.0375,5.0433,5.0587,5.0587,5.0471,5.0404,5.0442,5.0567,5.0433,5.0317,5.0606,5.048,5.0596,5.0586,5.0615,5.0279,4.9548,4.9471,4.9067,4.8404,4.8933,4.8823,4.7788,4.7826,4.8178,4.8655,4.822,4.7652,4.7642,4.77,4.7542,4.7909,4.8308,4.8656,4.8827,4.939,4.9631,4.9646,4.9711,4.9339,4.8764,4.8672,4.8458,4.8032,4.8329,4.8715,4.884,4.93,4.9506,4.9025,4.8959,4.8942,4.889,4.8872,4.8853,4.8723,4.8649,4.8834,4.8834,4.8853,4.878,4.865,4.8761,4.8501,4.7502,4.689,4.6222,4.5432,4.4916,4.4844,4.4352,4.3917,4.4383,4.4682,4.4244,4.388,4.4007,4.3915,4.3934,4.3584,4.3896,4.4043,4.4635,4.4763,4.4965,4.5149,4.5461,4.5535,4.5351,4.5149,4.5094,5.5684,5.5491,5.3895,5.3203,5.2991,5.1395,5.0683,5.0683,5.0683,5.0683,5.0683,5.0683,5.0683,5.0683,5.0683,5.0683,5.0683,5.0683,5.0683,5.0683,5.0683,5.0683,5.0683,5.0683,5.0683,5.0683,5.0683,5.0683,5.0683,5.0683,5.0683,5.0683,5.0683,5.0683,5.0683,5.0683,5.0683,5.0683,5.0683,5.0539,5.0327,5.0279,4.9875,4.9144,4.9279,4.9183,4.8884,4.8874,4.872,4.847,4.8701,4.9103,4.9493,4.9646,4.9646,4.9684,4.9865,5.0057,5.0065,5.0227,5.0291,5.0171,5.0279,5.0083,4.9568,4.9581,4.948,4.9054,4.9286,4.9438,4.9495,4.9614,4.9651,4.9305,4.9222,4.9144,4.8903,4.848,4.8129,4.8073,4.8073,4.8073,4.8203,4.8481,4.8704,4.8333,4.8593,4.8481,4.733,4.7256,4.7014,4.6201,4.5795,4.5444,4.5245,4.5084,4.5256,4.5244,4.4623,4.4168,4.4057,4.3985,4.3911,4.4002,4.4294,4.472,4.5312,4.5662,4.5864,4.5901,4.5975,4.5975,4.5902,4.592,4.5957,5.5684,5.553,5.4241,5.3491,5.3068,5.1702,5.0952,5.0721,5.0683,5.0683,5.0683,5.0683,5.0683,5.0683,5.0683,5.0683,5.0683,5.0683,5.0683,5.0683,5.0683,5.0683,5.0683,5.0683,5.0683,5.0683,5.0683,5.0683,5.0683,5.0683,5.0683,5.0683,5.0683,5.0683,5.0683,5.0683,5.0683,5.0683,5.0683,5.0683,5.0683,5.0683,5.0442,4.9971,4.9875,4.9894,4.9875,4.9894,4.9625,4.924,4.9625,5.0144,5.0654,5.0644,5.0683,5.0683,5.0683,5.0664,5.0683,5.0644,5.0624,5.0472,5.0575,5.0544,5.0245,5.0313,5.0291,5.0166,5.0123,5.0111,5.0123,5.0162,5.0006,4.9721,4.9598,4.9423,4.9064,4.8665,4.834,4.8308,4.8221,4.8147,4.8296,4.8463,4.8704,4.8333,4.8556,4.8742,4.7683,4.7608,4.7311,4.6958,4.6513,4.6329,4.6382,4.6349,4.63,4.5971,4.5462,4.519,4.5027,4.501,4.4973,4.5064,4.5284,4.571,4.6265,4.6487,4.6652,4.6617,4.6709,4.6985,4.7187,4.7058,4.7003,5.5684,5.5588,5.4838,5.3953,5.3126,5.2192,5.1395,5.076,5.0683,5.0683,5.0683,5.0683,5.0683,5.0683,5.0683,5.0683,5.0683,5.0683,5.0683,5.0683,5.0683,5.0683,5.0683,5.0683,5.0683,5.0683,5.0683,5.0683,5.0683,5.0683,5.0683,5.0683,5.0683,5.0683,5.0683,5.0683,5.0683,5.0683,5.0683,5.0683,5.0683,5.0683,5.0673,5.0616,5.0616,5.0596,5.0577,5.0558,5.0616,5.0654,5.0558,5.0596,5.0683,5.0683,5.0683,5.0683,5.0683,5.0683,5.0683,5.0683,5.0702,5.0663,5.0673,5.0683,5.0624,5.0604,5.0614,5.0594,5.0604,5.0624,5.0624,5.0614,5.0483,5.0249,4.9936,4.9651,4.9454,4.9355,4.9168,4.8982,4.894,4.8906,4.8847,4.8905,4.8853,4.8853,4.8853,4.8742,4.863,4.824,4.7887,4.7571,4.7311,4.7274,4.7367,4.7367,4.7352,4.7207,4.6674,4.6343,4.5941,4.5831,4.5947,4.6057,4.6258,4.672,4.711,4.7368,4.7609,4.7758,4.7997,4.8346,4.8254,4.7959,4.7756,5.5684,5.5607,5.4838,5.401,5.3145,5.2269,5.1452,5.075,5.0702,5.0683,5.0683,5.0683,5.0683,5.0683,5.0683,5.0683,5.0683,5.0683,5.0683,5.0683,5.0683,5.0683,5.0683,5.0683,5.0683,5.0683,5.0683,5.0683,5.0683,5.0683,5.0683,5.0683,5.0683,5.0683,5.0683,5.0683,5.0683,5.0683,5.0683,5.0683,5.0683,5.0683,5.0683,5.0683,5.0683,5.0683,5.0683,5.0683,5.0683,5.0683,5.0683,5.0683,5.0683,5.0683,5.0683,5.0683,5.0683,5.0683,5.0683,5.0683,5.0683,5.0683,5.0683,5.0683,5.0683,5.0683,5.0683,5.0683,5.0683,5.0683,5.0683,5.0683,5.0624,5.0534,5.0142,4.9817,4.9721,4.9693,4.9651,4.9565,4.9377,4.9286,4.9209,4.9061,4.8907,4.889,4.889,4.889,4.8816,4.876,4.8389,4.8537,4.8407,4.837,4.8351,4.8351,4.837,4.8409,4.8039,4.7539,4.6965,4.6429,4.666,4.6904,4.7138,4.7526,4.7956,4.8327,4.8569,4.8569,4.855,4.8532,4.8513,4.8329,4.8273,5.5491,5.5164,5.4684,5.3991,5.3126,5.225,5.1645,5.1183,5.0827,5.0683,5.0683,5.0683,5.0683,5.0683,5.0683,5.0683,5.0683,5.0683,5.0683,5.0683,5.0683,5.0683,5.0683,5.0683,5.0683,5.0683,5.0683,5.0683,5.0683,5.0683,5.0683,5.0683,5.0683,5.0683,5.0683,5.0683,5.0683,5.0683,5.0683,5.0683,5.0683,5.0683,5.0683,5.0683,5.0683,5.0683,5.0683,5.0683,5.0683,5.0683,5.0683,5.0683,5.0683,5.0683,5.0683,5.0683,5.0683,5.0683,5.0683,5.0683,5.0683,5.0683,5.0683,5.0683,5.0683,5.0683,5.0683,5.0683,5.0683,5.0683,5.0683,5.0683,5.0683,5.0653,5.0377,5.0099,5.0,4.9955,4.9904,4.9817,4.9684,4.9514,4.9427,4.9225,4.9061,4.8942,4.889,4.889,4.889,4.889,4.8907,4.8942,4.8925,4.8776,4.8649,4.8649,4.863,4.876,4.8704,4.8314,4.7943,4.7256,4.7558,4.786,4.8059,4.826,4.8562,4.8768,4.875,4.8714,4.8696,4.8641,4.8624,4.8587,4.855,5.5222,5.4511,5.4511,5.3953,5.301,5.2231,5.1769,5.1596,5.0971,5.0683,5.0683,5.0683,5.0683,5.0683,5.0683,5.0683,5.0683,5.0683,5.0683,5.0683,5.0683,5.0683,5.0683,5.0683,5.0683,5.0683,5.0683,5.0683,5.0683,5.0683,5.0683,5.0683,5.0683,5.0683,5.0683,5.0683,5.0683,5.0683,5.0683,5.0683,5.0683,5.0683,5.0683,5.0683,5.0683,5.0683,5.0683,5.0683,5.0683,5.0683,5.0683,5.0683,5.0683,5.0683,5.0683,5.0683,5.0683,5.0683,5.0683,5.0683,5.0683,5.0683,5.0683,5.0683,5.0683,5.0683,5.0683,5.0683,5.0683,5.0683,5.0683,5.0683,5.0683,5.0702,5.0644,5.0525,5.0347,5.0241,5.0159,4.9917,4.9897,4.9726,4.9573,4.9408,4.9331,4.9265,4.9185,4.9201,4.9201,4.9217,4.9155,4.9044,4.901,4.8978,4.8906,4.8872,4.8853,4.8872,4.8853,4.8686,4.8686,4.8389,4.8612,4.8779,4.8574,4.8574,4.8743,4.8856,4.8839,4.8839,4.8767,4.8732,4.866,4.866,4.8642,5.5222,5.4511,5.4511,5.3606,5.2288,5.1962,5.1548,5.0991,5.0798,5.0683,5.0683,5.0683,5.0712,5.0721,5.0731,5.0683,5.0808,5.0808,5.0683,5.0683,5.0683,5.0683,5.0683,5.0683,5.0683,5.0683,5.0683,5.0683,5.0683,5.0683,5.0683,5.0683,5.0683,5.0683,5.0683,5.0683,5.0683,5.0683,5.0683,5.0683,5.0683,5.0683,5.0683,5.0683,5.0683,5.0683,5.0683,5.0683,5.0683,5.0683,5.0683,5.0683,5.0683,5.0683,5.0683,5.0683,5.0683,5.0683,5.0683,5.0683,5.0683,5.0683,5.0683,5.0683,5.0683,5.0683,5.0683,5.0683,5.0683,5.0683,5.0683,5.0683,5.0683,5.0683,5.0683,5.0673,5.0595,5.0575,5.0504,5.0432,5.0249,5.0087,4.9993,4.9771,4.9674,4.9622,4.9579,4.9594,4.9546,4.9502,4.9416,4.9283,4.9268,4.9236,4.9155,4.9123,4.9123,4.9092,4.9042,4.8993,4.8993,4.889,4.889,4.889,4.8872,4.889,4.889,4.889,4.8874,4.8874,4.8874,4.882,4.8785,4.875,4.8732,5.4991,5.3914,5.3895,5.3126,5.1942,5.151,5.1298,5.1183,5.0837,5.0683,5.0683,5.0683,5.0894,5.1202,5.0933,5.1048,5.1625,5.1414,5.1048,5.0808,5.0683,5.0683,5.0683,5.0683,5.0683,5.0683,5.0683,5.0683,5.0683,5.0702,5.0683,5.0683,5.0683,5.0683,5.0683,5.0683,5.0683,5.0683,5.0683,5.0683,5.0683,5.0683,5.0683,5.0683,5.0683,5.0683,5.0683,5.0683,5.0683,5.0683,5.0683,5.0683,5.0683,5.0683,5.0683,5.0683,5.0683,5.0683,5.0683,5.0683,5.0683,5.0683,5.0683,5.0683,5.0683,5.0683,5.0683,5.0683,5.0683,5.0683,5.0683,5.0683,5.0683,5.0683,5.0683,5.0683,5.0683,5.0683,5.0683,5.0673,5.0514,5.0347,5.0214,5.0075,4.9904,4.9784,4.9716,4.973,4.9721,4.966,4.9679,4.9612,4.9583,4.9539,4.9435,4.9401,4.9431,4.9389,4.9315,4.9255,4.9209,4.9061,4.889,4.889,4.889,4.889,4.889,4.889,4.889,4.8873,4.8873,4.889,4.8873,4.882,4.8804,5.4722,5.3203,5.3203,5.2635,5.1683,5.101,5.1068,5.1491,5.0991,5.0683,5.0741,5.0808,5.1221,5.1471,5.1395,5.1952,5.2356,5.201,5.1164,5.075,5.0683,5.0683,5.0683,5.0683,5.0683,5.0683,5.0683,5.0721,5.0875,5.077,5.0827,5.0837,5.0712,5.0712,5.0683,5.0683,5.0683,5.0683,5.0683,5.0683,5.0683,5.0683,5.0683,5.0683,5.0683,5.0683,5.0683,5.0683,5.0683,5.0683,5.0683,5.0683,5.0683,5.0683,5.0683,5.0683,5.0683,5.0683,5.0683,5.0683,5.0683,5.0683,5.0683,5.0683,5.0683,5.0683,5.0683,5.0683,5.0683,5.0683,5.0683,5.0683,5.0683,5.0683,5.0683,5.0683,5.0683,5.0683,5.0683,5.0683,5.0634,5.0534,5.0421,5.0302,5.0142,5.0,4.9949,4.991,4.991,4.991,4.9949,4.9897,4.987,4.9749,4.9637,4.9608,4.9632,4.9651,4.9569,4.9514,4.9457,4.9377,4.9201,4.8942,4.889,4.8907,4.889,4.889,4.889,4.889,4.889,4.889,4.889,4.889,4.8856,5.4722,5.3203,5.3203,5.2318,5.0991,5.075,5.0808,5.0885,5.0866,5.0712,5.0818,5.1395,5.1356,5.1318,5.2356,5.2568,5.201,5.1452,5.0971,5.0721,5.0683,5.0683,5.0683,5.0683,5.0683,5.0683,5.0712,5.0971,5.126,5.1087,5.0991,5.1375,5.101,5.0712,5.0683,5.0683,5.0683,5.0683,5.0683,5.0683,5.0683,5.0683,5.0683,5.0683,5.0683,5.0683,5.0683,5.0683,5.0683,5.0683,5.0683,5.0683,5.0683,5.0683,5.0683,5.0683,5.0683,5.0683,5.0683,5.0683,5.0683,5.0683,5.0683,5.0683,5.0683,5.0683,5.0683,5.0683,5.0683,5.0683,5.0683,5.0683,5.0683,5.0683,5.0683,5.0683,5.0683,5.0683,5.0683,5.0683,5.0683,5.0692,5.0584,5.0504,5.0421,5.0355,5.0325,5.0325,5.0344,5.0355,5.0366,5.0279,5.0135,4.9987,4.9817,4.9817,4.983,4.9851,4.9817,4.9776,4.9721,4.9721,4.9565,4.9265,4.9025,4.8976,4.8942,4.8925,4.889,4.889,4.889,4.889,4.889,4.889,4.889,5.3683,5.2558,5.2519,5.1837,5.0827,5.0683,5.0952,5.1298,5.1318,5.1318,5.1433,5.1712,5.1712,5.151,5.1568,5.1625,5.1337,5.1433,5.1068,5.0818,5.0683,5.0683,5.0683,5.0683,5.0683,5.0683,5.0731,5.0866,5.1202,5.0904,5.0971,5.1048,5.0837,5.0702,5.0683,5.0683,5.0683,5.0683,5.0683,5.0683,5.0683,5.0683,5.0683,5.0683,5.0683,5.0683,5.0683,5.0683,5.0683,5.0683,5.0683,5.0683,5.0683,5.0683,5.0683,5.0683,5.0683,5.0683,5.0683,5.0683,5.0683,5.0683,5.0683,5.0683,5.0683,5.0683,5.0683,5.0683,5.0683,5.0683,5.0683,5.0683,5.0683,5.0683,5.0683,5.0683,5.0683,5.0683,5.0683,5.0683,5.0683,5.0683,5.0683,5.0663,5.0683,5.0683,5.0683,5.0683,5.0683,5.0663,5.0604,5.0534,5.0399,5.0313,5.0155,5.0142,5.0118,5.0118,5.0075,5.0038,4.9968,4.9962,4.9803,4.9535,4.9343,4.9204,4.9094,4.9094,4.8993,4.889,4.8909,4.8909,4.889,4.889,4.889,5.2683,5.1904,5.1904,5.1433,5.076,5.0683,5.1029,5.1568,5.1596,5.1568,5.1702,5.1808,5.1788,5.151,5.1087,5.0827,5.0933,5.1529,5.1164,5.0818,5.0683,5.0683,5.0683,5.0683,5.0683,5.0683,5.0683,5.0808,5.1068,5.0818,5.0779,5.0971,5.0894,5.0683,5.0683,5.0683,5.0683,5.0683,5.0683,5.0683,5.0683,5.0683,5.0683,5.0683,5.0683,5.0683,5.0683,5.0683,5.0683,5.0683,5.0683,5.0683,5.0683,5.0683,5.0683,5.0683,5.0683,5.0683,5.0683,5.0683,5.0683,5.0683,5.0683,5.0683,5.0683,5.0683,5.0683,5.0683,5.0683,5.0683,5.0683,5.0683,5.0683,5.0683,5.0683,5.0683,5.0683,5.0683,5.0683,5.0683,5.0683,5.0683,5.0683,5.0683,5.0683,5.0683,5.0683,5.0683,5.0683,5.0683,5.0663,5.0673,5.0624,5.0624,5.0554,5.0523,5.0483,5.0462,5.0399,5.0325,5.0249,5.019,5.0025,4.9923,4.9749,4.9608,4.9435,4.9255,4.9176,4.9077,4.8978,4.8909,4.889,4.889,4.889,5.2683,5.1904,5.1885,5.1433,5.077,5.0683,5.075,5.0923,5.0971,5.0837,5.1087,5.1548,5.1529,5.0991,5.0818,5.1087,5.1356,5.1125,5.0894,5.0702,5.0683,5.0683,5.0683,5.0683,5.0779,5.0837,5.0798,5.1125,5.1414,5.1087,5.1087,5.1414,5.0991,5.0721,5.0856,5.0741,5.0683,5.0683,5.0683,5.0683,5.0683,5.0683,5.0683,5.0683,5.0683,5.076,5.0818,5.0856,5.0856,5.0904,5.0808,5.0731,5.0683,5.0683,5.0683,5.0683,5.0683,5.0683,5.0721,5.0683,5.0683,5.0683,5.0683,5.0683,5.0683,5.0683,5.0683,5.0683,5.0683,5.0683,5.0683,5.0683,5.0683,5.0683,5.0683,5.0683,5.0683,5.0683,5.0683,5.0683,5.0683,5.0683,5.0683,5.0683,5.0683,5.0683,5.0683,5.0683,5.0683,5.0683,5.0683,5.0683,5.0683,5.0683,5.0683,5.0683,5.0683,5.0683,5.0634,5.0565,5.0483,5.0421,5.0523,5.0388,5.0209,5.0019,4.9857,4.967,4.9442,4.927,4.9174,4.9025,4.889,4.889,4.889,5.1568,5.1221,5.1221,5.1029,5.0712,5.0683,5.0952,5.1318,5.1375,5.1375,5.1433,5.1722,5.1452,5.0837,5.0683,5.0856,5.1087,5.0894,5.0712,5.0721,5.0741,5.0702,5.0683,5.0721,5.0837,5.1279,5.1471,5.1914,5.201,5.1491,5.1106,5.1664,5.1164,5.0991,5.1087,5.0875,5.0741,5.0683,5.0683,5.0683,5.0683,5.0702,5.0721,5.0721,5.0741,5.0991,5.1279,5.1375,5.1683,5.1933,5.2106,5.2125,5.2125,5.2145,5.2145,5.2145,5.2145,5.1702,5.0904,5.076,5.076,5.0712,5.0712,5.0683,5.0683,5.0683,5.0683,5.0683,5.0683,5.0683,5.0683,5.0683,5.0683,5.0683,5.0683,5.0683,5.0683,5.0683,5.0683,5.0683,5.0683,5.0683,5.0683,5.0683,5.0683,5.0683,5.0683,5.0683,5.0683,5.0683,5.0683,5.0683,5.0683,5.0683,5.0683,5.0683,5.0683,5.0683,5.0683,5.0634,5.0663,5.0673,5.0683,5.0683,5.0523,5.0366,5.0256,4.9974,4.967,4.951,4.9374,4.9268,4.9141,4.8925,4.8942,5.0683,5.0683,5.0683,5.0683,5.0683,5.0683,5.101,5.1548,5.1548,5.1587,5.1606,5.1568,5.1318,5.101,5.0837,5.0856,5.1048,5.0991,5.0991,5.101,5.101,5.1029,5.1106,5.1106,5.1337,5.1904,5.1788,5.2299,5.2452,5.1972,5.1395,5.1827,5.1087,5.101,5.1241,5.101,5.0683,5.0712,5.0952,5.1068,5.1106,5.1318,5.1395,5.1375,5.1395,5.1606,5.2125,5.2231,5.2626,5.2914,5.3029,5.2953,5.2991,5.2933,5.2953,5.2953,5.2933,5.2568,5.1856,5.1529,5.1221,5.101,5.0731,5.0683,5.0683,5.0683,5.0683,5.0683,5.0683,5.0683,5.0683,5.0683,5.0683,5.0683,5.0683,5.0683,5.0683,5.0683,5.0683,5.0683,5.0683,5.0683,5.0683,5.0683,5.0683,5.0683,5.0683,5.0683,5.0683,5.0683,5.0683,5.0683,5.0683,5.0683,5.0683,5.0683,5.0683,5.0683,5.0683,5.0683,5.0683,5.0683,5.0683,5.0683,5.0683,5.0624,5.0462,5.0166,4.991,4.9798,4.9707,4.9569,4.9423,4.919,4.9108,5.0683,5.0683,5.0683,5.0683,5.0683,5.0683,5.0741,5.0875,5.0846,5.0904,5.1029,5.0904,5.1356,5.1548,5.1318,5.1318,5.1827,5.1827,5.1827,5.1827,5.1827,5.1827,5.1846,5.1875,5.1923,5.2096,5.2308,5.2722,5.2914,5.2664,5.2068,5.1788,5.1337,5.0933,5.0856,5.0894,5.0808,5.0952,5.1356,5.1741,5.201,5.2395,5.2779,5.2856,5.2933,5.3049,5.3106,5.3106,5.328,5.3491,5.3568,5.3568,5.3664,5.3626,5.3645,5.3645,5.3626,5.3395,5.3106,5.2722,5.2472,5.1875,5.126,5.0798,5.0712,5.0683,5.0683,5.0683,5.0683,5.0683,5.0683,5.0683,5.0683,5.0683,5.0683,5.0683,5.0683,5.0683,5.0683,5.0683,5.0683,5.0683,5.0683,5.0683,5.0683,5.0683,5.0683,5.0683,5.0683,5.0683,5.0683,5.0683,5.0683,5.0683,5.0683,5.0683,5.0683,5.0683,5.0683,5.0683,5.0683,5.0683,5.0683,5.0683,5.0683,5.0683,5.0673,5.0399,5.019,5.0123,5.0012,4.9817,4.967,4.9465,4.9495,5.0683,5.0683,5.0683,5.0683,5.0683,5.0683,5.0683,5.0683,5.0702,5.101,5.1414,5.1471,5.1914,5.2395,5.2491,5.2375,5.2683,5.2692,5.2692,5.2712,5.2692,5.2692,5.2702,5.2799,5.2953,5.3318,5.3491,5.3914,5.4607,5.3703,5.3568,5.3145,5.2106,5.1606,5.1375,5.1106,5.1068,5.1452,5.1798,5.2096,5.2731,5.2933,5.3203,5.3203,5.3203,5.353,5.3876,5.3972,5.428,5.4549,5.4626,5.4587,5.4549,5.4568,5.4568,5.4568,5.4549,5.4568,5.4337,5.3799,5.2837,5.2096,5.1568,5.1241,5.0856,5.0712,5.0683,5.0683,5.0683,5.0683,5.0683,5.0683,5.0683,5.0683,5.0683,5.0683,5.0683,5.0683,5.0683,5.0683,5.0683,5.0683,5.0683,5.0683,5.0683,5.0683,5.0683,5.0683,5.0683,5.0683,5.0683,5.0683,5.0683,5.0683,5.0683,5.0683,5.0683,5.0683,5.0683,5.0683,5.0683,5.0683,5.0683,5.0683,5.0683,5.0683,5.0644,5.0575,5.0493,5.0399,5.0225,4.9993,4.987,4.9768,4.9803,5.0683,5.0683,5.0683,5.0683,5.0683,5.0683,5.0683,5.0683,5.0683,5.1164,5.1885,5.1942,5.2558,5.328,5.3241,5.3395,5.3491,5.3587,5.3587,5.3587,5.3587,5.3568,5.3587,5.3645,5.3818,5.4434,5.4568,5.4818,5.5453,5.4838,5.4434,5.3953,5.3356,5.276,5.2154,5.1818,5.1722,5.2154,5.2635,5.2876,5.3568,5.3895,5.403,5.4068,5.4107,5.4299,5.4722,5.4857,5.5068,5.5357,5.5549,5.5607,5.5645,5.5684,5.5684,5.5684,5.5684,5.5684,5.5318,5.4472,5.3356,5.2972,5.2077,5.1645,5.1202,5.0856,5.0683,5.0683,5.0683,5.0683,5.0683,5.0683,5.0683,5.0683,5.0683,5.0683,5.0683,5.0683,5.0683,5.0683,5.0683,5.0683,5.0683,5.0683,5.0683,5.0683,5.0683,5.0683,5.0683,5.0683,5.0683,5.0683,5.0683,5.0683,5.0683,5.0683,5.0683,5.0683,5.0683,5.0683,5.0683,5.0683,5.0683,5.0683,5.0683,5.0683,5.0673,5.0624,5.0634,5.0663,5.0462,5.0249,5.0214,5.0118,5.0094,5.0683,5.0683,5.0683,5.0683,5.0683,5.0683,5.0683,5.0712,5.0798,5.126,5.2,5.2096,5.301,5.403,5.3837,5.3953,5.4357,5.4453,5.4472,5.4453,5.4434,5.4453,5.4472,5.4511,5.453,5.4491,5.4684,5.5107,5.5684,5.5068,5.4703,5.4645,5.4337,5.3799,5.3241,5.3126,5.3126,5.3299,5.3933,5.4184,5.4549,5.5011,5.5203,5.5222,5.5203,5.528,5.5357,5.5434,5.553,5.5645,5.5684,5.5684,5.5684,5.5684,5.5684,5.5684,5.5684,5.5684,5.5607,5.4876,5.4395,5.3933,5.2895,5.2,5.1722,5.1241,5.0683,5.0683,5.0683,5.0683,5.0683,5.0683,5.0683,5.0683,5.0683,5.0683,5.0683,5.0683,5.0683,5.0683,5.0683,5.0683,5.0683,5.0683,5.0683,5.0683,5.0683,5.0683,5.0683,5.0683,5.0683,5.0683,5.0683,5.0683,5.0683,5.0683,5.0683,5.0683,5.0683,5.0683,5.0683,5.0683,5.0683,5.0683,5.0683,5.0683,5.0683,5.0683,5.0683,5.0683,5.0683,5.0565,5.0534,5.0472,5.0388,5.0683,5.0683,5.0683,5.0683,5.0683,5.0683,5.0683,5.0798,5.1279,5.1972,5.2779,5.3318,5.4184,5.4895,5.5011,5.4914,5.5164,5.528,5.528,5.5261,5.5222,5.528,5.5261,5.5203,5.5241,5.528,5.5318,5.5318,5.5684,5.528,5.5299,5.5299,5.5088,5.4491,5.3568,5.326,5.3395,5.3972,5.4395,5.4722,5.5241,5.5549,5.5684,5.5684,5.5684,5.5684,5.5684,5.5684,5.5684,5.5684,5.5684,5.5684,5.5684,5.5684,5.5684,5.5684,5.5684,5.5684,5.5684,5.5338,5.503,5.4357,5.3472,5.2462,5.1962,5.1164,5.0818,5.0683,5.0683,5.0683,5.0683,5.0683,5.0683,5.0683,5.0683,5.0683,5.0683,5.0683,5.0683,5.0683,5.0683,5.0683,5.0683,5.0856,5.0894,5.0818,5.0818,5.0721,5.0712,5.0683,5.0683,5.0683,5.0683,5.0683,5.0683,5.0683,5.0683,5.0683,5.0683,5.0683,5.0683,5.0683,5.0683,5.0683,5.0683,5.0683,5.0683,5.0683,5.0683,5.0683,5.0683,5.0683,5.0624,5.0614,5.0604,5.0683,5.0683,5.0683,5.0683,5.0683,5.0683,5.0683,5.0837,5.1548,5.2385,5.3241,5.4107,5.4914,5.5472,5.5684,5.5684,5.5684,5.5684,5.5684,5.5684,5.5684,5.5626,5.5645,5.5684,5.5588,5.5684,5.5684,5.5684,5.5684,5.5684,5.5645,5.5626,5.5684,5.5126,5.4395,5.4299,5.4395,5.4857,5.5068,5.5184,5.5511,5.5684,5.5684,5.5684,5.5684,5.5684,5.5684,5.5684,5.5684,5.5684,5.5684,5.5684,5.5684,5.5684,5.5684,5.5684,5.5684,5.5684,5.5684,5.5684,5.5357,5.4991,5.3895,5.3019,5.2231,5.1375,5.0875,5.0683,5.0683,5.0683,5.0683,5.0683,5.0683,5.0683,5.0683,5.0683,5.0683,5.0683,5.0683,5.0683,5.0683,5.0683,5.0741,5.0991,5.1144,5.1048,5.0952,5.0837,5.0731,5.0712,5.0683,5.0683,5.0683,5.0683,5.0683,5.0683,5.0683,5.0683,5.0683,5.0683,5.0683,5.0683,5.0683,5.0683,5.0683,5.0683,5.0683,5.0683,5.0683,5.0683,5.0683,5.0683,5.0683,5.0683,5.0683,5.0683,5.0683,5.0683,5.0683,5.0683,5.0683,5.0683,5.0808,5.1615,5.2462,5.326,5.4184,5.5049,5.5588,5.5684,5.5684,5.5684,5.5684,5.5684,5.5684,5.5684,5.5684,5.5684,5.5684,5.5684,5.5684,5.5684,5.5684,5.5684,5.5684,5.5684,5.5684,5.5684,5.5453,5.5338,5.5299,5.5357,5.5415,5.5472,5.553,5.5684,5.5684,5.5684,5.5684,5.5684,5.5684,5.5684,5.5684,5.5684,5.5684,5.5684,5.5684,5.5684,5.5684,5.5684,5.5684,5.5684,5.5684,5.5684,5.5684,5.5684,5.528,5.4049,5.3433,5.276,5.176,5.1087,5.076,5.0683,5.0683,5.0683,5.0683,5.0683,5.0683,5.0683,5.0683,5.0683,5.0683,5.0683,5.0683,5.0683,5.0702,5.0779,5.0991,5.1183,5.101,5.0904,5.0914,5.0808,5.0712,5.0683,5.0683,5.0683,5.0683,5.0683,5.0683,5.0683,5.0683,5.0683,5.0683,5.0683,5.0702,5.0683,5.0683,5.0683,5.0683,5.0683,5.0683,5.0683,5.0683,5.0712,5.0683,5.0683,5.0683,5.0683,5.0683,5.0683,5.0683,5.0683,5.0683,5.0683,5.0683,5.0875,5.2145,5.3019,5.328,5.4722,5.5415,5.5684,5.5684,5.5684,5.5684,5.5684,5.5684,5.5684,5.5684,5.5684,5.5684,5.5684,5.5684,5.5684,5.5684,5.5684,5.5684,5.5684,5.5684,5.5684,5.5684,5.5684,5.5684,5.5684,5.5684,5.5684,5.5684,5.5684,5.5684,5.5684,5.5684,5.5684,5.5684,5.5684,5.5684,5.5684,5.5684,5.5684,5.5684,5.5684,5.5684,5.5684,5.5684,5.5684,5.5684,5.5684,5.5684,5.5684,5.5684,5.5415,5.4222,5.3433,5.2876,5.2222,5.1279,5.0875,5.0702,5.0683,5.0683,5.0683,5.0683,5.0683,5.0683,5.0683,5.0721,5.0856,5.0856,5.0914,5.0894,5.0798,5.0875,5.0971,5.1087,5.0923,5.0866,5.0962,5.0904,5.0798,5.0683,5.0683,5.0683,5.0683,5.0683,5.0683,5.0683,5.0683,5.0702,5.076,5.0818,5.0818,5.0721,5.0741,5.0837,5.0779,5.0683,5.076,5.0952,5.077,5.0731,5.0712,5.0702,5.0798,5.0856,5.0683,5.0683,5.0683,5.0683,5.0683,5.0683,5.0683,5.102,5.2491,5.3203,5.3414,5.4953,5.5684,5.5684,5.5684,5.5684,5.5684,5.5684,5.5684,5.5684,5.5684,5.5684,5.5684,5.5684,5.5684,5.5684,5.5684,5.5684,5.5684,5.5684,5.5684,5.5684,5.5684,5.5684,5.5684,5.5684,5.5684,5.5684,5.5684,5.5684,5.5684,5.5684,5.5684,5.5684,5.5684,5.5684,5.5684,5.5684,5.5684,5.5684,5.5684,5.5684,5.5684,5.5684,5.5684,5.5684,5.5684,5.5684,5.5684,5.5684,5.5684,5.5453,5.4722,5.4241,5.3203,5.2337,5.1433,5.0779,5.0721,5.0683,5.0683,5.0683,5.0683,5.0683,5.0683,5.0683,5.0856,5.1029,5.1125,5.1202,5.1125,5.0991,5.0991,5.1068,5.1202,5.1318,5.1375,5.1395,5.1202,5.0933,5.0779,5.0683,5.0683,5.0683,5.076,5.0952,5.1068,5.1029,5.0798,5.0856,5.0952,5.0914,5.0798,5.0894,5.1048,5.1106,5.126,5.1221,5.1298,5.1164,5.1106,5.1087,5.1144,5.1183,5.1221,5.0635,5.0683,5.0683,5.0683,5.0683,5.0683,5.0683,5.0875,5.2356,5.3087,5.3356,5.4722,5.5376,5.5376,5.5415,5.5568,5.5645,5.5684,5.5684,5.5684,5.5684,5.5684,5.5684,5.5684,5.5684,5.5684,5.5684,5.5684,5.5684,5.5684,5.5684,5.5684,5.5684,5.5684,5.5684,5.5684,5.5684,5.5684,5.5684,5.5684,5.5684,5.5684,5.5684,5.5684,5.5684,5.5684,5.5684,5.5684,5.5684,5.5684,5.5684,5.5684,5.5684,5.5684,5.5684,5.5684,5.5684,5.5684,5.5684,5.5684,5.5684,5.5665,5.5588,5.4914,5.3799,5.2972,5.2183,5.1606,5.1568,5.1568,5.1587,5.1587,5.1587,5.1433,5.1318,5.1221,5.1183,5.1279,5.1241,5.1375,5.1548,5.1414,5.1356,5.1471,5.176,5.1875,5.1769,5.175,5.1395,5.101,5.1029,5.0875,5.101,5.1164,5.1452,5.1625,5.1645,5.151,5.1318,5.1202,5.1471,5.1221,5.0837,5.1183,5.1587,5.1875,5.2029,5.201,5.2029,5.2019,5.1914,5.1664,5.1645,5.1856,5.1702,5.0096,5.0683,5.0683,5.0683,5.0683,5.0683,5.0683,5.0789,5.176,5.2212,5.2423,5.3318,5.4203,5.4741,5.478,5.4991,5.5453,5.5491,5.5665,5.5645,5.5645,5.5684,5.5684,5.5684,5.5684,5.5684,5.5684,5.5684,5.5684,5.5684,5.5684,5.5684,5.5684,5.5684,5.5684,5.5684,5.5684,5.5684,5.5684,5.5684,5.5684,5.5684,5.5684,5.5684,5.5684,5.5684,5.5684,5.5684,5.5684,5.5684,5.5684,5.5684,5.5684,5.5684,5.5684,5.5684,5.5684,5.5684,5.5684,5.5684,5.5684,5.5472,5.528,5.4838,5.4299,5.3837,5.3337,5.2818,5.2491,5.2472,5.2452,5.2452,5.2414,5.2183,5.1991,5.1798,5.1606,5.1491,5.1433,5.1606,5.1846,5.1865,5.1788,5.1904,5.2269,5.2231,5.1981,5.1741,5.1241,5.0923,5.1414,5.1414,5.1587,5.1779,5.2087,5.2337,5.2395,5.2529,5.2472,5.2279,5.2038,5.1827,5.1664,5.1895,5.2202,5.2606,5.2895,5.2876,5.2895,5.2885,5.2827,5.2606,5.2856,5.3106,5.2645,4.9336,5.0135,5.0558,5.0683,5.0683,5.0683,5.0683,5.0779,5.1183,5.1356,5.1587,5.2606,5.3472,5.3895,5.3933,5.4126,5.4703,5.5011,5.5049,5.5164,5.5568,5.5684,5.5684,5.5684,5.5684,5.5684,5.5684,5.5684,5.5684,5.5684,5.5684,5.5684,5.5684,5.5684,5.5684,5.5684,5.5684,5.5684,5.5684,5.5684,5.5684,5.5684,5.5684,5.5684,5.5684,5.5684,5.5684,5.5684,5.5684,5.5684,5.5684,5.5684,5.5684,5.5684,5.5684,5.5684,5.5684,5.5684,5.5684,5.5684,5.5684,5.5472,5.5395,5.5145,5.5164,5.4684,5.401,5.3491,5.2972,5.2876,5.2876,5.2895,5.2895,5.2741,5.2664,5.2549,5.2231,5.1981,5.1846,5.175,5.1942,5.2029,5.1914,5.1731,5.2019,5.201,5.1818,5.1827,5.1318,5.1039,5.151,5.1914,5.2087,5.2375,5.2702,5.2972,5.3183,5.3337,5.3549,5.3106,5.2692,5.2596,5.2538,5.2741,5.3049,5.3568,5.378,5.3703,5.3741,5.378,5.3703,5.3606,5.3914,5.4164,5.3876,4.8452,4.9317,5.0144,5.0539,5.0577,5.0673,5.0683,5.0702,5.0702,5.0721,5.0894,5.2202,5.2837,5.301,5.3029,5.3126,5.351,5.4395,5.4549,5.4818,5.5376,5.5588,5.5684,5.5684,5.5684,5.5684,5.5684,5.5684,5.5684,5.5684,5.5684,5.5684,5.5684,5.5684,5.5684,5.5684,5.5684,5.5684,5.5684,5.5684,5.5684,5.5684,5.5684,5.5684,5.5684,5.5684,5.5684,5.5684,5.5684,5.5684,5.5684,5.5684,5.5684,5.5684,5.5684,5.5684,5.5684,5.5684,5.5684,5.5684,5.5684,5.5665,5.5684,5.5684,5.5645,5.5318,5.4645,5.426,5.376,5.3568,5.3587,5.3587,5.3587,5.351,5.3472,5.3327,5.2962,5.2577,5.2327,5.2154,5.225,5.2375,5.2164,5.1972,5.1991,5.1914,5.1856,5.176,5.1683,5.1587,5.1741,5.2202,5.2529,5.2876,5.3472,5.378,5.4087,5.426,5.4376,5.3818,5.3414,5.3395,5.3414,5.351,5.3876,5.4414,5.4511,5.4395,5.4491,5.453,5.426,5.4126,5.4491,5.4741,5.4972,4.7596,4.8432,4.9298,4.9644,4.976,5.0356,5.0683,5.0683,5.0683,5.0683,5.0779,5.0943,5.1452,5.2135,5.2135,5.2356,5.2953,5.3857,5.4395,5.4645,5.5299,5.5588,5.5684,5.5684,5.5684,5.5684,5.5684,5.5684,5.5684,5.5684,5.5684,5.5684,5.5684,5.5684,5.5684,5.5684,5.5684,5.5684,5.5684,5.5684,5.5684,5.5684,5.5684,5.5684,5.5684,5.5684,5.5684,5.5684,5.5684,5.5684,5.5684,5.5684,5.5684,5.5684,5.5684,5.5684,5.5684,5.5684,5.5684,5.5684,5.5684,5.5684,5.5684,5.5684,5.5665,5.5665,5.5261,5.5261,5.4934,5.4934,5.4953,5.4953,5.4934,5.4722,5.4607,5.428,5.3914,5.3433,5.3049,5.3087,5.3222,5.3106,5.2876,5.2914,5.3241,5.3203,5.3183,5.2991,5.2096,5.2038,5.2068,5.2568,5.3049,5.4049,5.4914,5.4895,5.5088,5.5241,5.5107,5.4453,5.4126,5.4241,5.428,5.4337,5.4722,5.5241,5.5222,5.4953,5.503,5.5011,5.4645,5.4549,5.4934,5.5203,5.5338]}]]